<?xml version="1.0" encoding="UTF-8" standalone="no" ?><gpx xmlns="http://www.topografix.com/GPX/1/1" xmlns:gpxx="http://www.garmin.com/xmlschemas/GpxExtensions/v3" xmlns:gpxtrkx="http://www.garmin.com/xmlschemas/TrackStatsExtension/v1" xmlns:wptx1="http://www.garmin.com/xmlschemas/WaypointExtension/v1" xmlns:gpxtpx="http://www.garmin.com/xmlschemas/TrackPointExtension/v1" creator="GPSMAP 64st" version="1.1" xmlns:xsi="http://www.w3.org/2001/XMLSchema-instance" xsi:schemaLocation="http://www.topografix.com/GPX/1/1 http://www.topografix.com/GPX/1/1/gpx.xsd http://www.garmin.com/xmlschemas/GpxExtensions/v3 http://www8.garmin.com/xmlschemas/GpxExtensionsv3.xsd http://www.garmin.com/xmlschemas/TrackStatsExtension/v1 http://www8.garmin.com/xmlschemas/TrackStatsExtension.xsd http://www.garmin.com/xmlschemas/WaypointExtension/v1 http://www8.garmin.com/xmlschemas/WaypointExtensionv1.xsd http://www.garmin.com/xmlschemas/TrackPointExtension/v1 http://www.garmin.com/xmlschemas/TrackPointExtensionv1.xsd"><metadata><link href="http://www.garmin.com"><text>Garmin International</text></link><time>2026-08-31T06:05:29Z</time></metadata><trk><name>СЕРЁГА8-31 10:05:00</name><extensions><gpxx:TrackExtension><gpxx:DisplayColor>Yellow</gpxx:DisplayColor></gpxx:TrackExtension><gpxtrkx:TrackStatsExtension><gpxtrkx:Distance>136205</gpxtrkx:Distance><gpxtrkx:TotalElapsedTime>1077415</gpxtrkx:TotalElapsedTime><gpxtrkx:MovingTime>36640</gpxtrkx:MovingTime><gpxtrkx:StoppedTime>4683</gpxtrkx:StoppedTime><gpxtrkx:MovingSpeed>4</gpxtrkx:MovingSpeed><gpxtrkx:MaxSpeed>10</gpxtrkx:MaxSpeed><gpxtrkx:MaxElevation>90</gpxtrkx:MaxElevation><gpxtrkx:MinElevation>-91</gpxtrkx:MinElevation><gpxtrkx:Ascent>223</gpxtrkx:Ascent><gpxtrkx:Descent>210</gpxtrkx:Descent><gpxtrkx:AvgAscentRate>0</gpxtrkx:AvgAscentRate><gpxtrkx:MaxAscentRate>0</gpxtrkx:MaxAscentRate><gpxtrkx:AvgDescentRate>0</gpxtrkx:AvgDescentRate><gpxtrkx:MaxDescentRate>-1</gpxtrkx:MaxDescentRate></gpxtrkx:TrackStatsExtension></extensions><trkseg><trkpt lat="59.0964107495" lon="30.4575425014"><ele>-91.11</ele><time>2026-08-18T18:48:34Z</time></trkpt><trkpt lat="59.0964110848" lon="30.4575425852"><ele>-91.11</ele><time>2026-08-18T18:48:35Z</time></trkpt><trkpt lat="59.0964113362" lon="30.4575409088"><ele>41.43</ele><time>2026-08-18T18:48:39Z</time></trkpt><trkpt lat="59.0964109171" lon="30.4575408250"><ele>41.43</ele><time>2026-08-18T18:48:40Z</time></trkpt><trkpt lat="59.0964222327" lon="30.4575677309"><ele>42.07</ele><time>2026-08-18T18:49:07Z</time></trkpt><trkpt lat="59.0964161139" lon="30.4575453512"><ele>42.15</ele><time>2026-08-18T18:49:28Z</time></trkpt><trkpt lat="59.0964117553" lon="30.4575464409"><ele>42.15</ele><time>2026-08-18T18:49:32Z</time></trkpt></trkseg><trkseg><trkpt lat="60.0579292048" lon="30.3919249400"><ele>-4.46</ele><time>2026-08-29T11:37:02Z</time></trkpt><trkpt lat="60.0579742994" lon="30.3918551188"><ele>-4.46</ele><time>2026-08-29T11:37:04Z</time></trkpt><trkpt lat="60.0580491498" lon="30.3917687014"><ele>-4.10</ele><time>2026-08-29T11:37:15Z</time></trkpt><trkpt lat="60.0581365731" lon="30.3916466609"><ele>-4.04</ele><time>2026-08-29T11:37:18Z</time></trkpt><trkpt lat="60.0583847612" lon="30.3913107980"><ele>-3.87</ele><time>2026-08-29T11:37:27Z</time></trkpt><trkpt lat="60.0588959735" lon="30.3906606138"><ele>-2.90</ele><time>2026-08-29T11:37:38Z</time></trkpt><trkpt lat="60.0613079499" lon="30.3881983459"><ele>-2.92</ele><time>2026-08-29T11:38:27Z</time></trkpt><trkpt lat="60.0613922719" lon="30.3881064802"><ele>-2.92</ele><time>2026-08-29T11:38:28Z</time></trkpt><trkpt lat="60.0615578983" lon="30.3879519179"><ele>-2.90</ele><time>2026-08-29T11:38:30Z</time></trkpt><trkpt lat="60.0623972621" lon="30.3872490115"><ele>-2.51</ele><time>2026-08-29T11:38:42Z</time></trkpt><trkpt lat="60.0632880908" lon="30.3866482805"><ele>-3.90</ele><time>2026-08-29T11:38:53Z</time></trkpt><trkpt lat="60.0643203221" lon="30.3861111682"><ele>-5.31</ele><time>2026-08-29T11:39:08Z</time></trkpt><trkpt lat="60.0643753912" lon="30.3860857710"><ele>-4.88</ele><time>2026-08-29T11:39:09Z</time></trkpt><trkpt lat="60.0645723660" lon="30.3859880380"><ele>-4.84</ele><time>2026-08-29T11:39:18Z</time></trkpt><trkpt lat="60.0646727812" lon="30.3859423567"><ele>-4.76</ele><time>2026-08-29T11:39:23Z</time></trkpt><trkpt lat="60.0660992134" lon="30.3852754086"><ele>-5.60</ele><time>2026-08-29T11:39:48Z</time></trkpt><trkpt lat="60.0662483275" lon="30.3851796873"><ele>-5.60</ele><time>2026-08-29T11:39:49Z</time></trkpt><trkpt lat="60.0664110202" lon="30.3851245344"><ele>-5.58</ele><time>2026-08-29T11:39:51Z</time></trkpt><trkpt lat="60.0673261564" lon="30.3846716601"><ele>-5.36</ele><time>2026-08-29T11:40:05Z</time></trkpt><trkpt lat="60.0676166732" lon="30.3845528048"><ele>-5.15</ele><time>2026-08-29T11:40:16Z</time></trkpt><trkpt lat="60.0676569063" lon="30.3845521342"><ele>-5.15</ele><time>2026-08-29T11:40:21Z</time></trkpt><trkpt lat="60.0676693954" lon="30.3845471051"><ele>-6.08</ele><time>2026-08-29T11:40:22Z</time></trkpt><trkpt lat="60.0676798727" lon="30.3845414054"><ele>-6.42</ele><time>2026-08-29T11:40:23Z</time></trkpt><trkpt lat="60.0677191000" lon="30.3845486976"><ele>-6.13</ele><time>2026-08-29T11:40:38Z</time></trkpt><trkpt lat="60.0677820481" lon="30.3845126554"><ele>-6.00</ele><time>2026-08-29T11:40:42Z</time></trkpt><trkpt lat="60.0678253826" lon="30.3844848275"><ele>-6.35</ele><time>2026-08-29T11:40:44Z</time></trkpt><trkpt lat="60.0678490195" lon="30.3844717517"><ele>-6.29</ele><time>2026-08-29T11:40:45Z</time></trkpt><trkpt lat="60.0678775180" lon="30.3844571672"><ele>-6.20</ele><time>2026-08-29T11:40:46Z</time></trkpt><trkpt lat="60.0684061646" lon="30.3842095658"><ele>-4.93</ele><time>2026-08-29T11:40:58Z</time></trkpt><trkpt lat="60.0693104044" lon="30.3838046361"><ele>-5.66</ele><time>2026-08-29T11:41:14Z</time></trkpt><trkpt lat="60.0696862489" lon="30.3836318012"><ele>-5.87</ele><time>2026-08-29T11:41:20Z</time></trkpt><trkpt lat="60.0724417996" lon="30.3824993223"><ele>-4.30</ele><time>2026-08-29T11:42:26Z</time></trkpt><trkpt lat="60.0724829547" lon="30.3824772779"><ele>-4.30</ele><time>2026-08-29T11:42:27Z</time></trkpt><trkpt lat="60.0727391895" lon="30.3823537286"><ele>-4.24</ele><time>2026-08-29T11:42:39Z</time></trkpt><trkpt lat="60.0729576219" lon="30.3822554927"><ele>-4.83</ele><time>2026-08-29T11:42:49Z</time></trkpt><trkpt lat="60.0731134415" lon="30.3821947239"><ele>-4.76</ele><time>2026-08-29T11:42:53Z</time></trkpt></trkseg><trkseg><trkpt lat="60.2468856331" lon="30.4632196482"><ele>52.32</ele><time>2026-08-29T12:31:24Z</time></trkpt><trkpt lat="60.2470554505" lon="30.4631300457"><ele>55.67</ele><time>2026-08-29T12:31:42Z</time></trkpt><trkpt lat="60.2470588032" lon="30.4631214961"><ele>57.72</ele><time>2026-08-29T12:31:45Z</time></trkpt><trkpt lat="60.2470536903" lon="30.4631030560"><ele>60.61</ele><time>2026-08-29T12:31:50Z</time></trkpt><trkpt lat="60.2470515948" lon="30.4630868789"><ele>63.88</ele><time>2026-08-29T12:31:54Z</time></trkpt><trkpt lat="60.2470531873" lon="30.4630893096"><ele>64.12</ele><time>2026-08-29T12:31:55Z</time></trkpt><trkpt lat="60.2470475715" lon="30.4630953446"><ele>66.24</ele><time>2026-08-29T12:31:59Z</time></trkpt><trkpt lat="60.2470287122" lon="30.4630949255"><ele>67.56</ele><time>2026-08-29T12:32:02Z</time></trkpt><trkpt lat="60.2470158041" lon="30.4631016310"><ele>70.81</ele><time>2026-08-29T12:32:12Z</time></trkpt><trkpt lat="60.2470372617" lon="30.4630810954"><ele>73.85</ele><time>2026-08-29T12:32:25Z</time></trkpt><trkpt lat="60.2470288798" lon="30.4631137848"><ele>76.00</ele><time>2026-08-29T12:32:44Z</time></trkpt><trkpt lat="60.2470212523" lon="30.4631364997"><ele>78.22</ele><time>2026-08-29T12:33:09Z</time></trkpt><trkpt lat="60.2470491640" lon="30.4631172214"><ele>78.08</ele><time>2026-08-29T12:33:34Z</time></trkpt><trkpt lat="60.2470533550" lon="30.4631133657"><ele>77.93</ele><time>2026-08-29T12:34:05Z</time></trkpt><trkpt lat="60.2470402792" lon="30.4631466419"><ele>78.11</ele><time>2026-08-29T12:34:36Z</time></trkpt><trkpt lat="60.2470603120" lon="30.4631422833"><ele>77.69</ele><time>2026-08-29T12:34:56Z</time></trkpt><trkpt lat="60.2470774949" lon="30.4631592147"><ele>78.21</ele><time>2026-08-29T12:35:21Z</time></trkpt><trkpt lat="60.2470623236" lon="30.4631684348"><ele>77.94</ele><time>2026-08-29T12:35:46Z</time></trkpt><trkpt lat="60.2470594738" lon="30.4631693568"><ele>78.20</ele><time>2026-08-29T12:36:12Z</time></trkpt><trkpt lat="60.2470439672" lon="30.4631498270"><ele>78.05</ele><time>2026-08-29T12:36:37Z</time></trkpt><trkpt lat="60.2470468171" lon="30.4631889705"><ele>78.87</ele><time>2026-08-29T12:37:05Z</time></trkpt><trkpt lat="60.2470634971" lon="30.4631669261"><ele>78.08</ele><time>2026-08-29T12:37:23Z</time></trkpt><trkpt lat="60.2470668498" lon="30.4631484021"><ele>78.46</ele><time>2026-08-29T12:37:43Z</time></trkpt><trkpt lat="60.2470736392" lon="30.4630780779"><ele>79.00</ele><time>2026-08-29T12:38:15Z</time></trkpt><trkpt lat="60.2470604796" lon="30.4631680995"><ele>78.55</ele><time>2026-08-29T12:38:41Z</time></trkpt><trkpt lat="60.2470609825" lon="30.4631789122"><ele>78.50</ele><time>2026-08-29T12:39:07Z</time></trkpt><trkpt lat="60.2470660117" lon="30.4631553590"><ele>78.70</ele><time>2026-08-29T12:39:40Z</time></trkpt><trkpt lat="60.2470484097" lon="30.4631691054"><ele>78.71</ele><time>2026-08-29T12:40:00Z</time></trkpt><trkpt lat="60.2470703702" lon="30.4631062411"><ele>79.64</ele><time>2026-08-29T12:40:13Z</time></trkpt><trkpt lat="60.2470666822" lon="30.4631518386"><ele>78.77</ele><time>2026-08-29T12:40:33Z</time></trkpt><trkpt lat="60.2470821049" lon="30.4631963465"><ele>78.73</ele><time>2026-08-29T12:40:59Z</time></trkpt><trkpt lat="60.2470709570" lon="30.4631694406"><ele>78.95</ele><time>2026-08-29T12:41:19Z</time></trkpt><trkpt lat="60.2470536064" lon="30.4631611425"><ele>79.44</ele><time>2026-08-29T12:41:22Z</time></trkpt><trkpt lat="60.2470368426" lon="30.4631965980"><ele>79.28</ele><time>2026-08-29T12:41:46Z</time></trkpt><trkpt lat="60.2470592223" lon="30.4631861206"><ele>79.75</ele><time>2026-08-29T12:42:10Z</time></trkpt><trkpt lat="60.2470878884" lon="30.4631338175"><ele>80.28</ele><time>2026-08-29T12:42:32Z</time></trkpt><trkpt lat="60.2470594738" lon="30.4631649982"><ele>80.10</ele><time>2026-08-29T12:42:59Z</time></trkpt><trkpt lat="60.2470678557" lon="30.4631458875"><ele>79.87</ele><time>2026-08-29T12:43:16Z</time></trkpt><trkpt lat="60.2470739745" lon="30.4631483182"><ele>79.81</ele><time>2026-08-29T12:43:41Z</time></trkpt><trkpt lat="60.2470620722" lon="30.4631380923"><ele>79.71</ele><time>2026-08-29T12:44:05Z</time></trkpt><trkpt lat="60.2470772434" lon="30.4631393496"><ele>79.71</ele><time>2026-08-29T12:44:29Z</time></trkpt><trkpt lat="60.2470836136" lon="30.4631351586"><ele>80.08</ele><time>2026-08-29T12:44:59Z</time></trkpt><trkpt lat="60.2470852062" lon="30.4631016310"><ele>80.05</ele><time>2026-08-29T12:45:26Z</time></trkpt><trkpt lat="60.2471024729" lon="30.4631168861"><ele>80.02</ele><time>2026-08-29T12:45:54Z</time></trkpt><trkpt lat="60.2470551990" lon="30.4630940873"><ele>80.63</ele><time>2026-08-29T12:46:27Z</time></trkpt><trkpt lat="60.2470817696" lon="30.4631033912"><ele>79.58</ele><time>2026-08-29T12:46:50Z</time></trkpt><trkpt lat="60.2470739745" lon="30.4631367512"><ele>80.67</ele><time>2026-08-29T12:47:09Z</time></trkpt><trkpt lat="60.2470696159" lon="30.4631413613"><ele>80.82</ele><time>2026-08-29T12:47:31Z</time></trkpt><trkpt lat="60.2470670175" lon="30.4631495755"><ele>80.05</ele><time>2026-08-29T12:47:53Z</time></trkpt><trkpt lat="60.2470720466" lon="30.4630893096"><ele>80.33</ele><time>2026-08-29T12:48:11Z</time></trkpt><trkpt lat="60.2470304724" lon="30.4630981106"><ele>79.76</ele><time>2026-08-29T12:48:19Z</time></trkpt><trkpt lat="60.2468834538" lon="30.4633877054"><ele>80.63</ele><time>2026-08-29T12:48:38Z</time></trkpt><trkpt lat="60.2468157280" lon="30.4635156132"><ele>80.22</ele><time>2026-08-29T12:48:44Z</time></trkpt><trkpt lat="60.2468060050" lon="30.4635288566"><ele>79.52</ele><time>2026-08-29T12:48:46Z</time></trkpt><trkpt lat="60.2466786001" lon="30.4637006857"><ele>80.21</ele><time>2026-08-29T12:48:56Z</time></trkpt><trkpt lat="60.2466339245" lon="30.4637779668"><ele>80.61</ele><time>2026-08-29T12:49:01Z</time></trkpt><trkpt lat="60.2466252912" lon="30.4637936410"><ele>80.24</ele><time>2026-08-29T12:49:03Z</time></trkpt><trkpt lat="60.2464248799" lon="30.4640777037"><ele>80.02</ele><time>2026-08-29T12:49:18Z</time></trkpt><trkpt lat="60.2463163342" lon="30.4642056115"><ele>80.08</ele><time>2026-08-29T12:49:25Z</time></trkpt><trkpt lat="60.2462337725" lon="30.4642417375"><ele>80.05</ele><time>2026-08-29T12:49:28Z</time></trkpt><trkpt lat="60.2462009992" lon="30.4642552324"><ele>80.13</ele><time>2026-08-29T12:49:31Z</time></trkpt><trkpt lat="60.2460824791" lon="30.4643493611"><ele>79.94</ele><time>2026-08-29T12:49:42Z</time></trkpt><trkpt lat="60.2460824791" lon="30.4643493611"><ele>80.19</ele><time>2026-08-29T12:49:43Z</time></trkpt><trkpt lat="60.2459746879" lon="30.4645322543"><ele>79.96</ele><time>2026-08-29T12:49:51Z</time></trkpt><trkpt lat="60.2459088061" lon="30.4646920133"><ele>79.66</ele><time>2026-08-29T12:49:56Z</time></trkpt><trkpt lat="60.2458536532" lon="30.4649785068"><ele>79.97</ele><time>2026-08-29T12:50:05Z</time></trkpt><trkpt lat="60.2458285913" lon="30.4652821831"><ele>80.48</ele><time>2026-08-29T12:50:16Z</time></trkpt><trkpt lat="60.2457907889" lon="30.4654360749"><ele>79.82</ele><time>2026-08-29T12:50:21Z</time></trkpt><trkpt lat="60.2458717581" lon="30.4656011146"><ele>79.97</ele><time>2026-08-29T12:50:38Z</time></trkpt><trkpt lat="60.2459139191" lon="30.4656648170"><ele>79.80</ele><time>2026-08-29T12:50:43Z</time></trkpt><trkpt lat="60.2460761927" lon="30.4659555852"><ele>79.32</ele><time>2026-08-29T12:50:59Z</time></trkpt><trkpt lat="60.2461841516" lon="30.4661368858"><ele>79.41</ele><time>2026-08-29T12:51:09Z</time></trkpt><trkpt lat="60.2463007439" lon="30.4662042763"><ele>79.85</ele><time>2026-08-29T12:51:18Z</time></trkpt><trkpt lat="60.2463190164" lon="30.4664384667"><ele>79.56</ele><time>2026-08-29T12:51:30Z</time></trkpt><trkpt lat="60.2463284042" lon="30.4664990678"><ele>79.06</ele><time>2026-08-29T12:51:33Z</time></trkpt><trkpt lat="60.2464014944" lon="30.4667757545"><ele>79.50</ele><time>2026-08-29T12:51:44Z</time></trkpt><trkpt lat="60.2464397158" lon="30.4669499304"><ele>80.02</ele><time>2026-08-29T12:51:49Z</time></trkpt><trkpt lat="60.2465005685" lon="30.4670967814"><ele>79.10</ele><time>2026-08-29T12:51:53Z</time></trkpt><trkpt lat="60.2466780972" lon="30.4675542656"><ele>79.31</ele><time>2026-08-29T12:52:10Z</time></trkpt><trkpt lat="60.2467882354" lon="30.4678227380"><ele>79.02</ele><time>2026-08-29T12:52:21Z</time></trkpt><trkpt lat="60.2469204180" lon="30.4682267457"><ele>78.09</ele><time>2026-08-29T12:52:37Z</time></trkpt><trkpt lat="60.2468989603" lon="30.4683847446"><ele>78.11</ele><time>2026-08-29T12:52:43Z</time></trkpt><trkpt lat="60.2468773350" lon="30.4685419053"><ele>78.14</ele><time>2026-08-29T12:52:49Z</time></trkpt><trkpt lat="60.2468391135" lon="30.4687185958"><ele>77.69</ele><time>2026-08-29T12:52:55Z</time></trkpt><trkpt lat="60.2468117047" lon="30.4689759202"><ele>76.96</ele><time>2026-08-29T12:53:06Z</time></trkpt><trkpt lat="60.2468120400" lon="30.4690056760"><ele>77.34</ele><time>2026-08-29T12:53:07Z</time></trkpt><trkpt lat="60.2467759140" lon="30.4696693551"><ele>78.11</ele><time>2026-08-29T12:53:27Z</time></trkpt><trkpt lat="60.2467652690" lon="30.4697759729"><ele>78.13</ele><time>2026-08-29T12:53:31Z</time></trkpt><trkpt lat="60.2467423864" lon="30.4698846862"><ele>78.71</ele><time>2026-08-29T12:53:35Z</time></trkpt><trkpt lat="60.2467676159" lon="30.4700401705"><ele>77.74</ele><time>2026-08-29T12:53:43Z</time></trkpt><trkpt lat="60.2467660233" lon="30.4701528233"><ele>77.98</ele><time>2026-08-29T12:53:47Z</time></trkpt><trkpt lat="60.2467780933" lon="30.4702257458"><ele>77.87</ele><time>2026-08-29T12:53:50Z</time></trkpt><trkpt lat="60.2467853017" lon="30.4703266639"><ele>78.99</ele><time>2026-08-29T12:53:54Z</time></trkpt><trkpt lat="60.2467938513" lon="30.4706209525"><ele>79.62</ele><time>2026-08-29T12:54:05Z</time></trkpt><trkpt lat="60.2468158118" lon="30.4707643669"><ele>77.55</ele><time>2026-08-29T12:54:07Z</time></trkpt><trkpt lat="60.2468464058" lon="30.4709488526"><ele>79.29</ele><time>2026-08-29T12:54:12Z</time></trkpt><trkpt lat="60.2468538657" lon="30.4710717313"><ele>79.41</ele><time>2026-08-29T12:54:16Z</time></trkpt><trkpt lat="60.2468621638" lon="30.4712167382"><ele>79.06</ele><time>2026-08-29T12:54:22Z</time></trkpt><trkpt lat="60.2468711324" lon="30.4716893099"><ele>77.67</ele><time>2026-08-29T12:54:35Z</time></trkpt><trkpt lat="60.2468737308" lon="30.4717212450"><ele>77.47</ele><time>2026-08-29T12:54:36Z</time></trkpt><trkpt lat="60.2468200028" lon="30.4722015280"><ele>76.89</ele><time>2026-08-29T12:55:16Z</time></trkpt><trkpt lat="60.2468094416" lon="30.4722448625"><ele>77.06</ele><time>2026-08-29T12:55:19Z</time></trkpt><trkpt lat="60.2468079329" lon="30.4723014403"><ele>76.48</ele><time>2026-08-29T12:55:21Z</time></trkpt><trkpt lat="60.2467641793" lon="30.4726477806"><ele>77.07</ele><time>2026-08-29T12:55:33Z</time></trkpt><trkpt lat="60.2467535343" lon="30.4727364611"><ele>77.91</ele><time>2026-08-29T12:55:37Z</time></trkpt><trkpt lat="60.2466892451" lon="30.4732627608"><ele>79.16</ele><time>2026-08-29T12:55:57Z</time></trkpt><trkpt lat="60.2466489282" lon="30.4736877233"><ele>80.36</ele><time>2026-08-29T12:56:11Z</time></trkpt><trkpt lat="60.2466257941" lon="30.4738000408"><ele>80.45</ele><time>2026-08-29T12:56:16Z</time></trkpt><trkpt lat="60.2465945296" lon="30.4739463888"><ele>81.53</ele><time>2026-08-29T12:56:22Z</time></trkpt><trkpt lat="60.2465599123" lon="30.4741656594"><ele>81.08</ele><time>2026-08-29T12:56:33Z</time></trkpt><trkpt lat="60.2465432324" lon="30.4742545076"><ele>80.72</ele><time>2026-08-29T12:56:36Z</time></trkpt><trkpt lat="60.2464387100" lon="30.4750617687"><ele>81.50</ele><time>2026-08-29T12:57:01Z</time></trkpt><trkpt lat="60.2463501971" lon="30.4753661994"><ele>83.71</ele><time>2026-08-29T12:57:12Z</time></trkpt><trkpt lat="60.2463404741" lon="30.4754263815"><ele>84.23</ele><time>2026-08-29T12:57:16Z</time></trkpt><trkpt lat="60.2463264763" lon="30.4755468294"><ele>84.57</ele><time>2026-08-29T12:57:20Z</time></trkpt><trkpt lat="60.2463214472" lon="30.4755867273"><ele>85.07</ele><time>2026-08-29T12:57:22Z</time></trkpt><trkpt lat="60.2462530509" lon="30.4758277908"><ele>86.93</ele><time>2026-08-29T12:57:32Z</time></trkpt><trkpt lat="60.2461326867" lon="30.4761304613"><ele>87.96</ele><time>2026-08-29T12:57:44Z</time></trkpt><trkpt lat="60.2460388094" lon="30.4764101654"><ele>89.23</ele><time>2026-08-29T12:57:57Z</time></trkpt><trkpt lat="60.2459729277" lon="30.4765431024"><ele>87.87</ele><time>2026-08-29T12:58:04Z</time></trkpt><trkpt lat="60.2459020168" lon="30.4767171107"><ele>87.80</ele><time>2026-08-29T12:58:11Z</time></trkpt><trkpt lat="60.2457863465" lon="30.4770939611"><ele>87.33</ele><time>2026-08-29T12:58:26Z</time></trkpt><trkpt lat="60.2457500529" lon="30.4771574121"><ele>87.24</ele><time>2026-08-29T12:58:29Z</time></trkpt><trkpt lat="60.2456654795" lon="30.4772566538"><ele>87.85</ele><time>2026-08-29T12:58:35Z</time></trkpt><trkpt lat="60.2455159463" lon="30.4776146449"><ele>87.46</ele><time>2026-08-29T12:58:52Z</time></trkpt><trkpt lat="60.2455070615" lon="30.4779753182"><ele>86.27</ele><time>2026-08-29T12:59:07Z</time></trkpt><trkpt lat="60.2454984281" lon="30.4782331455"><ele>82.24</ele><time>2026-08-29T12:59:17Z</time></trkpt><trkpt lat="60.2454793174" lon="30.4785131849"><ele>78.02</ele><time>2026-08-29T12:59:29Z</time></trkpt><trkpt lat="60.2454798203" lon="30.4785238300"><ele>78.10</ele><time>2026-08-29T12:59:30Z</time></trkpt><trkpt lat="60.2454765514" lon="30.4786278494"><ele>75.40</ele><time>2026-08-29T12:59:37Z</time></trkpt><trkpt lat="60.2454600390" lon="30.4786735307"><ele>75.01</ele><time>2026-08-29T12:59:39Z</time></trkpt><trkpt lat="60.2454514056" lon="30.4787140153"><ele>74.31</ele><time>2026-08-29T12:59:41Z</time></trkpt><trkpt lat="60.2453674190" lon="30.4789459426"><ele>71.23</ele><time>2026-08-29T12:59:51Z</time></trkpt><trkpt lat="60.2452275250" lon="30.4800231010"><ele>68.51</ele><time>2026-08-29T13:00:28Z</time></trkpt><trkpt lat="60.2452297881" lon="30.4800648428"><ele>68.51</ele><time>2026-08-29T13:00:30Z</time></trkpt><trkpt lat="60.2452395111" lon="30.4801411182"><ele>68.44</ele><time>2026-08-29T13:00:35Z</time></trkpt><trkpt lat="60.2453106735" lon="30.4806260113"><ele>67.91</ele><time>2026-08-29T13:00:50Z</time></trkpt><trkpt lat="60.2453307062" lon="30.4807449505"><ele>68.22</ele><time>2026-08-29T13:00:55Z</time></trkpt><trkpt lat="60.2453186363" lon="30.4814139940"><ele>67.65</ele><time>2026-08-29T13:01:18Z</time></trkpt><trkpt lat="60.2453333884" lon="30.4814765230"><ele>66.97</ele><time>2026-08-29T13:01:21Z</time></trkpt><trkpt lat="60.2452734578" lon="30.4821218457"><ele>67.48</ele><time>2026-08-29T13:01:39Z</time></trkpt><trkpt lat="60.2452685125" lon="30.4822194949"><ele>68.38</ele><time>2026-08-29T13:01:45Z</time></trkpt><trkpt lat="60.2452975139" lon="30.4828231595"><ele>67.99</ele><time>2026-08-29T13:02:12Z</time></trkpt><trkpt lat="60.2452888805" lon="30.4829355609"><ele>67.86</ele><time>2026-08-29T13:02:19Z</time></trkpt><trkpt lat="60.2452616394" lon="30.4834570829"><ele>68.48</ele><time>2026-08-29T13:02:37Z</time></trkpt><trkpt lat="60.2452768106" lon="30.4839180876"><ele>67.70</ele><time>2026-08-29T13:02:52Z</time></trkpt><trkpt lat="60.2452064864" lon="30.4843994603"><ele>68.41</ele><time>2026-08-29T13:03:06Z</time></trkpt><trkpt lat="60.2451809216" lon="30.4847700242"><ele>66.48</ele><time>2026-08-29T13:03:22Z</time></trkpt><trkpt lat="60.2451939136" lon="30.4848981835"><ele>65.78</ele><time>2026-08-29T13:03:31Z</time></trkpt><trkpt lat="60.2452257648" lon="30.4852527380"><ele>67.81</ele><time>2026-08-29T13:03:50Z</time></trkpt><trkpt lat="60.2452633996" lon="30.4853047896"><ele>67.91</ele><time>2026-08-29T13:04:05Z</time></trkpt><trkpt lat="60.2452877071" lon="30.4853048734"><ele>65.82</ele><time>2026-08-29T13:04:38Z</time></trkpt><trkpt lat="60.2452627290" lon="30.4853065498"><ele>66.22</ele><time>2026-08-29T13:04:47Z</time></trkpt><trkpt lat="60.2452720329" lon="30.4853246547"><ele>64.94</ele><time>2026-08-29T13:04:54Z</time></trkpt><trkpt lat="60.2453104220" lon="30.4853741918"><ele>61.17</ele><time>2026-08-29T13:05:02Z</time></trkpt><trkpt lat="60.2453123499" lon="30.4853781313"><ele>66.14</ele><time>2026-08-29T13:05:03Z</time></trkpt><trkpt lat="60.2453323826" lon="30.4853898659"><ele>62.84</ele><time>2026-08-29T13:05:10Z</time></trkpt><trkpt lat="60.2453521639" lon="30.4853943922"><ele>63.29</ele><time>2026-08-29T13:05:15Z</time></trkpt><trkpt lat="60.2453034651" lon="30.4853519797"><ele>62.41</ele><time>2026-08-29T13:05:38Z</time></trkpt><trkpt lat="60.2453125175" lon="30.4853628762"><ele>62.27</ele><time>2026-08-29T13:05:45Z</time></trkpt><trkpt lat="60.2453188039" lon="30.4853832442"><ele>58.80</ele><time>2026-08-29T13:05:48Z</time></trkpt><trkpt lat="60.2452680096" lon="30.4853858426"><ele>57.16</ele><time>2026-08-29T13:05:58Z</time></trkpt><trkpt lat="60.2452576160" lon="30.4853934702"><ele>61.14</ele><time>2026-08-29T13:05:59Z</time></trkpt><trkpt lat="60.2452470548" lon="30.4853908718"><ele>61.14</ele><time>2026-08-29T13:06:00Z</time></trkpt><trkpt lat="60.2452392597" lon="30.4853930511"><ele>56.17</ele><time>2026-08-29T13:06:01Z</time></trkpt><trkpt lat="60.2452367451" lon="30.4853981640"><ele>58.38</ele><time>2026-08-29T13:06:02Z</time></trkpt><trkpt lat="60.2452312130" lon="30.4854116589"><ele>59.73</ele><time>2026-08-29T13:06:04Z</time></trkpt><trkpt lat="60.2452353202" lon="30.4854391515"><ele>54.91</ele><time>2026-08-29T13:06:08Z</time></trkpt><trkpt lat="60.2452328056" lon="30.4854468629"><ele>61.88</ele><time>2026-08-29T13:06:09Z</time></trkpt><trkpt lat="60.2452337276" lon="30.4854509700"><ele>60.36</ele><time>2026-08-29T13:06:10Z</time></trkpt><trkpt lat="60.2452413552" lon="30.4854565021"><ele>58.24</ele><time>2026-08-29T13:06:12Z</time></trkpt><trkpt lat="60.2452748828" lon="30.4854430910"><ele>57.73</ele><time>2026-08-29T13:06:31Z</time></trkpt><trkpt lat="60.2452666685" lon="30.4854497965"><ele>52.10</ele><time>2026-08-29T13:06:33Z</time></trkpt><trkpt lat="60.2452640701" lon="30.4854601063"><ele>62.29</ele><time>2026-08-29T13:06:34Z</time></trkpt><trkpt lat="60.2452592924" lon="30.4854686558"><ele>58.06</ele><time>2026-08-29T13:06:35Z</time></trkpt><trkpt lat="60.2452562749" lon="30.4854912031"><ele>54.27</ele><time>2026-08-29T13:06:42Z</time></trkpt><trkpt lat="60.2452597115" lon="30.4854881857"><ele>54.38</ele><time>2026-08-29T13:06:43Z</time></trkpt><trkpt lat="60.2452597953" lon="30.4854716733"><ele>57.47</ele><time>2026-08-29T13:06:46Z</time></trkpt><trkpt lat="60.2452109288" lon="30.4855049495"><ele>55.28</ele><time>2026-08-29T13:07:00Z</time></trkpt><trkpt lat="60.2452069893" lon="30.4855131637"><ele>59.12</ele><time>2026-08-29T13:07:01Z</time></trkpt><trkpt lat="60.2452017926" lon="30.4855080508"><ele>56.43</ele><time>2026-08-29T13:07:02Z</time></trkpt><trkpt lat="60.2452071570" lon="30.4855116550"><ele>60.24</ele><time>2026-08-29T13:07:04Z</time></trkpt><trkpt lat="60.2452184726" lon="30.4855007585"><ele>53.45</ele><time>2026-08-29T13:07:05Z</time></trkpt><trkpt lat="60.2452342305" lon="30.4854918737"><ele>57.38</ele><time>2026-08-29T13:07:06Z</time></trkpt><trkpt lat="60.2452452108" lon="30.4854777921"><ele>52.66</ele><time>2026-08-29T13:07:07Z</time></trkpt><trkpt lat="60.2452520840" lon="30.4854694940"><ele>57.31</ele><time>2026-08-29T13:07:08Z</time></trkpt><trkpt lat="60.2452823427" lon="30.4854547419"><ele>48.86</ele><time>2026-08-29T13:07:11Z</time></trkpt><trkpt lat="60.2452932391" lon="30.4854414985"><ele>58.35</ele><time>2026-08-29T13:07:12Z</time></trkpt><trkpt lat="60.2453502361" lon="30.4853245709"><ele>57.96</ele><time>2026-08-29T13:07:21Z</time></trkpt><trkpt lat="60.2453208994" lon="30.4852836672"><ele>56.24</ele><time>2026-08-29T13:07:45Z</time></trkpt><trkpt lat="60.2452918980" lon="30.4852726869"><ele>52.37</ele><time>2026-08-29T13:07:59Z</time></trkpt><trkpt lat="60.2452733740" lon="30.4852788057"><ele>55.45</ele><time>2026-08-29T13:08:00Z</time></trkpt><trkpt lat="60.2452431154" lon="30.4852303583"><ele>51.33</ele><time>2026-08-29T13:08:13Z</time></trkpt><trkpt lat="60.2452608850" lon="30.4852681607"><ele>46.30</ele><time>2026-08-29T13:08:30Z</time></trkpt><trkpt lat="60.2452660818" lon="30.4852702562"><ele>55.74</ele><time>2026-08-29T13:08:31Z</time></trkpt><trkpt lat="60.2453241684" lon="30.4853394069"><ele>52.14</ele><time>2026-08-29T13:08:36Z</time></trkpt><trkpt lat="60.2453542594" lon="30.4853605293"><ele>57.15</ele><time>2026-08-29T13:08:38Z</time></trkpt><trkpt lat="60.2453739569" lon="30.4853548296"><ele>57.04</ele><time>2026-08-29T13:08:41Z</time></trkpt><trkpt lat="60.2453822549" lon="30.4853606131"><ele>55.50</ele><time>2026-08-29T13:08:42Z</time></trkpt><trkpt lat="60.2453845181" lon="30.4853619542"><ele>37.38</ele><time>2026-08-29T13:08:43Z</time></trkpt><trkpt lat="60.2454003599" lon="30.4853757843"><ele>61.24</ele><time>2026-08-29T13:08:44Z</time></trkpt><trkpt lat="60.2454003599" lon="30.4853757843"><ele>52.23</ele><time>2026-08-29T13:08:45Z</time></trkpt><trkpt lat="60.2454035450" lon="30.4853884410"><ele>55.51</ele><time>2026-08-29T13:08:47Z</time></trkpt><trkpt lat="60.2454017010" lon="30.4853918776"><ele>52.16</ele><time>2026-08-29T13:08:49Z</time></trkpt><trkpt lat="60.2454057243" lon="30.4853837471"><ele>56.62</ele><time>2026-08-29T13:08:54Z</time></trkpt><trkpt lat="60.2454217337" lon="30.4854080547"><ele>47.94</ele><time>2026-08-29T13:09:00Z</time></trkpt><trkpt lat="60.2454238292" lon="30.4854094796"><ele>52.79</ele><time>2026-08-29T13:09:01Z</time></trkpt><trkpt lat="60.2454383299" lon="30.4854202922"><ele>53.90</ele><time>2026-08-29T13:09:06Z</time></trkpt><trkpt lat="60.2454411797" lon="30.4854269139"><ele>53.97</ele><time>2026-08-29T13:09:16Z</time></trkpt><trkpt lat="60.2454438619" lon="30.4854259919"><ele>48.70</ele><time>2026-08-29T13:09:20Z</time></trkpt><trkpt lat="60.2454438619" lon="30.4854259919"><ele>55.84</ele><time>2026-08-29T13:09:21Z</time></trkpt><trkpt lat="60.2454438619" lon="30.4854269978"><ele>50.15</ele><time>2026-08-29T13:09:22Z</time></trkpt><trkpt lat="60.2454418503" lon="30.4854277521"><ele>53.57</ele><time>2026-08-29T13:09:23Z</time></trkpt><trkpt lat="60.2454926446" lon="30.4854476172"><ele>52.31</ele><time>2026-08-29T13:09:39Z</time></trkpt><trkpt lat="60.2454891242" lon="30.4854629561"><ele>55.37</ele><time>2026-08-29T13:09:41Z</time></trkpt><trkpt lat="60.2454711869" lon="30.4853987508"><ele>51.99</ele><time>2026-08-29T13:09:43Z</time></trkpt><trkpt lat="60.2454488073" lon="30.4853775445"><ele>52.28</ele><time>2026-08-29T13:09:44Z</time></trkpt><trkpt lat="60.2453786507" lon="30.4853544105"><ele>48.74</ele><time>2026-08-29T13:09:51Z</time></trkpt><trkpt lat="60.2453240845" lon="30.4852969106"><ele>44.19</ele><time>2026-08-29T13:10:20Z</time></trkpt><trkpt lat="60.2453154512" lon="30.4853023589"><ele>51.16</ele><time>2026-08-29T13:10:21Z</time></trkpt><trkpt lat="60.2453095838" lon="30.4853121657"><ele>50.57</ele><time>2026-08-29T13:10:22Z</time></trkpt><trkpt lat="60.2453074884" lon="30.4853144288"><ele>49.50</ele><time>2026-08-29T13:10:24Z</time></trkpt><trkpt lat="60.2453363221" lon="30.4852441046"><ele>47.32</ele><time>2026-08-29T13:10:48Z</time></trkpt><trkpt lat="60.2453421894" lon="30.4851285182"><ele>47.48</ele><time>2026-08-29T13:11:01Z</time></trkpt><trkpt lat="60.2453482244" lon="30.4850397538"><ele>46.42</ele><time>2026-08-29T13:11:15Z</time></trkpt><trkpt lat="60.2453131881" lon="30.4848495685"><ele>46.77</ele><time>2026-08-29T13:11:34Z</time></trkpt><trkpt lat="60.2453175467" lon="30.4847203195"><ele>45.89</ele><time>2026-08-29T13:11:47Z</time></trkpt><trkpt lat="60.2453595400" lon="30.4845531844"><ele>45.12</ele><time>2026-08-29T13:12:10Z</time></trkpt><trkpt lat="60.2453595400" lon="30.4845531844"><ele>44.88</ele><time>2026-08-29T13:12:11Z</time></trkpt><trkpt lat="60.2453832608" lon="30.4844366759"><ele>45.08</ele><time>2026-08-29T13:12:25Z</time></trkpt><trkpt lat="60.2453758847" lon="30.4842064250"><ele>44.11</ele><time>2026-08-29T13:12:52Z</time></trkpt><trkpt lat="60.2454663254" lon="30.4840713087"><ele>43.86</ele><time>2026-08-29T13:13:30Z</time></trkpt><trkpt lat="60.2454616316" lon="30.4840656091"><ele>41.84</ele><time>2026-08-29T13:13:32Z</time></trkpt><trkpt lat="60.2453956660" lon="30.4836166743"><ele>40.35</ele><time>2026-08-29T13:14:23Z</time></trkpt><trkpt lat="60.2454146091" lon="30.4833272472"><ele>41.66</ele><time>2026-08-29T13:14:50Z</time></trkpt><trkpt lat="60.2454250865" lon="30.4832238145"><ele>40.70</ele><time>2026-08-29T13:14:59Z</time></trkpt><trkpt lat="60.2455243282" lon="30.4828199744"><ele>39.48</ele><time>2026-08-29T13:15:59Z</time></trkpt><trkpt lat="60.2455089055" lon="30.4827779811"><ele>40.13</ele><time>2026-08-29T13:16:21Z</time></trkpt><trkpt lat="60.2454885375" lon="30.4826879594"><ele>34.97</ele><time>2026-08-29T13:16:36Z</time></trkpt><trkpt lat="60.2454907168" lon="30.4826825950"><ele>43.50</ele><time>2026-08-29T13:16:37Z</time></trkpt><trkpt lat="60.2454939019" lon="30.4826792423"><ele>39.85</ele><time>2026-08-29T13:16:38Z</time></trkpt><trkpt lat="60.2454858553" lon="30.4826632328"><ele>39.44</ele><time>2026-08-29T13:16:43Z</time></trkpt><trkpt lat="60.2454068977" lon="30.4825240094"><ele>39.11</ele><time>2026-08-29T13:16:57Z</time></trkpt><trkpt lat="60.2454230748" lon="30.4824048188"><ele>37.83</ele><time>2026-08-29T13:17:15Z</time></trkpt><trkpt lat="60.2454442810" lon="30.4823980294"><ele>37.97</ele><time>2026-08-29T13:17:19Z</time></trkpt><trkpt lat="60.2454700135" lon="30.4823093489"><ele>38.89</ele><time>2026-08-29T13:17:46Z</time></trkpt><trkpt lat="60.2455099113" lon="30.4823114444"><ele>37.57</ele><time>2026-08-29T13:18:29Z</time></trkpt><trkpt lat="60.2454928122" lon="30.4822914954"><ele>31.92</ele><time>2026-08-29T13:18:39Z</time></trkpt><trkpt lat="60.2454925608" lon="30.4822966084"><ele>34.95</ele><time>2026-08-29T13:18:40Z</time></trkpt><trkpt lat="60.2454917226" lon="30.4823015537"><ele>38.12</ele><time>2026-08-29T13:18:41Z</time></trkpt><trkpt lat="60.2454909682" lon="30.4823062476"><ele>39.90</ele><time>2026-08-29T13:18:43Z</time></trkpt><trkpt lat="60.2455099113" lon="30.4822945129"><ele>37.90</ele><time>2026-08-29T13:18:48Z</time></trkpt><trkpt lat="60.2455099951" lon="30.4823123664"><ele>38.05</ele><time>2026-08-29T13:18:57Z</time></trkpt><trkpt lat="60.2455669083" lon="30.4824387655"><ele>39.34</ele><time>2026-08-29T13:19:41Z</time></trkpt><trkpt lat="60.2455611248" lon="30.4823672678"><ele>36.13</ele><time>2026-08-29T13:19:51Z</time></trkpt><trkpt lat="60.2455598675" lon="30.4823735543"><ele>32.20</ele><time>2026-08-29T13:19:56Z</time></trkpt><trkpt lat="60.2455571853" lon="30.4823749792"><ele>36.37</ele><time>2026-08-29T13:19:57Z</time></trkpt><trkpt lat="60.2455565147" lon="30.4823848698"><ele>37.10</ele><time>2026-08-29T13:19:59Z</time></trkpt><trkpt lat="60.2455558442" lon="30.4823961016"><ele>41.98</ele><time>2026-08-29T13:20:00Z</time></trkpt><trkpt lat="60.2455497254" lon="30.4824043158"><ele>37.50</ele><time>2026-08-29T13:20:01Z</time></trkpt><trkpt lat="60.2455596160" lon="30.4824867938"><ele>36.89</ele><time>2026-08-29T13:20:14Z</time></trkpt><trkpt lat="60.2455065586" lon="30.4825584590"><ele>37.68</ele><time>2026-08-29T13:20:49Z</time></trkpt><trkpt lat="60.2455680817" lon="30.4824465606"><ele>33.80</ele><time>2026-08-29T13:21:33Z</time></trkpt><trkpt lat="60.2455715183" lon="30.4824354965"><ele>42.48</ele><time>2026-08-29T13:21:35Z</time></trkpt><trkpt lat="60.2455736138" lon="30.4824328143"><ele>37.56</ele><time>2026-08-29T13:21:36Z</time></trkpt><trkpt lat="60.2456555888" lon="30.4824260250"><ele>39.65</ele><time>2026-08-29T13:21:57Z</time></trkpt><trkpt lat="60.2457695827" lon="30.4824867100"><ele>38.25</ele><time>2026-08-29T13:22:18Z</time></trkpt><trkpt lat="60.2458889410" lon="30.4826720338"><ele>39.39</ele><time>2026-08-29T13:22:45Z</time></trkpt><trkpt lat="60.2459359635" lon="30.4827256780"><ele>40.13</ele><time>2026-08-29T13:23:03Z</time></trkpt><trkpt lat="60.2459220495" lon="30.4827307072"><ele>38.95</ele><time>2026-08-29T13:23:05Z</time></trkpt><trkpt lat="60.2459504642" lon="30.4826697707"><ele>39.65</ele><time>2026-08-29T13:23:58Z</time></trkpt><trkpt lat="60.2458190359" lon="30.4827218223"><ele>35.40</ele><time>2026-08-29T13:24:28Z</time></trkpt><trkpt lat="60.2458161861" lon="30.4827303719"><ele>44.31</ele><time>2026-08-29T13:24:29Z</time></trkpt><trkpt lat="60.2458187006" lon="30.4827280249"><ele>39.46</ele><time>2026-08-29T13:24:30Z</time></trkpt><trkpt lat="60.2458370570" lon="30.4826910608"><ele>40.27</ele><time>2026-08-29T13:24:48Z</time></trkpt><trkpt lat="60.2458435949" lon="30.4826711118"><ele>41.25</ele><time>2026-08-29T13:25:01Z</time></trkpt><trkpt lat="60.2458054572" lon="30.4824172240"><ele>40.27</ele><time>2026-08-29T13:26:01Z</time></trkpt><trkpt lat="60.2457862627" lon="30.4824078362"><ele>37.11</ele><time>2026-08-29T13:26:06Z</time></trkpt><trkpt lat="60.2457471192" lon="30.4824185651"><ele>38.66</ele><time>2026-08-29T13:26:11Z</time></trkpt><trkpt lat="60.2457033657" lon="30.4824277014"><ele>38.72</ele><time>2026-08-29T13:26:16Z</time></trkpt><trkpt lat="60.2456504758" lon="30.4824103508"><ele>38.85</ele><time>2026-08-29T13:26:22Z</time></trkpt><trkpt lat="60.2456013579" lon="30.4822495021"><ele>37.91</ele><time>2026-08-29T13:26:33Z</time></trkpt><trkpt lat="60.2456019446" lon="30.4821960256"><ele>37.69</ele><time>2026-08-29T13:26:36Z</time></trkpt><trkpt lat="60.2456029505" lon="30.4820702970"><ele>38.47</ele><time>2026-08-29T13:26:42Z</time></trkpt><trkpt lat="60.2455648966" lon="30.4818474222"><ele>37.93</ele><time>2026-08-29T13:26:52Z</time></trkpt><trkpt lat="60.2455814928" lon="30.4817128927"><ele>38.49</ele><time>2026-08-29T13:26:58Z</time></trkpt><trkpt lat="60.2455788944" lon="30.4816869088"><ele>38.76</ele><time>2026-08-29T13:26:59Z</time></trkpt><trkpt lat="60.2455833368" lon="30.4814841505"><ele>38.81</ele><time>2026-08-29T13:27:08Z</time></trkpt><trkpt lat="60.2455943171" lon="30.4813398141"><ele>38.40</ele><time>2026-08-29T13:27:16Z</time></trkpt><trkpt lat="60.2455542516" lon="30.4809980839"><ele>37.69</ele><time>2026-08-29T13:27:35Z</time></trkpt><trkpt lat="60.2455423493" lon="30.4809655622"><ele>39.01</ele><time>2026-08-29T13:27:38Z</time></trkpt><trkpt lat="60.2454756293" lon="30.4806231614"><ele>36.99</ele><time>2026-08-29T13:27:57Z</time></trkpt><trkpt lat="60.2454685885" lon="30.4804618936"><ele>39.57</ele><time>2026-08-29T13:28:05Z</time></trkpt><trkpt lat="60.2454716899" lon="30.4804402683"><ele>39.34</ele><time>2026-08-29T13:28:06Z</time></trkpt><trkpt lat="60.2454797365" lon="30.4803287052"><ele>40.85</ele><time>2026-08-29T13:28:12Z</time></trkpt><trkpt lat="60.2454861905" lon="30.4802194051"><ele>38.69</ele><time>2026-08-29T13:28:16Z</time></trkpt><trkpt lat="60.2454819996" lon="30.4801005498"><ele>39.98</ele><time>2026-08-29T13:28:20Z</time></trkpt><trkpt lat="60.2454810776" lon="30.4799594823"><ele>39.89</ele><time>2026-08-29T13:28:26Z</time></trkpt><trkpt lat="60.2454829216" lon="30.4797464982"><ele>39.58</ele><time>2026-08-29T13:28:35Z</time></trkpt><trkpt lat="60.2455058042" lon="30.4795745015"><ele>39.61</ele><time>2026-08-29T13:28:44Z</time></trkpt><trkpt lat="60.2455078159" lon="30.4795540497"><ele>43.67</ele><time>2026-08-29T13:28:46Z</time></trkpt><trkpt lat="60.2455129288" lon="30.4795470089"><ele>41.94</ele><time>2026-08-29T13:28:47Z</time></trkpt><trkpt lat="60.2455478813" lon="30.4794022534"><ele>46.90</ele><time>2026-08-29T13:28:56Z</time></trkpt><trkpt lat="60.2455523238" lon="30.4793816339"><ele>43.86</ele><time>2026-08-29T13:28:57Z</time></trkpt><trkpt lat="60.2455791458" lon="30.4792498704"><ele>46.23</ele><time>2026-08-29T13:29:04Z</time></trkpt><trkpt lat="60.2455842588" lon="30.4791569989"><ele>48.05</ele><time>2026-08-29T13:29:11Z</time></trkpt><trkpt lat="60.2455900423" lon="30.4791063722"><ele>46.87</ele><time>2026-08-29T13:29:13Z</time></trkpt><trkpt lat="60.2455999330" lon="30.4790003411"><ele>49.07</ele><time>2026-08-29T13:29:16Z</time></trkpt><trkpt lat="60.2456021961" lon="30.4789927136"><ele>48.68</ele><time>2026-08-29T13:29:18Z</time></trkpt><trkpt lat="60.2456223127" lon="30.4788951483"><ele>50.60</ele><time>2026-08-29T13:29:23Z</time></trkpt><trkpt lat="60.2456346340" lon="30.4787783045"><ele>49.37</ele><time>2026-08-29T13:29:28Z</time></trkpt><trkpt lat="60.2456378192" lon="30.4787372332"><ele>52.84</ele><time>2026-08-29T13:29:30Z</time></trkpt><trkpt lat="60.2456591092" lon="30.4785995185"><ele>56.35</ele><time>2026-08-29T13:29:36Z</time></trkpt><trkpt lat="60.2456615400" lon="30.4785763845"><ele>52.80</ele><time>2026-08-29T13:29:37Z</time></trkpt><trkpt lat="60.2456533257" lon="30.4784548469"><ele>57.62</ele><time>2026-08-29T13:29:41Z</time></trkpt><trkpt lat="60.2456389088" lon="30.4782007076"><ele>58.44</ele><time>2026-08-29T13:29:47Z</time></trkpt><trkpt lat="60.2456412558" lon="30.4781735502"><ele>56.71</ele><time>2026-08-29T13:29:48Z</time></trkpt><trkpt lat="60.2456520684" lon="30.4779666848"><ele>57.64</ele><time>2026-08-29T13:29:59Z</time></trkpt><trkpt lat="60.2456941456" lon="30.4777350090"><ele>55.56</ele><time>2026-08-29T13:30:10Z</time></trkpt><trkpt lat="60.2457072213" lon="30.4777033255"><ele>56.51</ele><time>2026-08-29T13:30:12Z</time></trkpt><trkpt lat="60.2458598558" lon="30.4774643574"><ele>55.58</ele><time>2026-08-29T13:30:28Z</time></trkpt><trkpt lat="60.2459840756" lon="30.4772849008"><ele>56.23</ele><time>2026-08-29T13:30:40Z</time></trkpt><trkpt lat="60.2460252307" lon="30.4771916941"><ele>53.97</ele><time>2026-08-29T13:30:45Z</time></trkpt><trkpt lat="60.2460395638" lon="30.4771536402"><ele>56.99</ele><time>2026-08-29T13:30:47Z</time></trkpt><trkpt lat="60.2460879274" lon="30.4770481121"><ele>53.45</ele><time>2026-08-29T13:30:53Z</time></trkpt><trkpt lat="60.2460960578" lon="30.4770336114"><ele>57.09</ele><time>2026-08-29T13:30:54Z</time></trkpt><trkpt lat="60.2461592574" lon="30.4769016802"><ele>58.25</ele><time>2026-08-29T13:31:01Z</time></trkpt><trkpt lat="60.2461758535" lon="30.4768836591"><ele>56.86</ele><time>2026-08-29T13:31:03Z</time></trkpt><trkpt lat="60.2462111413" lon="30.4768279195"><ele>57.51</ele><time>2026-08-29T13:31:08Z</time></trkpt><trkpt lat="60.2462866623" lon="30.4766454455"><ele>57.24</ele><time>2026-08-29T13:31:18Z</time></trkpt><trkpt lat="60.2463561483" lon="30.4764828365"><ele>53.44</ele><time>2026-08-29T13:31:28Z</time></trkpt><trkpt lat="60.2464597486" lon="30.4762820899"><ele>51.57</ele><time>2026-08-29T13:31:44Z</time></trkpt><trkpt lat="60.2465133928" lon="30.4760974366"><ele>51.69</ele><time>2026-08-29T13:31:55Z</time></trkpt><trkpt lat="60.2465358563" lon="30.4759782460"><ele>51.72</ele><time>2026-08-29T13:32:00Z</time></trkpt><trkpt lat="60.2465355210" lon="30.4758212529"><ele>49.69</ele><time>2026-08-29T13:32:04Z</time></trkpt><trkpt lat="60.2465343475" lon="30.4756514356"><ele>49.23</ele><time>2026-08-29T13:32:09Z</time></trkpt><trkpt lat="60.2465626784" lon="30.4755512718"><ele>51.01</ele><time>2026-08-29T13:32:13Z</time></trkpt><trkpt lat="60.2465685457" lon="30.4754122999"><ele>49.41</ele><time>2026-08-29T13:32:17Z</time></trkpt><trkpt lat="60.2465743292" lon="30.4753415566"><ele>47.61</ele><time>2026-08-29T13:32:19Z</time></trkpt><trkpt lat="60.2466049232" lon="30.4751502816"><ele>47.41</ele><time>2026-08-29T13:32:25Z</time></trkpt><trkpt lat="60.2466116287" lon="30.4750420712"><ele>47.94</ele><time>2026-08-29T13:32:29Z</time></trkpt><trkpt lat="60.2466480061" lon="30.4746927135"><ele>48.80</ele><time>2026-08-29T13:32:42Z</time></trkpt><trkpt lat="60.2466605790" lon="30.4745582677"><ele>49.38</ele><time>2026-08-29T13:32:47Z</time></trkpt><trkpt lat="60.2467003092" lon="30.4744143505"><ele>50.20</ele><time>2026-08-29T13:32:55Z</time></trkpt><trkpt lat="60.2467072662" lon="30.4743707646"><ele>49.05</ele><time>2026-08-29T13:32:57Z</time></trkpt><trkpt lat="60.2467234433" lon="30.4739167169"><ele>50.31</ele><time>2026-08-29T13:33:11Z</time></trkpt><trkpt lat="60.2467524447" lon="30.4736244399"><ele>47.18</ele><time>2026-08-29T13:33:21Z</time></trkpt><trkpt lat="60.2467581443" lon="30.4735965282"><ele>47.00</ele><time>2026-08-29T13:33:22Z</time></trkpt><trkpt lat="60.2467672806" lon="30.4734929278"><ele>48.11</ele><time>2026-08-29T13:33:26Z</time></trkpt><trkpt lat="60.2467719745" lon="30.4734495096"><ele>47.12</ele><time>2026-08-29T13:33:28Z</time></trkpt><trkpt lat="60.2468081005" lon="30.4731976334"><ele>45.77</ele><time>2026-08-29T13:33:38Z</time></trkpt><trkpt lat="60.2468281332" lon="30.4731200170"><ele>47.29</ele><time>2026-08-29T13:33:41Z</time></trkpt><trkpt lat="60.2468355093" lon="30.4730980564"><ele>46.37</ele><time>2026-08-29T13:33:42Z</time></trkpt><trkpt lat="60.2468847111" lon="30.4727007542"><ele>45.27</ele><time>2026-08-29T13:33:57Z</time></trkpt><trkpt lat="60.2469039895" lon="30.4725075513"><ele>45.85</ele><time>2026-08-29T13:34:04Z</time></trkpt><trkpt lat="60.2469291352" lon="30.4722980876"><ele>45.18</ele><time>2026-08-29T13:34:13Z</time></trkpt><trkpt lat="60.2469397802" lon="30.4720260110"><ele>44.02</ele><time>2026-08-29T13:34:26Z</time></trkpt><trkpt lat="60.2469414566" lon="30.4720034637"><ele>47.64</ele><time>2026-08-29T13:34:27Z</time></trkpt><trkpt lat="60.2469499223" lon="30.4716430418"><ele>47.41</ele><time>2026-08-29T13:34:40Z</time></trkpt><trkpt lat="60.2469763253" lon="30.4713145550"><ele>48.60</ele><time>2026-08-29T13:34:53Z</time></trkpt><trkpt lat="60.2469761577" lon="30.4712474998"><ele>47.11</ele><time>2026-08-29T13:34:55Z</time></trkpt><trkpt lat="60.2469607349" lon="30.4710195120"><ele>47.50</ele><time>2026-08-29T13:35:02Z</time></trkpt><trkpt lat="60.2469666023" lon="30.4708786123"><ele>45.50</ele><time>2026-08-29T13:35:07Z</time></trkpt><trkpt lat="60.2469687816" lon="30.4708249681"><ele>47.67</ele><time>2026-08-29T13:35:09Z</time></trkpt><trkpt lat="60.2469277103" lon="30.4704651330"><ele>45.83</ele><time>2026-08-29T13:35:23Z</time></trkpt><trkpt lat="60.2469391096" lon="30.4704271629"><ele>47.71</ele><time>2026-08-29T13:35:25Z</time></trkpt><trkpt lat="60.2469519340" lon="30.4703882709"><ele>47.10</ele><time>2026-08-29T13:35:27Z</time></trkpt><trkpt lat="60.2469562087" lon="30.4703632090"><ele>47.11</ele><time>2026-08-29T13:35:28Z</time></trkpt><trkpt lat="60.2469154727" lon="30.4698785674"><ele>47.53</ele><time>2026-08-29T13:35:44Z</time></trkpt><trkpt lat="60.2468905784" lon="30.4697435349"><ele>46.35</ele><time>2026-08-29T13:35:49Z</time></trkpt><trkpt lat="60.2468839567" lon="30.4696672596"><ele>48.36</ele><time>2026-08-29T13:35:52Z</time></trkpt><trkpt lat="60.2468808554" lon="30.4696404375"><ele>46.97</ele><time>2026-08-29T13:35:53Z</time></trkpt><trkpt lat="60.2468672767" lon="30.4694949277"><ele>47.92</ele><time>2026-08-29T13:35:59Z</time></trkpt><trkpt lat="60.2468645107" lon="30.4694465641"><ele>46.32</ele><time>2026-08-29T13:36:01Z</time></trkpt><trkpt lat="60.2468490042" lon="30.4692912474"><ele>47.27</ele><time>2026-08-29T13:36:07Z</time></trkpt><trkpt lat="60.2468277980" lon="30.4690793529"><ele>47.26</ele><time>2026-08-29T13:36:15Z</time></trkpt><trkpt lat="60.2468282171" lon="30.4690259602"><ele>46.16</ele><time>2026-08-29T13:36:17Z</time></trkpt><trkpt lat="60.2468420472" lon="30.4688978847"><ele>46.97</ele><time>2026-08-29T13:36:22Z</time></trkpt><trkpt lat="60.2469037380" lon="30.4686137382"><ele>47.72</ele><time>2026-08-29T13:36:35Z</time></trkpt><trkpt lat="60.2469631657" lon="30.4684374668"><ele>50.31</ele><time>2026-08-29T13:36:45Z</time></trkpt><trkpt lat="60.2469544485" lon="30.4682932142"><ele>47.67</ele><time>2026-08-29T13:36:51Z</time></trkpt><trkpt lat="60.2469023969" lon="30.4681450222"><ele>47.65</ele><time>2026-08-29T13:36:59Z</time></trkpt><trkpt lat="60.2468568832" lon="30.4680451099"><ele>48.76</ele><time>2026-08-29T13:37:04Z</time></trkpt><trkpt lat="60.2467601560" lon="30.4678109195"><ele>49.53</ele><time>2026-08-29T13:37:16Z</time></trkpt><trkpt lat="60.2467008960" lon="30.4676489811"><ele>49.48</ele><time>2026-08-29T13:37:25Z</time></trkpt><trkpt lat="60.2466003131" lon="30.4673251044"><ele>49.99</ele><time>2026-08-29T13:37:42Z</time></trkpt><trkpt lat="60.2465761732" lon="30.4672588874"><ele>48.26</ele><time>2026-08-29T13:37:45Z</time></trkpt><trkpt lat="60.2464485168" lon="30.4669227730"><ele>48.69</ele><time>2026-08-29T13:38:00Z</time></trkpt><trkpt lat="60.2463891730" lon="30.4667173326"><ele>50.76</ele><time>2026-08-29T13:38:09Z</time></trkpt><trkpt lat="60.2463532146" lon="30.4665338527"><ele>50.82</ele><time>2026-08-29T13:38:17Z</time></trkpt><trkpt lat="60.2463435754" lon="30.4664094653"><ele>48.56</ele><time>2026-08-29T13:38:22Z</time></trkpt><trkpt lat="60.2463403065" lon="30.4663844872"><ele>52.25</ele><time>2026-08-29T13:38:23Z</time></trkpt><trkpt lat="60.2463335171" lon="30.4662766121"><ele>47.89</ele><time>2026-08-29T13:38:27Z</time></trkpt><trkpt lat="60.2463341877" lon="30.4662280809"><ele>52.78</ele><time>2026-08-29T13:38:29Z</time></trkpt><trkpt lat="60.2463137358" lon="30.4660780448"><ele>49.67</ele><time>2026-08-29T13:38:35Z</time></trkpt><trkpt lat="60.2463016659" lon="30.4660489596"><ele>52.40</ele><time>2026-08-29T13:38:36Z</time></trkpt><trkpt lat="60.2463655360" lon="30.4658954032"><ele>50.28</ele><time>2026-08-29T13:38:48Z</time></trkpt><trkpt lat="60.2463553101" lon="30.4659033660"><ele>53.04</ele><time>2026-08-29T13:38:50Z</time></trkpt><trkpt lat="60.2463445812" lon="30.4659114964"><ele>51.22</ele><time>2026-08-29T13:38:52Z</time></trkpt><trkpt lat="60.2463292424" lon="30.4658912122"><ele>47.55</ele><time>2026-08-29T13:38:54Z</time></trkpt><trkpt lat="60.2463224530" lon="30.4658713471"><ele>53.10</ele><time>2026-08-29T13:38:55Z</time></trkpt><trkpt lat="60.2463122271" lon="30.4658472911"><ele>52.63</ele><time>2026-08-29T13:38:56Z</time></trkpt><trkpt lat="60.2462961338" lon="30.4658097401"><ele>50.93</ele><time>2026-08-29T13:38:58Z</time></trkpt><trkpt lat="60.2462569904" lon="30.4656901304"><ele>51.53</ele><time>2026-08-29T13:39:03Z</time></trkpt><trkpt lat="60.2461895160" lon="30.4654705245"><ele>49.89</ele><time>2026-08-29T13:39:14Z</time></trkpt><trkpt lat="60.2461725846" lon="30.4654270224"><ele>52.58</ele><time>2026-08-29T13:39:16Z</time></trkpt><trkpt lat="60.2460722532" lon="30.4652022198"><ele>51.85</ele><time>2026-08-29T13:39:35Z</time></trkpt><trkpt lat="60.2460658830" lon="30.4651748948"><ele>48.46</ele><time>2026-08-29T13:39:51Z</time></trkpt><trkpt lat="60.2460746840" lon="30.4651723802"><ele>54.35</ele><time>2026-08-29T13:39:52Z</time></trkpt><trkpt lat="60.2461038530" lon="30.4651439656"><ele>52.05</ele><time>2026-08-29T13:39:55Z</time></trkpt><trkpt lat="60.2461496182" lon="30.4650787544"><ele>52.40</ele><time>2026-08-29T13:40:00Z</time></trkpt><trkpt lat="60.2463458385" lon="30.4648732301"><ele>50.31</ele><time>2026-08-29T13:40:17Z</time></trkpt><trkpt lat="60.2463675477" lon="30.4648379423"><ele>53.78</ele><time>2026-08-29T13:40:19Z</time></trkpt><trkpt lat="60.2463781927" lon="30.4648206756"><ele>52.67</ele><time>2026-08-29T13:40:20Z</time></trkpt><trkpt lat="60.2465221100" lon="30.4646295682"><ele>52.92</ele><time>2026-08-29T13:40:32Z</time></trkpt><trkpt lat="60.2465496864" lon="30.4645997286"><ele>51.81</ele><time>2026-08-29T13:40:34Z</time></trkpt><trkpt lat="60.2466492634" lon="30.4644837230"><ele>52.80</ele><time>2026-08-29T13:40:42Z</time></trkpt><trkpt lat="60.2467748243" lon="30.4643399734"><ele>53.46</ele><time>2026-08-29T13:40:52Z</time></trkpt><trkpt lat="60.2468763292" lon="30.4641914461"><ele>53.26</ele><time>2026-08-29T13:41:01Z</time></trkpt><trkpt lat="60.2469525207" lon="30.4640165996"><ele>53.71</ele><time>2026-08-29T13:41:10Z</time></trkpt><trkpt lat="60.2469751518" lon="30.4639497120"><ele>52.10</ele><time>2026-08-29T13:41:13Z</time></trkpt><trkpt lat="60.2470192406" lon="30.4638219718"><ele>52.27</ele><time>2026-08-29T13:41:19Z</time></trkpt><trkpt lat="60.2470479906" lon="30.4636084847"><ele>53.49</ele><time>2026-08-29T13:41:28Z</time></trkpt><trkpt lat="60.2470645029" lon="30.4634203948"><ele>53.94</ele><time>2026-08-29T13:41:35Z</time></trkpt><trkpt lat="60.2470808476" lon="30.4633355699"><ele>53.37</ele><time>2026-08-29T13:41:39Z</time></trkpt><trkpt lat="60.2470635809" lon="30.4630666785"><ele>53.69</ele><time>2026-08-29T13:41:56Z</time></trkpt><trkpt lat="60.2470624074" lon="30.4630522616"><ele>51.73</ele><time>2026-08-29T13:41:58Z</time></trkpt><trkpt lat="60.2470645029" lon="30.4630812630"><ele>54.74</ele><time>2026-08-29T13:42:12Z</time></trkpt><trkpt lat="60.2470630780" lon="30.4630655888"><ele>51.55</ele><time>2026-08-29T13:42:22Z</time></trkpt><trkpt lat="60.2470643353" lon="30.4630610626"><ele>54.66</ele><time>2026-08-29T13:42:23Z</time></trkpt><trkpt lat="60.2470653411" lon="30.4630570393"><ele>54.81</ele><time>2026-08-29T13:42:24Z</time></trkpt><trkpt lat="60.2470441349" lon="30.4631142877"><ele>54.29</ele><time>2026-08-29T13:42:56Z</time></trkpt><trkpt lat="60.2470274549" lon="30.4631267767"><ele>49.50</ele><time>2026-08-29T13:43:24Z</time></trkpt><trkpt lat="60.2470317297" lon="30.4631244298"><ele>60.42</ele><time>2026-08-29T13:43:25Z</time></trkpt><trkpt lat="60.2470317297" lon="30.4631244298"><ele>54.51</ele><time>2026-08-29T13:43:26Z</time></trkpt><trkpt lat="60.2470391896" lon="30.4630660918"><ele>55.00</ele><time>2026-08-29T13:44:00Z</time></trkpt><trkpt lat="60.2470470686" lon="30.4631046485"><ele>55.53</ele><time>2026-08-29T13:44:32Z</time></trkpt></trkseg><trkseg><trkpt lat="59.4808614906" lon="31.0216600075"><ele>88.67</ele><time>2026-08-30T19:53:55Z</time></trkpt><trkpt lat="59.4808072597" lon="31.0216828063"><ele>85.40</ele><time>2026-08-30T19:54:12Z</time></trkpt><trkpt lat="59.4808171503" lon="31.0216851532"><ele>82.27</ele><time>2026-08-30T19:54:14Z</time></trkpt><trkpt lat="59.4808252808" lon="31.0216863267"><ele>79.19</ele><time>2026-08-30T19:54:16Z</time></trkpt><trkpt lat="59.4808315672" lon="31.0216886736"><ele>76.63</ele><time>2026-08-30T19:54:19Z</time></trkpt><trkpt lat="59.4808309805" lon="31.0216929484"><ele>73.26</ele><time>2026-08-30T19:54:21Z</time></trkpt><trkpt lat="59.4808429666" lon="31.0217053536"><ele>69.85</ele><time>2026-08-30T19:54:25Z</time></trkpt><trkpt lat="59.4808324054" lon="31.0216842312"><ele>66.83</ele><time>2026-08-30T19:54:29Z</time></trkpt><trkpt lat="59.4808251131" lon="31.0216799565"><ele>63.23</ele><time>2026-08-30T19:54:34Z</time></trkpt><trkpt lat="59.4808407035" lon="31.0217070300"><ele>59.72</ele><time>2026-08-30T19:54:39Z</time></trkpt><trkpt lat="59.4808486663" lon="31.0217439104"><ele>55.95</ele><time>2026-08-30T19:54:44Z</time></trkpt><trkpt lat="59.4808500912" lon="31.0217622668"><ele>53.00</ele><time>2026-08-30T19:54:48Z</time></trkpt><trkpt lat="59.4808459841" lon="31.0217589140"><ele>49.95</ele><time>2026-08-30T19:54:51Z</time></trkpt><trkpt lat="59.4808459841" lon="31.0217602551"><ele>50.00</ele><time>2026-08-30T19:54:52Z</time></trkpt><trkpt lat="59.4808444753" lon="31.0217638593"><ele>46.93</ele><time>2026-08-30T19:54:56Z</time></trkpt><trkpt lat="59.4808407035" lon="31.0217577405"><ele>43.94</ele><time>2026-08-30T19:55:00Z</time></trkpt><trkpt lat="59.4808341656" lon="31.0217553936"><ele>40.62</ele><time>2026-08-30T19:55:06Z</time></trkpt><trkpt lat="59.4808315672" lon="31.0217518732"><ele>40.49</ele><time>2026-08-30T19:55:07Z</time></trkpt><trkpt lat="59.4808177371" lon="31.0216871649"><ele>37.10</ele><time>2026-08-30T19:55:17Z</time></trkpt><trkpt lat="59.4807977881" lon="31.0216372926"><ele>33.93</ele><time>2026-08-30T19:55:36Z</time></trkpt><trkpt lat="59.4808272086" lon="31.0217067786"><ele>31.72</ele><time>2026-08-30T19:56:05Z</time></trkpt><trkpt lat="59.4808277115" lon="31.0216778610"><ele>31.96</ele><time>2026-08-30T19:56:35Z</time></trkpt><trkpt lat="59.4808175694" lon="31.0216377955"><ele>32.33</ele><time>2026-08-30T19:57:00Z</time></trkpt><trkpt lat="59.4807876460" lon="31.0216260608"><ele>31.34</ele><time>2026-08-30T19:57:23Z</time></trkpt><trkpt lat="59.4807661884" lon="31.0216193553"><ele>32.96</ele><time>2026-08-30T19:57:40Z</time></trkpt><trkpt lat="59.4808306452" lon="31.0216227919"><ele>31.32</ele><time>2026-08-30T19:57:49Z</time></trkpt><trkpt lat="59.4809748139" lon="31.0216697305"><ele>32.21</ele><time>2026-08-30T19:58:09Z</time></trkpt><trkpt lat="59.4810639974" lon="31.0217020009"><ele>31.95</ele><time>2026-08-30T19:58:19Z</time></trkpt><trkpt lat="59.4810726307" lon="31.0217195190"><ele>31.14</ele><time>2026-08-30T19:58:21Z</time></trkpt><trkpt lat="59.4811271969" lon="31.0217112210"><ele>32.83</ele><time>2026-08-30T19:58:49Z</time></trkpt><trkpt lat="59.4812276959" lon="31.0216673836"><ele>31.96</ele><time>2026-08-30T19:59:04Z</time></trkpt><trkpt lat="59.4812575355" lon="31.0216722451"><ele>32.93</ele><time>2026-08-30T19:59:09Z</time></trkpt><trkpt lat="59.4812763948" lon="31.0216846503"><ele>32.86</ele><time>2026-08-30T19:59:11Z</time></trkpt><trkpt lat="59.4813566934" lon="31.0217498615"><ele>32.87</ele><time>2026-08-30T19:59:21Z</time></trkpt><trkpt lat="59.4814072363" lon="31.0217971355"><ele>32.96</ele><time>2026-08-30T19:59:27Z</time></trkpt><trkpt lat="59.4815906323" lon="31.0219327547"><ele>32.25</ele><time>2026-08-30T19:59:39Z</time></trkpt><trkpt lat="59.4816545863" lon="31.0219865665"><ele>32.35</ele><time>2026-08-30T19:59:44Z</time></trkpt><trkpt lat="59.4817131758" lon="31.0220982134"><ele>32.13</ele><time>2026-08-30T19:59:52Z</time></trkpt><trkpt lat="59.4818088971" lon="31.0224222578"><ele>32.81</ele><time>2026-08-30T20:00:05Z</time></trkpt><trkpt lat="59.4819675665" lon="31.0228614695"><ele>32.39</ele><time>2026-08-30T20:00:27Z</time></trkpt><trkpt lat="59.4819940533" lon="31.0229541734"><ele>32.65</ele><time>2026-08-30T20:00:33Z</time></trkpt><trkpt lat="59.4820149243" lon="31.0230752081"><ele>32.84</ele><time>2026-08-30T20:00:44Z</time></trkpt><trkpt lat="59.4820017647" lon="31.0230317060"><ele>32.33</ele><time>2026-08-30T20:00:52Z</time></trkpt><trkpt lat="59.4820198696" lon="31.0230055545"><ele>32.04</ele><time>2026-08-30T20:01:04Z</time></trkpt><trkpt lat="59.4820468593" lon="31.0230134334"><ele>32.29</ele><time>2026-08-30T20:01:08Z</time></trkpt><trkpt lat="59.4821316004" lon="31.0231284332"><ele>31.77</ele><time>2026-08-30T20:01:22Z</time></trkpt><trkpt lat="59.4821644574" lon="31.0232132580"><ele>31.46</ele><time>2026-08-30T20:01:27Z</time></trkpt><trkpt lat="59.4822969753" lon="31.0234775394"><ele>31.95</ele><time>2026-08-30T20:01:41Z</time></trkpt><trkpt lat="59.4824078679" lon="31.0236605164"><ele>31.80</ele><time>2026-08-30T20:01:55Z</time></trkpt><trkpt lat="59.4824172556" lon="31.0236709099"><ele>32.40</ele><time>2026-08-30T20:01:56Z</time></trkpt><trkpt lat="59.4824998174" lon="31.0238950420"><ele>31.54</ele><time>2026-08-30T20:02:06Z</time></trkpt><trkpt lat="59.4825612567" lon="31.0240157414"><ele>32.10</ele><time>2026-08-30T20:02:12Z</time></trkpt><trkpt lat="59.4825835526" lon="31.0241062660"><ele>31.40</ele><time>2026-08-30T20:02:16Z</time></trkpt><trkpt lat="59.4826672040" lon="31.0242890753"><ele>31.48</ele><time>2026-08-30T20:02:26Z</time></trkpt><trkpt lat="59.4826880749" lon="31.0243506823"><ele>31.57</ele><time>2026-08-30T20:02:29Z</time></trkpt><trkpt lat="59.4827018213" lon="31.0243986268"><ele>31.24</ele><time>2026-08-30T20:02:31Z</time></trkpt><trkpt lat="59.4827298168" lon="31.0244302265"><ele>31.49</ele><time>2026-08-30T20:02:34Z</time></trkpt><trkpt lat="59.4827490952" lon="31.0244516842"><ele>31.66</ele><time>2026-08-30T20:02:37Z</time></trkpt><trkpt lat="59.4827835448" lon="31.0244957730"><ele>31.51</ele><time>2026-08-30T20:02:39Z</time></trkpt><trkpt lat="59.4828285556" lon="31.0246303864"><ele>31.49</ele><time>2026-08-30T20:02:43Z</time></trkpt><trkpt lat="59.4828537013" lon="31.0246795882"><ele>31.53</ele><time>2026-08-30T20:02:46Z</time></trkpt><trkpt lat="59.4829225168" lon="31.0248372518"><ele>31.63</ele><time>2026-08-30T20:02:57Z</time></trkpt><trkpt lat="59.4830075093" lon="31.0250042193"><ele>31.26</ele><time>2026-08-30T20:03:10Z</time></trkpt><trkpt lat="59.4830117840" lon="31.0250205640"><ele>31.25</ele><time>2026-08-30T20:03:11Z</time></trkpt><trkpt lat="59.4830277096" lon="31.0251198895"><ele>31.61</ele><time>2026-08-30T20:03:17Z</time></trkpt><trkpt lat="59.4829531107" lon="31.0252519045"><ele>31.31</ele><time>2026-08-30T20:03:50Z</time></trkpt><trkpt lat="59.4830924179" lon="31.0253477935"><ele>30.93</ele><time>2026-08-30T20:04:18Z</time></trkpt><trkpt lat="59.4831622392" lon="31.0254162736"><ele>31.39</ele><time>2026-08-30T20:04:24Z</time></trkpt><trkpt lat="59.4831715431" lon="31.0254264995"><ele>30.85</ele><time>2026-08-30T20:04:26Z</time></trkpt><trkpt lat="59.4831983652" lon="31.0254554171"><ele>31.01</ele><time>2026-08-30T20:04:28Z</time></trkpt><trkpt lat="59.4832346588" lon="31.0254992545"><ele>31.26</ele><time>2026-08-30T20:04:33Z</time></trkpt><trkpt lat="59.4833332300" lon="31.0256261565"><ele>31.16</ele><time>2026-08-30T20:04:45Z</time></trkpt><trkpt lat="59.4833664224" lon="31.0256521404"><ele>30.99</ele><time>2026-08-30T20:04:48Z</time></trkpt><trkpt lat="59.4833768997" lon="31.0256912839"><ele>30.45</ele><time>2026-08-30T20:04:51Z</time></trkpt><trkpt lat="59.4834493194" lon="31.0259691440"><ele>31.00</ele><time>2026-08-30T20:05:01Z</time></trkpt><trkpt lat="59.4834673405" lon="31.0260048509"><ele>30.80</ele><time>2026-08-30T20:05:04Z</time></trkpt><trkpt lat="59.4835039694" lon="31.0260598361"><ele>31.36</ele><time>2026-08-30T20:05:08Z</time></trkpt><trkpt lat="59.4835514948" lon="31.0261184257"><ele>31.20</ele><time>2026-08-30T20:05:12Z</time></trkpt><trkpt lat="59.4837212283" lon="31.0263951123"><ele>31.21</ele><time>2026-08-30T20:05:29Z</time></trkpt><trkpt lat="59.4837672450" lon="31.0264551267"><ele>30.59</ele><time>2026-08-30T20:05:33Z</time></trkpt><trkpt lat="59.4837945700" lon="31.0265272111"><ele>30.54</ele><time>2026-08-30T20:05:37Z</time></trkpt><trkpt lat="59.4838140160" lon="31.0266166460"><ele>30.99</ele><time>2026-08-30T20:05:41Z</time></trkpt><trkpt lat="59.4838286843" lon="31.0266496707"><ele>30.79</ele><time>2026-08-30T20:05:44Z</time></trkpt><trkpt lat="59.4838621281" lon="31.0268075857"><ele>29.67</ele><time>2026-08-30T20:05:48Z</time></trkpt><trkpt lat="59.4839495514" lon="31.0270424467"><ele>30.44</ele><time>2026-08-30T20:06:01Z</time></trkpt><trkpt lat="59.4839578494" lon="31.0270577017"><ele>30.45</ele><time>2026-08-30T20:06:03Z</time></trkpt><trkpt lat="59.4840193726" lon="31.0272757988"><ele>31.03</ele><time>2026-08-30T20:06:15Z</time></trkpt><trkpt lat="59.4840201270" lon="31.0272933170"><ele>31.22</ele><time>2026-08-30T20:06:16Z</time></trkpt><trkpt lat="59.4840242341" lon="31.0274187941"><ele>31.14</ele><time>2026-08-30T20:06:46Z</time></trkpt><trkpt lat="59.4840734359" lon="31.0275404993"><ele>30.26</ele><time>2026-08-30T20:07:27Z</time></trkpt><trkpt lat="59.4842219632" lon="31.0277124960"><ele>30.79</ele><time>2026-08-30T20:07:45Z</time></trkpt><trkpt lat="59.4842594303" lon="31.0277761985"><ele>30.54</ele><time>2026-08-30T20:07:49Z</time></trkpt><trkpt lat="59.4842849113" lon="31.0278384760"><ele>30.17</ele><time>2026-08-30T20:07:53Z</time></trkpt><trkpt lat="59.4843118172" lon="31.0278979875"><ele>30.92</ele><time>2026-08-30T20:07:57Z</time></trkpt><trkpt lat="59.4843435008" lon="31.0279399808"><ele>29.65</ele><time>2026-08-30T20:08:01Z</time></trkpt><trkpt lat="59.4844129030" lon="31.0281613469"><ele>30.05</ele><time>2026-08-30T20:08:09Z</time></trkpt><trkpt lat="59.4845485222" lon="31.0283358581"><ele>29.81</ele><time>2026-08-30T20:08:22Z</time></trkpt><trkpt lat="59.4845880847" lon="31.0284598265"><ele>30.42</ele><time>2026-08-30T20:08:37Z</time></trkpt><trkpt lat="59.4846211094" lon="31.0285295639"><ele>29.92</ele><time>2026-08-30T20:09:00Z</time></trkpt><trkpt lat="59.4846257195" lon="31.0285375267"><ele>30.21</ele><time>2026-08-30T20:09:01Z</time></trkpt><trkpt lat="59.4846805371" lon="31.0286490060"><ele>29.35</ele><time>2026-08-30T20:09:18Z</time></trkpt><trkpt lat="59.4847821258" lon="31.0288674384"><ele>30.44</ele><time>2026-08-30T20:09:33Z</time></trkpt><trkpt lat="59.4848526176" lon="31.0290196538"><ele>28.73</ele><time>2026-08-30T20:09:48Z</time></trkpt><trkpt lat="59.4849026576" lon="31.0292305425"><ele>29.61</ele><time>2026-08-30T20:10:00Z</time></trkpt><trkpt lat="59.4849490095" lon="31.0293589532"><ele>29.80</ele><time>2026-08-30T20:10:14Z</time></trkpt><trkpt lat="59.4849452376" lon="31.0293685086"><ele>29.44</ele><time>2026-08-30T20:10:38Z</time></trkpt><trkpt lat="59.4850283861" lon="31.0293911397"><ele>30.02</ele><time>2026-08-30T20:11:05Z</time></trkpt><trkpt lat="59.4850514363" lon="31.0294699296"><ele>29.76</ele><time>2026-08-30T20:11:25Z</time></trkpt><trkpt lat="59.4850989617" lon="31.0295248311"><ele>30.02</ele><time>2026-08-30T20:11:33Z</time></trkpt><trkpt lat="59.4851280469" lon="31.0295768827"><ele>29.65</ele><time>2026-08-30T20:11:37Z</time></trkpt><trkpt lat="59.4851970300" lon="31.0297709238"><ele>30.45</ele><time>2026-08-30T20:11:48Z</time></trkpt><trkpt lat="59.4852711260" lon="31.0298835766"><ele>30.66</ele><time>2026-08-30T20:12:02Z</time></trkpt><trkpt lat="59.4853291288" lon="31.0300916992"><ele>31.03</ele><time>2026-08-30T20:12:16Z</time></trkpt><trkpt lat="59.4853152148" lon="31.0301552340"><ele>31.02</ele><time>2026-08-30T20:12:44Z</time></trkpt><trkpt lat="59.4853888918" lon="31.0302722454"><ele>30.19</ele><time>2026-08-30T20:13:00Z</time></trkpt><trkpt lat="59.4854857866" lon="31.0303393845"><ele>30.72</ele><time>2026-08-30T20:13:10Z</time></trkpt><trkpt lat="59.4855197333" lon="31.0303742532"><ele>30.88</ele><time>2026-08-30T20:13:14Z</time></trkpt><trkpt lat="59.4856061507" lon="31.0305580683"><ele>30.49</ele><time>2026-08-30T20:13:25Z</time></trkpt><trkpt lat="59.4856582861" lon="31.0307992157"><ele>30.93</ele><time>2026-08-30T20:13:39Z</time></trkpt><trkpt lat="59.4857139420" lon="31.0309434682"><ele>30.98</ele><time>2026-08-30T20:13:55Z</time></trkpt><trkpt lat="59.4857523311" lon="31.0310461465"><ele>31.35</ele><time>2026-08-30T20:14:05Z</time></trkpt><trkpt lat="59.4857711904" lon="31.0311567038"><ele>31.06</ele><time>2026-08-30T20:14:13Z</time></trkpt><trkpt lat="59.4858306181" lon="31.0312466417"><ele>31.65</ele><time>2026-08-30T20:14:19Z</time></trkpt><trkpt lat="59.4859309494" lon="31.0314381681"><ele>31.90</ele><time>2026-08-30T20:14:30Z</time></trkpt><trkpt lat="59.4860005192" lon="31.0315958317"><ele>30.99</ele><time>2026-08-30T20:14:42Z</time></trkpt><trkpt lat="59.4860798959" lon="31.0317919683"><ele>30.52</ele><time>2026-08-30T20:14:56Z</time></trkpt><trkpt lat="59.4861239847" lon="31.0319268331"><ele>30.55</ele><time>2026-08-30T20:15:05Z</time></trkpt><trkpt lat="59.4861275889" lon="31.0320716724"><ele>31.27</ele><time>2026-08-30T20:15:31Z</time></trkpt><trkpt lat="59.4862052053" lon="31.0320134182"><ele>31.74</ele><time>2026-08-30T20:15:56Z</time></trkpt><trkpt lat="59.4862961490" lon="31.0321393143"><ele>32.00</ele><time>2026-08-30T20:16:10Z</time></trkpt><trkpt lat="59.4863166008" lon="31.0321707465"><ele>30.84</ele><time>2026-08-30T20:16:13Z</time></trkpt><trkpt lat="59.4863974024" lon="31.0323091317"><ele>32.02</ele><time>2026-08-30T20:16:25Z</time></trkpt><trkpt lat="59.4864362106" lon="31.0324584134"><ele>31.58</ele><time>2026-08-30T20:16:36Z</time></trkpt><trkpt lat="59.4864142500" lon="31.0324931983"><ele>31.33</ele><time>2026-08-30T20:17:07Z</time></trkpt><trkpt lat="59.4864357915" lon="31.0325285699"><ele>31.13</ele><time>2026-08-30T20:17:11Z</time></trkpt><trkpt lat="59.4865157548" lon="31.0326659493"><ele>31.48</ele><time>2026-08-30T20:17:23Z</time></trkpt><trkpt lat="59.4865905214" lon="31.0329581425"><ele>31.62</ele><time>2026-08-30T20:17:37Z</time></trkpt><trkpt lat="59.4866789505" lon="31.0332308058"><ele>31.65</ele><time>2026-08-30T20:17:58Z</time></trkpt><trkpt lat="59.4866621867" lon="31.0332427919"><ele>32.41</ele><time>2026-08-30T20:18:16Z</time></trkpt><trkpt lat="59.4866875000" lon="31.0332625732"><ele>31.76</ele><time>2026-08-30T20:18:44Z</time></trkpt><trkpt lat="59.4866732508" lon="31.0332466476"><ele>30.71</ele><time>2026-08-30T20:18:50Z</time></trkpt><trkpt lat="59.4866706524" lon="31.0332472343"><ele>30.74</ele><time>2026-08-30T20:18:52Z</time></trkpt><trkpt lat="59.4866263121" lon="31.0334012937"><ele>31.70</ele><time>2026-08-30T20:19:14Z</time></trkpt><trkpt lat="59.4865802117" lon="31.0335605498"><ele>32.63</ele><time>2026-08-30T20:19:32Z</time></trkpt><trkpt lat="59.4865640346" lon="31.0336747114"><ele>32.27</ele><time>2026-08-30T20:19:39Z</time></trkpt><trkpt lat="59.4865636993" lon="31.0338513181"><ele>32.61</ele><time>2026-08-30T20:19:56Z</time></trkpt><trkpt lat="59.4865202811" lon="31.0340256616"><ele>32.32</ele><time>2026-08-30T20:20:13Z</time></trkpt><trkpt lat="59.4865149166" lon="31.0342747718"><ele>31.97</ele><time>2026-08-30T20:20:34Z</time></trkpt><trkpt lat="59.4864999969" lon="31.0345413163"><ele>33.30</ele><time>2026-08-30T20:20:53Z</time></trkpt><trkpt lat="59.4864479452" lon="31.0346637759"><ele>32.46</ele><time>2026-08-30T20:21:35Z</time></trkpt><trkpt lat="59.4864253979" lon="31.0346682183"><ele>32.41</ele><time>2026-08-30T20:21:51Z</time></trkpt><trkpt lat="59.4864952192" lon="31.0344802123"><ele>32.74</ele><time>2026-08-30T20:22:17Z</time></trkpt><trkpt lat="59.4865854923" lon="31.0342949722"><ele>32.49</ele><time>2026-08-30T20:22:32Z</time></trkpt><trkpt lat="59.4865843188" lon="31.0342793819"><ele>32.76</ele><time>2026-08-30T20:22:33Z</time></trkpt><trkpt lat="59.4866317604" lon="31.0339438543"><ele>33.39</ele><time>2026-08-30T20:22:52Z</time></trkpt><trkpt lat="59.4866914395" lon="31.0337390006"><ele>32.14</ele><time>2026-08-30T20:23:07Z</time></trkpt><trkpt lat="59.4867263921" lon="31.0336619709"><ele>33.42</ele><time>2026-08-30T20:23:12Z</time></trkpt><trkpt lat="59.4867398869" lon="31.0334645770"><ele>32.64</ele><time>2026-08-30T20:23:32Z</time></trkpt><trkpt lat="59.4867113885" lon="31.0334839392"><ele>32.83</ele><time>2026-08-30T20:24:22Z</time></trkpt><trkpt lat="59.4866417348" lon="31.0336752143"><ele>32.61</ele><time>2026-08-30T20:24:43Z</time></trkpt><trkpt lat="59.4866149966" lon="31.0339047108"><ele>32.58</ele><time>2026-08-30T20:25:04Z</time></trkpt><trkpt lat="59.4865554012" lon="31.0341412481"><ele>32.30</ele><time>2026-08-30T20:25:24Z</time></trkpt><trkpt lat="59.4865594245" lon="31.0342921223"><ele>33.67</ele><time>2026-08-30T20:25:36Z</time></trkpt><trkpt lat="59.4864792097" lon="31.0345496144"><ele>32.83</ele><time>2026-08-30T20:25:57Z</time></trkpt><trkpt lat="59.4864284154" lon="31.0348079447"><ele>33.83</ele><time>2026-08-30T20:26:19Z</time></trkpt><trkpt lat="59.4864020962" lon="31.0349749122"><ele>34.05</ele><time>2026-08-30T20:26:35Z</time></trkpt><trkpt lat="59.4863517210" lon="31.0351570509"><ele>33.67</ele><time>2026-08-30T20:26:50Z</time></trkpt><trkpt lat="59.4863068778" lon="31.0354179796"><ele>32.90</ele><time>2026-08-30T20:27:05Z</time></trkpt><trkpt lat="59.4862515572" lon="31.0356147867"><ele>32.05</ele><time>2026-08-30T20:27:21Z</time></trkpt><trkpt lat="59.4862462766" lon="31.0356307961"><ele>32.05</ele><time>2026-08-30T20:27:22Z</time></trkpt><trkpt lat="59.4862270821" lon="31.0356928222"><ele>33.51</ele><time>2026-08-30T20:27:26Z</time></trkpt><trkpt lat="59.4861673191" lon="31.0359721910"><ele>33.16</ele><time>2026-08-30T20:27:45Z</time></trkpt><trkpt lat="59.4861092325" lon="31.0360021144"><ele>33.79</ele><time>2026-08-30T20:28:15Z</time></trkpt><trkpt lat="59.4860860147" lon="31.0361003503"><ele>32.80</ele><time>2026-08-30T20:28:45Z</time></trkpt><trkpt lat="59.4860556722" lon="31.0359957442"><ele>33.31</ele><time>2026-08-30T20:29:13Z</time></trkpt><trkpt lat="59.4861077238" lon="31.0359915532"><ele>33.12</ele><time>2026-08-30T20:29:21Z</time></trkpt><trkpt lat="59.4861523993" lon="31.0359703470"><ele>32.86</ele><time>2026-08-30T20:29:59Z</time></trkpt><trkpt lat="59.4861486275" lon="31.0359762143"><ele>32.67</ele><time>2026-08-30T20:30:24Z</time></trkpt><trkpt lat="59.4861741923" lon="31.0360361449"><ele>33.00</ele><time>2026-08-30T20:30:53Z</time></trkpt><trkpt lat="59.4861877710" lon="31.0360590275"><ele>33.15</ele><time>2026-08-30T20:31:26Z</time></trkpt><trkpt lat="59.4861715939" lon="31.0360254999"><ele>33.31</ele><time>2026-08-30T20:31:56Z</time></trkpt><trkpt lat="59.4861922972" lon="31.0359887034"><ele>33.26</ele><time>2026-08-30T20:32:31Z</time></trkpt><trkpt lat="59.4862057082" lon="31.0360235721"><ele>34.12</ele><time>2026-08-30T20:32:58Z</time></trkpt><trkpt lat="59.4862070493" lon="31.0360211413"><ele>34.65</ele><time>2026-08-30T20:33:08Z</time></trkpt><trkpt lat="59.4861617032" lon="31.0360518191"><ele>34.74</ele><time>2026-08-30T20:33:26Z</time></trkpt><trkpt lat="59.4861284271" lon="31.0362887755"><ele>34.12</ele><time>2026-08-30T20:33:46Z</time></trkpt><trkpt lat="59.4861013535" lon="31.0364765301"><ele>34.86</ele><time>2026-08-30T20:34:04Z</time></trkpt><trkpt lat="59.4860884454" lon="31.0366704036"><ele>34.58</ele><time>2026-08-30T20:34:23Z</time></trkpt><trkpt lat="59.4860854279" lon="31.0366851557"><ele>33.72</ele><time>2026-08-30T20:34:24Z</time></trkpt><trkpt lat="59.4860489666" lon="31.0367979761"><ele>34.63</ele><time>2026-08-30T20:34:39Z</time></trkpt><trkpt lat="59.4859825820" lon="31.0370200127"><ele>34.65</ele><time>2026-08-30T20:34:55Z</time></trkpt><trkpt lat="59.4859469589" lon="31.0372592323"><ele>34.18</ele><time>2026-08-30T20:35:13Z</time></trkpt><trkpt lat="59.4859410916" lon="31.0374118667"><ele>34.38</ele><time>2026-08-30T20:35:25Z</time></trkpt><trkpt lat="59.4859182928" lon="31.0375039838"><ele>34.61</ele><time>2026-08-30T20:35:30Z</time></trkpt><trkpt lat="59.4858798198" lon="31.0375775769"><ele>34.05</ele><time>2026-08-30T20:35:33Z</time></trkpt><trkpt lat="59.4858617987" lon="31.0376469791"><ele>35.47</ele><time>2026-08-30T20:35:37Z</time></trkpt><trkpt lat="59.4858694263" lon="31.0378650762"><ele>34.09</ele><time>2026-08-30T20:35:51Z</time></trkpt><trkpt lat="59.4858019520" lon="31.0379714426"><ele>34.71</ele><time>2026-08-30T20:36:14Z</time></trkpt><trkpt lat="59.4857221562" lon="31.0380206443"><ele>35.26</ele><time>2026-08-30T20:36:36Z</time></trkpt><trkpt lat="59.4856632315" lon="31.0382283479"><ele>34.80</ele><time>2026-08-30T20:36:56Z</time></trkpt><trkpt lat="59.4856379181" lon="31.0383306909"><ele>34.38</ele><time>2026-08-30T20:37:13Z</time></trkpt><trkpt lat="59.4856058154" lon="31.0383879393"><ele>35.92</ele><time>2026-08-30T20:37:18Z</time></trkpt><trkpt lat="59.4855253492" lon="31.0385013465"><ele>35.90</ele><time>2026-08-30T20:37:42Z</time></trkpt><trkpt lat="59.4855722040" lon="31.0384771228"><ele>36.00</ele><time>2026-08-30T20:38:09Z</time></trkpt><trkpt lat="59.4856145326" lon="31.0384860914"><ele>35.90</ele><time>2026-08-30T20:38:40Z</time></trkpt><trkpt lat="59.4856456295" lon="31.0385752749"><ele>36.24</ele><time>2026-08-30T20:38:57Z</time></trkpt><trkpt lat="59.4856063183" lon="31.0388476029"><ele>35.45</ele><time>2026-08-30T20:39:21Z</time></trkpt><trkpt lat="59.4855464716" lon="31.0391461663"><ele>35.78</ele><time>2026-08-30T20:39:40Z</time></trkpt><trkpt lat="59.4855001196" lon="31.0393252037"><ele>36.39</ele><time>2026-08-30T20:40:02Z</time></trkpt><trkpt lat="59.4854730461" lon="31.0395039059"><ele>36.43</ele><time>2026-08-30T20:40:23Z</time></trkpt><trkpt lat="59.4854512531" lon="31.0395515151"><ele>35.99</ele><time>2026-08-30T20:40:48Z</time></trkpt><trkpt lat="59.4855358265" lon="31.0397194047"><ele>36.31</ele><time>2026-08-30T20:41:11Z</time></trkpt><trkpt lat="59.4856098387" lon="31.0398546886"><ele>36.51</ele><time>2026-08-30T20:41:27Z</time></trkpt><trkpt lat="59.4856224954" lon="31.0400561895"><ele>36.31</ele><time>2026-08-30T20:41:47Z</time></trkpt><trkpt lat="59.4856076594" lon="31.0403430182"><ele>37.00</ele><time>2026-08-30T20:42:08Z</time></trkpt><trkpt lat="59.4856153708" lon="31.0407002550"><ele>36.42</ele><time>2026-08-30T20:42:29Z</time></trkpt><trkpt lat="59.4855868723" lon="31.0407661367"><ele>37.18</ele><time>2026-08-30T20:42:51Z</time></trkpt><trkpt lat="59.4855904765" lon="31.0407641251"><ele>36.17</ele><time>2026-08-30T20:43:19Z</time></trkpt><trkpt lat="59.4855753053" lon="31.0407761950"><ele>37.02</ele><time>2026-08-30T20:43:24Z</time></trkpt><trkpt lat="59.4855707791" lon="31.0408580024"><ele>36.22</ele><time>2026-08-30T20:43:56Z</time></trkpt><trkpt lat="59.4855183922" lon="31.0410476848"><ele>36.82</ele><time>2026-08-30T20:44:14Z</time></trkpt><trkpt lat="59.4855261035" lon="31.0412352718"><ele>36.76</ele><time>2026-08-30T20:44:33Z</time></trkpt><trkpt lat="59.4855826814" lon="31.0415110365"><ele>36.01</ele><time>2026-08-30T20:44:52Z</time></trkpt><trkpt lat="59.4856410194" lon="31.0417936742"><ele>37.05</ele><time>2026-08-30T20:45:12Z</time></trkpt><trkpt lat="59.4856159575" lon="31.0420476459"><ele>36.43</ele><time>2026-08-30T20:45:30Z</time></trkpt><trkpt lat="59.4855100941" lon="31.0422560200"><ele>37.07</ele><time>2026-08-30T20:45:51Z</time></trkpt><trkpt lat="59.4854306336" lon="31.0424473789"><ele>36.03</ele><time>2026-08-30T20:46:11Z</time></trkpt><trkpt lat="59.4854064938" lon="31.0424824152"><ele>36.19</ele><time>2026-08-30T20:46:37Z</time></trkpt><trkpt lat="59.4854142889" lon="31.0425008554"><ele>40.10</ele><time>2026-08-30T20:46:53Z</time></trkpt><trkpt lat="59.4854185637" lon="31.0424964968"><ele>36.87</ele><time>2026-08-30T20:46:54Z</time></trkpt><trkpt lat="59.4854615629" lon="31.0423855204"><ele>36.39</ele><time>2026-08-30T20:47:23Z</time></trkpt><trkpt lat="59.4853889756" lon="31.0424144380"><ele>35.20</ele><time>2026-08-30T20:47:45Z</time></trkpt><trkpt lat="59.4853832759" lon="31.0424036253"><ele>36.57</ele><time>2026-08-30T20:47:50Z</time></trkpt><trkpt lat="59.4854054041" lon="31.0424476303"><ele>36.00</ele><time>2026-08-30T20:48:14Z</time></trkpt><trkpt lat="59.4853394385" lon="31.0425661504"><ele>36.92</ele><time>2026-08-30T20:48:43Z</time></trkpt><trkpt lat="59.4853204116" lon="31.0427722614"><ele>36.85</ele><time>2026-08-30T20:49:02Z</time></trkpt><trkpt lat="59.4853234291" lon="31.0430600960"><ele>37.35</ele><time>2026-08-30T20:49:23Z</time></trkpt><trkpt lat="59.4853267819" lon="31.0430777818"><ele>37.55</ele><time>2026-08-30T20:49:24Z</time></trkpt><trkpt lat="59.4853107724" lon="31.0433012433"><ele>37.02</ele><time>2026-08-30T20:49:45Z</time></trkpt><trkpt lat="59.4852823578" lon="31.0436381958"><ele>37.55</ele><time>2026-08-30T20:50:07Z</time></trkpt><trkpt lat="59.4852992892" lon="31.0439343285"><ele>37.49</ele><time>2026-08-30T20:50:27Z</time></trkpt><trkpt lat="59.4853650872" lon="31.0441841092"><ele>38.00</ele><time>2026-08-30T20:50:48Z</time></trkpt><trkpt lat="59.4853533525" lon="31.0445225704"><ele>37.73</ele><time>2026-08-30T20:51:12Z</time></trkpt><trkpt lat="59.4852665998" lon="31.0446192976"><ele>37.19</ele><time>2026-08-30T20:51:32Z</time></trkpt><trkpt lat="59.4852382690" lon="31.0446108319"><ele>36.70</ele><time>2026-08-30T20:52:02Z</time></trkpt><trkpt lat="59.4852186553" lon="31.0446656495"><ele>37.16</ele><time>2026-08-30T20:52:31Z</time></trkpt><trkpt lat="59.4852158893" lon="31.0446684994"><ele>36.60</ele><time>2026-08-30T20:52:33Z</time></trkpt><trkpt lat="59.4851637539" lon="31.0449501313"><ele>37.43</ele><time>2026-08-30T20:52:54Z</time></trkpt><trkpt lat="59.4851838704" lon="31.0452078748"><ele>38.27</ele><time>2026-08-30T20:53:10Z</time></trkpt><trkpt lat="59.4851162285" lon="31.0455546342"><ele>37.56</ele><time>2026-08-30T20:53:34Z</time></trkpt><trkpt lat="59.4850789290" lon="31.0458776727"><ele>38.40</ele><time>2026-08-30T20:53:56Z</time></trkpt><trkpt lat="59.4850677811" lon="31.0460748151"><ele>37.55</ele><time>2026-08-30T20:54:09Z</time></trkpt><trkpt lat="59.4850603212" lon="31.0463930760"><ele>38.30</ele><time>2026-08-30T20:54:30Z</time></trkpt><trkpt lat="59.4850352593" lon="31.0467527434"><ele>38.36</ele><time>2026-08-30T20:54:52Z</time></trkpt><trkpt lat="59.4850031566" lon="31.0468922183"><ele>38.32</ele><time>2026-08-30T20:55:12Z</time></trkpt><trkpt lat="59.4850173220" lon="31.0468898714"><ele>38.30</ele><time>2026-08-30T20:55:39Z</time></trkpt><trkpt lat="59.4850379415" lon="31.0468846746"><ele>38.20</ele><time>2026-08-30T20:56:08Z</time></trkpt><trkpt lat="59.4849383645" lon="31.0469445214"><ele>37.63</ele><time>2026-08-30T20:56:34Z</time></trkpt><trkpt lat="59.4849168230" lon="31.0469587706"><ele>38.36</ele><time>2026-08-30T20:57:05Z</time></trkpt><trkpt lat="59.4849982951" lon="31.0469106585"><ele>38.59</ele><time>2026-08-30T20:57:32Z</time></trkpt><trkpt lat="59.4849784300" lon="31.0469622910"><ele>38.10</ele><time>2026-08-30T20:57:43Z</time></trkpt><trkpt lat="59.4849658571" lon="31.0471188650"><ele>38.75</ele><time>2026-08-30T20:58:03Z</time></trkpt><trkpt lat="59.4849091955" lon="31.0473836493"><ele>39.27</ele><time>2026-08-30T20:58:24Z</time></trkpt><trkpt lat="59.4848781824" lon="31.0475779418"><ele>38.74</ele><time>2026-08-30T20:58:48Z</time></trkpt><trkpt lat="59.4848242030" lon="31.0476567317"><ele>38.33</ele><time>2026-08-30T20:59:06Z</time></trkpt><trkpt lat="59.4847825449" lon="31.0479554627"><ele>38.32</ele><time>2026-08-30T20:59:27Z</time></trkpt><trkpt lat="59.4847709779" lon="31.0482136253"><ele>39.20</ele><time>2026-08-30T20:59:45Z</time></trkpt><trkpt lat="59.4847313315" lon="31.0483964346"><ele>38.70</ele><time>2026-08-30T21:00:03Z</time></trkpt><trkpt lat="59.4846986420" lon="31.0487194732"><ele>38.59</ele><time>2026-08-30T21:00:26Z</time></trkpt><trkpt lat="59.4846658688" lon="31.0489785578"><ele>38.67</ele><time>2026-08-30T21:00:43Z</time></trkpt><trkpt lat="59.4846331794" lon="31.0492949747"><ele>38.25</ele><time>2026-08-30T21:01:04Z</time></trkpt><trkpt lat="59.4846059382" lon="31.0493647121"><ele>38.74</ele><time>2026-08-30T21:01:32Z</time></trkpt><trkpt lat="59.4846197683" lon="31.0493661370"><ele>38.56</ele><time>2026-08-30T21:02:03Z</time></trkpt><trkpt lat="59.4846200198" lon="31.0493832361"><ele>39.36</ele><time>2026-08-30T21:02:26Z</time></trkpt><trkpt lat="59.4845994841" lon="31.0493618622"><ele>38.97</ele><time>2026-08-30T21:02:53Z</time></trkpt><trkpt lat="59.4846261386" lon="31.0493827332"><ele>39.47</ele><time>2026-08-30T21:03:24Z</time></trkpt><trkpt lat="59.4846305810" lon="31.0496067815"><ele>39.35</ele><time>2026-08-30T21:03:45Z</time></trkpt><trkpt lat="59.4845983107" lon="31.0499117151"><ele>39.23</ele><time>2026-08-30T21:04:07Z</time></trkpt><trkpt lat="59.4845621008" lon="31.0502004717"><ele>39.61</ele><time>2026-08-30T21:04:29Z</time></trkpt><trkpt lat="59.4845425710" lon="31.0504524317"><ele>39.34</ele><time>2026-08-30T21:04:50Z</time></trkpt><trkpt lat="59.4844466820" lon="31.0506765638"><ele>40.27</ele><time>2026-08-30T21:05:08Z</time></trkpt><trkpt lat="59.4844041020" lon="31.0507292859"><ele>40.28</ele><time>2026-08-30T21:05:25Z</time></trkpt><trkpt lat="59.4843561575" lon="31.0508782323"><ele>39.69</ele><time>2026-08-30T21:05:40Z</time></trkpt><trkpt lat="59.4843481947" lon="31.0511349700"><ele>41.08</ele><time>2026-08-30T21:06:01Z</time></trkpt><trkpt lat="59.4843353704" lon="31.0513867624"><ele>39.73</ele><time>2026-08-30T21:06:19Z</time></trkpt><trkpt lat="59.4843756873" lon="31.0516641196"><ele>39.74</ele><time>2026-08-30T21:06:37Z</time></trkpt><trkpt lat="59.4844106399" lon="31.0517092980"><ele>39.97</ele><time>2026-08-30T21:07:04Z</time></trkpt><trkpt lat="59.4844055269" lon="31.0517414846"><ele>39.86</ele><time>2026-08-30T21:07:31Z</time></trkpt><trkpt lat="59.4843722507" lon="31.0517624393"><ele>39.38</ele><time>2026-08-30T21:07:55Z</time></trkpt><trkpt lat="59.4843998272" lon="31.0519396327"><ele>39.48</ele><time>2026-08-30T21:08:14Z</time></trkpt><trkpt lat="59.4844130706" lon="31.0520033352"><ele>39.66</ele><time>2026-08-30T21:08:19Z</time></trkpt><trkpt lat="59.4844280742" lon="31.0520946980"><ele>38.76</ele><time>2026-08-30T21:08:28Z</time></trkpt><trkpt lat="59.4843841530" lon="31.0522119608"><ele>39.15</ele><time>2026-08-30T21:08:43Z</time></trkpt><trkpt lat="59.4843523856" lon="31.0523139685"><ele>39.25</ele><time>2026-08-30T21:08:48Z</time></trkpt><trkpt lat="59.4843142480" lon="31.0526682716"><ele>38.60</ele><time>2026-08-30T21:09:10Z</time></trkpt><trkpt lat="59.4843010884" lon="31.0527233407"><ele>37.68</ele><time>2026-08-30T21:09:18Z</time></trkpt><trkpt lat="59.4842988253" lon="31.0527324770"><ele>37.67</ele><time>2026-08-30T21:09:19Z</time></trkpt><trkpt lat="59.4842892699" lon="31.0529760551"><ele>38.51</ele><time>2026-08-30T21:09:42Z</time></trkpt><trkpt lat="59.4843191095" lon="31.0530938208"><ele>39.05</ele><time>2026-08-30T21:10:00Z</time></trkpt><trkpt lat="59.4843159243" lon="31.0533415899"><ele>38.25</ele><time>2026-08-30T21:10:20Z</time></trkpt><trkpt lat="59.4842897728" lon="31.0537149198"><ele>37.95</ele><time>2026-08-30T21:10:43Z</time></trkpt><trkpt lat="59.4842440914" lon="31.0540348571"><ele>38.87</ele><time>2026-08-30T21:11:03Z</time></trkpt><trkpt lat="59.4842306804" lon="31.0541007388"><ele>37.91</ele><time>2026-08-30T21:11:08Z</time></trkpt><trkpt lat="59.4842219632" lon="31.0541838035"><ele>38.53</ele><time>2026-08-30T21:11:35Z</time></trkpt><trkpt lat="59.4842382241" lon="31.0541422293"><ele>39.16</ele><time>2026-08-30T21:12:03Z</time></trkpt><trkpt lat="59.4842481986" lon="31.0541512817"><ele>38.48</ele><time>2026-08-30T21:12:19Z</time></trkpt><trkpt lat="59.4842991605" lon="31.0543288942"><ele>39.36</ele><time>2026-08-30T21:12:38Z</time></trkpt><trkpt lat="59.4842088036" lon="31.0545986239"><ele>38.36</ele><time>2026-08-30T21:12:53Z</time></trkpt><trkpt lat="59.4841919560" lon="31.0549225844"><ele>39.03</ele><time>2026-08-30T21:13:13Z</time></trkpt><trkpt lat="59.4841493759" lon="31.0552369896"><ele>38.39</ele><time>2026-08-30T21:13:34Z</time></trkpt><trkpt lat="59.4841198716" lon="31.0556256585"><ele>39.50</ele><time>2026-08-30T21:13:57Z</time></trkpt><trkpt lat="59.4840660598" lon="31.0558903590"><ele>39.24</ele><time>2026-08-30T21:14:16Z</time></trkpt><trkpt lat="59.4840522297" lon="31.0560918599"><ele>38.96</ele><time>2026-08-30T21:14:37Z</time></trkpt><trkpt lat="59.4840330351" lon="31.0562800337"><ele>38.68</ele><time>2026-08-30T21:14:56Z</time></trkpt><trkpt lat="59.4840347115" lon="31.0565108713"><ele>38.74</ele><time>2026-08-30T21:15:18Z</time></trkpt><trkpt lat="59.4840674847" lon="31.0564516112"><ele>38.40</ele><time>2026-08-30T21:15:48Z</time></trkpt><trkpt lat="59.4840890262" lon="31.0565412138"><ele>38.79</ele><time>2026-08-30T21:16:18Z</time></trkpt><trkpt lat="59.4840026926" lon="31.0567054152"><ele>38.18</ele><time>2026-08-30T21:16:41Z</time></trkpt><trkpt lat="59.4840178639" lon="31.0569412820"><ele>37.93</ele><time>2026-08-30T21:17:01Z</time></trkpt><trkpt lat="59.4840056263" lon="31.0571045615"><ele>38.43</ele><time>2026-08-30T21:17:20Z</time></trkpt><trkpt lat="59.4839959871" lon="31.0573265143"><ele>38.63</ele><time>2026-08-30T21:17:43Z</time></trkpt><trkpt lat="59.4839958195" lon="31.0573689267"><ele>38.42</ele><time>2026-08-30T21:17:48Z</time></trkpt><trkpt lat="59.4839623757" lon="31.0577305220"><ele>38.59</ele><time>2026-08-30T21:18:12Z</time></trkpt><trkpt lat="59.4839239027" lon="31.0580207873"><ele>38.46</ele><time>2026-08-30T21:18:31Z</time></trkpt><trkpt lat="59.4838944823" lon="31.0582914390"><ele>37.44</ele><time>2026-08-30T21:18:49Z</time></trkpt><trkpt lat="59.4838785566" lon="31.0585872363"><ele>37.93</ele><time>2026-08-30T21:19:11Z</time></trkpt><trkpt lat="59.4838581048" lon="31.0587611608"><ele>38.14</ele><time>2026-08-30T21:19:20Z</time></trkpt><trkpt lat="59.4838264212" lon="31.0588910803"><ele>38.53</ele><time>2026-08-30T21:19:29Z</time></trkpt><trkpt lat="59.4838469569" lon="31.0589103587"><ele>38.20</ele><time>2026-08-30T21:19:57Z</time></trkpt><trkpt lat="59.4838513155" lon="31.0589114483"><ele>37.74</ele><time>2026-08-30T21:20:15Z</time></trkpt><trkpt lat="59.4838666543" lon="31.0590252746"><ele>38.45</ele><time>2026-08-30T21:20:39Z</time></trkpt><trkpt lat="59.4838237390" lon="31.0590397753"><ele>37.79</ele><time>2026-08-30T21:21:11Z</time></trkpt><trkpt lat="59.4838541653" lon="31.0590708721"><ele>37.74</ele><time>2026-08-30T21:21:45Z</time></trkpt><trkpt lat="59.4838096574" lon="31.0591010470"><ele>38.00</ele><time>2026-08-30T21:22:05Z</time></trkpt><trkpt lat="59.4838013593" lon="31.0591270309"><ele>38.32</ele><time>2026-08-30T21:22:27Z</time></trkpt><trkpt lat="59.4838317018" lon="31.0593343154"><ele>37.18</ele><time>2026-08-30T21:22:48Z</time></trkpt><trkpt lat="59.4837970845" lon="31.0596182104"><ele>37.96</ele><time>2026-08-30T21:23:11Z</time></trkpt><trkpt lat="59.4837995991" lon="31.0596743692"><ele>38.43</ele><time>2026-08-30T21:23:17Z</time></trkpt><trkpt lat="59.4837869424" lon="31.0597467888"><ele>37.92</ele><time>2026-08-30T21:23:21Z</time></trkpt><trkpt lat="59.4837678317" lon="31.0600171052"><ele>37.55</ele><time>2026-08-30T21:23:42Z</time></trkpt><trkpt lat="59.4837191328" lon="31.0602991562"><ele>37.99</ele><time>2026-08-30T21:24:01Z</time></trkpt><trkpt lat="59.4837234914" lon="31.0605171695"><ele>38.45</ele><time>2026-08-30T21:24:20Z</time></trkpt><trkpt lat="59.4836985134" lon="31.0606694687"><ele>38.42</ele><time>2026-08-30T21:24:34Z</time></trkpt><trkpt lat="59.4837071467" lon="31.0609374382"><ele>37.72</ele><time>2026-08-30T21:24:54Z</time></trkpt><trkpt lat="59.4836902991" lon="31.0610394459"><ele>38.18</ele><time>2026-08-30T21:25:09Z</time></trkpt><trkpt lat="59.4836599566" lon="31.0610928386"><ele>38.46</ele><time>2026-08-30T21:25:17Z</time></trkpt><trkpt lat="59.4835721143" lon="31.0612773243"><ele>37.19</ele><time>2026-08-30T21:25:33Z</time></trkpt><trkpt lat="59.4835509919" lon="31.0613747220"><ele>38.36</ele><time>2026-08-30T21:25:56Z</time></trkpt><trkpt lat="59.4835059810" lon="31.0614336468"><ele>38.79</ele><time>2026-08-30T21:26:35Z</time></trkpt><trkpt lat="59.4835686777" lon="31.0612372588"><ele>38.74</ele><time>2026-08-30T21:27:05Z</time></trkpt><trkpt lat="59.4835540093" lon="31.0612234287"><ele>38.95</ele><time>2026-08-30T21:27:13Z</time></trkpt><trkpt lat="59.4834910613" lon="31.0612230934"><ele>39.24</ele><time>2026-08-30T21:27:30Z</time></trkpt><trkpt lat="59.4834961742" lon="31.0611272883"><ele>38.68</ele><time>2026-08-30T21:27:48Z</time></trkpt><trkpt lat="59.4834897202" lon="31.0611064173"><ele>39.72</ele><time>2026-08-30T21:28:13Z</time></trkpt><trkpt lat="59.4834628142" lon="31.0611546133"><ele>39.18</ele><time>2026-08-30T21:28:36Z</time></trkpt><trkpt lat="59.4834297057" lon="31.0611005500"><ele>39.34</ele><time>2026-08-30T21:28:49Z</time></trkpt><trkpt lat="59.4834033027" lon="31.0610892344"><ele>40.48</ele><time>2026-08-30T21:29:05Z</time></trkpt><trkpt lat="59.4833581243" lon="31.0612774082"><ele>39.13</ele><time>2026-08-30T21:29:25Z</time></trkpt><trkpt lat="59.4833406899" lon="31.0614550207"><ele>40.31</ele><time>2026-08-30T21:29:44Z</time></trkpt><trkpt lat="59.4833316375" lon="31.0614906438"><ele>40.41</ele><time>2026-08-30T21:29:49Z</time></trkpt><trkpt lat="59.4832290430" lon="31.0615685116"><ele>40.26</ele><time>2026-08-30T21:30:11Z</time></trkpt><trkpt lat="59.4831572939" lon="31.0615419410"><ele>39.84</ele><time>2026-08-30T21:30:31Z</time></trkpt><trkpt lat="59.4830681104" lon="31.0613720398"><ele>39.41</ele><time>2026-08-30T21:30:52Z</time></trkpt><trkpt lat="59.4829951040" lon="31.0613086727"><ele>39.61</ele><time>2026-08-30T21:31:10Z</time></trkpt><trkpt lat="59.4829752389" lon="31.0613866244"><ele>39.72</ele><time>2026-08-30T21:31:25Z</time></trkpt><trkpt lat="59.4829362631" lon="31.0611809324"><ele>40.95</ele><time>2026-08-30T21:31:44Z</time></trkpt><trkpt lat="59.4828374404" lon="31.0610593110"><ele>40.64</ele><time>2026-08-30T21:32:04Z</time></trkpt><trkpt lat="59.4827257097" lon="31.0610213410"><ele>40.77</ele><time>2026-08-30T21:32:23Z</time></trkpt><trkpt lat="59.4826897513" lon="31.0609573871"><ele>40.53</ele><time>2026-08-30T21:32:40Z</time></trkpt><trkpt lat="59.4826320838" lon="31.0609106999"><ele>40.98</ele><time>2026-08-30T21:33:09Z</time></trkpt><trkpt lat="59.4826293178" lon="31.0609778389"><ele>40.26</ele><time>2026-08-30T21:33:19Z</time></trkpt><trkpt lat="59.4825447444" lon="31.0609648470"><ele>40.15</ele><time>2026-08-30T21:33:41Z</time></trkpt><trkpt lat="59.4825344346" lon="31.0609592311"><ele>40.24</ele><time>2026-08-30T21:33:46Z</time></trkpt><trkpt lat="59.4824580755" lon="31.0609526094"><ele>39.91</ele><time>2026-08-30T21:34:10Z</time></trkpt><trkpt lat="59.4824417308" lon="31.0609504301"><ele>39.92</ele><time>2026-08-30T21:34:14Z</time></trkpt><trkpt lat="59.4823561516" lon="31.0610084329"><ele>40.56</ele><time>2026-08-30T21:34:32Z</time></trkpt><trkpt lat="59.4822419062" lon="31.0610464029"><ele>40.48</ele><time>2026-08-30T21:34:52Z</time></trkpt><trkpt lat="59.4821894355" lon="31.0611600615"><ele>40.29</ele><time>2026-08-30T21:35:16Z</time></trkpt><trkpt lat="59.4821676426" lon="31.0612049885"><ele>40.12</ele><time>2026-08-30T21:35:20Z</time></trkpt><trkpt lat="59.4821623620" lon="31.0613491572"><ele>40.16</ele><time>2026-08-30T21:35:39Z</time></trkpt><trkpt lat="59.4821556564" lon="31.0613546893"><ele>40.27</ele><time>2026-08-30T21:36:07Z</time></trkpt><trkpt lat="59.4821866695" lon="31.0613575391"><ele>39.51</ele><time>2026-08-30T21:36:38Z</time></trkpt><trkpt lat="59.4821844902" lon="31.0613085050"><ele>39.71</ele><time>2026-08-30T21:37:10Z</time></trkpt><trkpt lat="59.4821877591" lon="31.0612803418"><ele>41.06</ele><time>2026-08-30T21:37:23Z</time></trkpt><trkpt lat="59.4822051097" lon="31.0613329802"><ele>40.72</ele><time>2026-08-30T21:37:47Z</time></trkpt><trkpt lat="59.4822551496" lon="31.0613106843"><ele>41.90</ele><time>2026-08-30T21:38:15Z</time></trkpt><trkpt lat="59.4822165929" lon="31.0612528492"><ele>41.70</ele><time>2026-08-30T21:38:43Z</time></trkpt><trkpt lat="59.4822029304" lon="31.0613118578"><ele>41.04</ele><time>2026-08-30T21:39:32Z</time></trkpt><trkpt lat="59.4821718335" lon="31.0613686871"><ele>42.01</ele><time>2026-08-30T21:39:56Z</time></trkpt><trkpt lat="59.4821465202" lon="31.0613616463"><ele>42.47</ele><time>2026-08-30T21:40:25Z</time></trkpt><trkpt lat="59.4821356237" lon="31.0613464750"><ele>41.67</ele><time>2026-08-30T21:40:53Z</time></trkpt><trkpt lat="59.4821647089" lon="31.0612926632"><ele>42.35</ele><time>2026-08-30T21:41:39Z</time></trkpt><trkpt lat="59.4821792096" lon="31.0612898972"><ele>42.69</ele><time>2026-08-30T21:41:45Z</time></trkpt><trkpt lat="59.4821826462" lon="31.0611880571"><ele>42.38</ele><time>2026-08-30T21:42:08Z</time></trkpt><trkpt lat="59.4821646251" lon="31.0611521825"><ele>42.30</ele><time>2026-08-30T21:42:15Z</time></trkpt><trkpt lat="59.4821455982" lon="31.0611196607"><ele>43.76</ele><time>2026-08-30T21:42:24Z</time></trkpt><trkpt lat="59.4821660500" lon="31.0609407909"><ele>43.80</ele><time>2026-08-30T21:42:43Z</time></trkpt><trkpt lat="59.4821936265" lon="31.0607236158"><ele>43.53</ele><time>2026-08-30T21:43:07Z</time></trkpt><trkpt lat="59.4822918624" lon="31.0605381243"><ele>43.66</ele><time>2026-08-30T21:43:27Z</time></trkpt><trkpt lat="59.4823090453" lon="31.0605035070"><ele>42.29</ele><time>2026-08-30T21:43:31Z</time></trkpt><trkpt lat="59.4823050220" lon="31.0604429059"><ele>43.75</ele><time>2026-08-30T21:43:36Z</time></trkpt><trkpt lat="59.4822668843" lon="31.0601637047"><ele>44.40</ele><time>2026-08-30T21:43:59Z</time></trkpt><trkpt lat="59.4823214505" lon="31.0598909575"><ele>43.76</ele><time>2026-08-30T21:44:22Z</time></trkpt><trkpt lat="59.4823014177" lon="31.0596469603"><ele>43.94</ele><time>2026-08-30T21:44:45Z</time></trkpt><trkpt lat="59.4823701493" lon="31.0594630614"><ele>43.09</ele><time>2026-08-30T21:45:02Z</time></trkpt><trkpt lat="59.4823769387" lon="31.0594325513"><ele>43.82</ele><time>2026-08-30T21:45:25Z</time></trkpt><trkpt lat="59.4823729154" lon="31.0594558530"><ele>43.60</ele><time>2026-08-30T21:45:52Z</time></trkpt><trkpt lat="59.4823162537" lon="31.0593902227"><ele>44.29</ele><time>2026-08-30T21:46:12Z</time></trkpt><trkpt lat="59.4823782798" lon="31.0593312979"><ele>43.43</ele><time>2026-08-30T21:46:27Z</time></trkpt><trkpt lat="59.4824175071" lon="31.0591678508"><ele>43.85</ele><time>2026-08-30T21:46:45Z</time></trkpt><trkpt lat="59.4824035931" lon="31.0590100195"><ele>44.40</ele><time>2026-08-30T21:47:03Z</time></trkpt><trkpt lat="59.4824003242" lon="31.0589527711"><ele>43.86</ele><time>2026-08-30T21:47:07Z</time></trkpt><trkpt lat="59.4824019168" lon="31.0589017253"><ele>43.86</ele><time>2026-08-30T21:47:11Z</time></trkpt><trkpt lat="59.4824491069" lon="31.0586863942"><ele>43.92</ele><time>2026-08-30T21:47:35Z</time></trkpt><trkpt lat="59.4824973028" lon="31.0586441495"><ele>43.90</ele><time>2026-08-30T21:47:50Z</time></trkpt><trkpt lat="59.4824903458" lon="31.0585206840"><ele>44.32</ele><time>2026-08-30T21:48:09Z</time></trkpt><trkpt lat="59.4824970514" lon="31.0583032575"><ele>44.19</ele><time>2026-08-30T21:48:32Z</time></trkpt><trkpt lat="59.4825147372" lon="31.0581292491"><ele>43.65</ele><time>2026-08-30T21:48:49Z</time></trkpt><trkpt lat="59.4825269748" lon="31.0578399058"><ele>43.85</ele><time>2026-08-30T21:49:10Z</time></trkpt><trkpt lat="59.4825571496" lon="31.0576196294"><ele>44.47</ele><time>2026-08-30T21:49:32Z</time></trkpt><trkpt lat="59.4825974666" lon="31.0573804099"><ele>43.69</ele><time>2026-08-30T21:49:52Z</time></trkpt><trkpt lat="59.4826148171" lon="31.0573884565"><ele>43.98</ele><time>2026-08-30T21:50:22Z</time></trkpt><trkpt lat="59.4825707283" lon="31.0574048012"><ele>44.06</ele><time>2026-08-30T21:50:54Z</time></trkpt><trkpt lat="59.4825874921" lon="31.0572645720"><ele>44.26</ele><time>2026-08-30T21:51:30Z</time></trkpt><trkpt lat="59.4826291502" lon="31.0571807530"><ele>44.22</ele><time>2026-08-30T21:51:47Z</time></trkpt><trkpt lat="59.4826327544" lon="31.0571832675"><ele>43.71</ele><time>2026-08-30T21:52:13Z</time></trkpt><trkpt lat="59.4826480933" lon="31.0572026297"><ele>43.81</ele><time>2026-08-30T21:52:44Z</time></trkpt><trkpt lat="59.4826664496" lon="31.0571101774"><ele>44.52</ele><time>2026-08-30T21:53:13Z</time></trkpt><trkpt lat="59.4826708082" lon="31.0568239354"><ele>44.14</ele><time>2026-08-30T21:53:37Z</time></trkpt><trkpt lat="59.4826591574" lon="31.0566086043"><ele>44.30</ele><time>2026-08-30T21:53:59Z</time></trkpt><trkpt lat="59.4826586545" lon="31.0565377772"><ele>44.73</ele><time>2026-08-30T21:54:03Z</time></trkpt><trkpt lat="59.4826711435" lon="31.0564169940"><ele>44.75</ele><time>2026-08-30T21:54:19Z</time></trkpt><trkpt lat="59.4826760050" lon="31.0560835619"><ele>44.71</ele><time>2026-08-30T21:54:38Z</time></trkpt><trkpt lat="59.4826926012" lon="31.0557091422"><ele>45.25</ele><time>2026-08-30T21:55:02Z</time></trkpt><trkpt lat="59.4827655237" lon="31.0554806516"><ele>44.93</ele><time>2026-08-30T21:55:21Z</time></trkpt><trkpt lat="59.4828431401" lon="31.0552073177"><ele>43.85</ele><time>2026-08-30T21:55:44Z</time></trkpt><trkpt lat="59.4828425534" lon="31.0551943257"><ele>43.86</ele><time>2026-08-30T21:55:45Z</time></trkpt><trkpt lat="59.4828635082" lon="31.0551557690"><ele>45.43</ele><time>2026-08-30T21:55:50Z</time></trkpt><trkpt lat="59.4828528631" lon="31.0550496541"><ele>45.30</ele><time>2026-08-30T21:55:57Z</time></trkpt><trkpt lat="59.4828215148" lon="31.0550100077"><ele>45.87</ele><time>2026-08-30T21:56:22Z</time></trkpt><trkpt lat="59.4827723969" lon="31.0549651645"><ele>45.14</ele><time>2026-08-30T21:57:06Z</time></trkpt><trkpt lat="59.4828363508" lon="31.0547799245"><ele>45.36</ele><time>2026-08-30T21:57:28Z</time></trkpt><trkpt lat="59.4828646816" lon="31.0545715503"><ele>45.74</ele><time>2026-08-30T21:57:47Z</time></trkpt><trkpt lat="59.4829112012" lon="31.0543557163"><ele>44.95</ele><time>2026-08-30T21:58:09Z</time></trkpt><trkpt lat="59.4829350058" lon="31.0541520361"><ele>45.28</ele><time>2026-08-30T21:58:28Z</time></trkpt><trkpt lat="59.4829008076" lon="31.0539172590"><ele>44.50</ele><time>2026-08-30T21:58:49Z</time></trkpt><trkpt lat="59.4829428848" lon="31.0536927078"><ele>45.52</ele><time>2026-08-30T21:59:10Z</time></trkpt><trkpt lat="59.4830058329" lon="31.0534894466"><ele>44.83</ele><time>2026-08-30T21:59:28Z</time></trkpt><trkpt lat="59.4830712117" lon="31.0533559229"><ele>44.02</ele><time>2026-08-30T21:59:44Z</time></trkpt><trkpt lat="59.4830795936" lon="31.0531489737"><ele>45.67</ele><time>2026-08-30T22:00:00Z</time></trkpt><trkpt lat="59.4830633327" lon="31.0531204753"><ele>46.05</ele><time>2026-08-30T22:00:36Z</time></trkpt><trkpt lat="59.4830325712" lon="31.0530831758"><ele>46.04</ele><time>2026-08-30T22:01:20Z</time></trkpt><trkpt lat="59.4830723852" lon="31.0528727900"><ele>45.22</ele><time>2026-08-30T22:01:42Z</time></trkpt><trkpt lat="59.4831251912" lon="31.0526421200"><ele>45.99</ele><time>2026-08-30T22:02:03Z</time></trkpt><trkpt lat="59.4831442181" lon="31.0524225142"><ele>46.13</ele><time>2026-08-30T22:02:23Z</time></trkpt><trkpt lat="59.4831724651" lon="31.0522053391"><ele>45.71</ele><time>2026-08-30T22:02:41Z</time></trkpt><trkpt lat="59.4832122792" lon="31.0519187618"><ele>44.83</ele><time>2026-08-30T22:03:04Z</time></trkpt><trkpt lat="59.4832128659" lon="31.0518127307"><ele>44.03</ele><time>2026-08-30T22:03:13Z</time></trkpt><trkpt lat="59.4832189847" lon="31.0517282411"><ele>46.18</ele><time>2026-08-30T22:03:18Z</time></trkpt><trkpt lat="59.4832358323" lon="31.0514866747"><ele>45.67</ele><time>2026-08-30T22:03:36Z</time></trkpt><trkpt lat="59.4832514226" lon="31.0513357166"><ele>44.42</ele><time>2026-08-30T22:03:54Z</time></trkpt><trkpt lat="59.4832432084" lon="31.0512692481"><ele>44.63</ele><time>2026-08-30T22:04:21Z</time></trkpt><trkpt lat="59.4832579605" lon="31.0511718504"><ele>45.18</ele><time>2026-08-30T22:04:43Z</time></trkpt><trkpt lat="59.4832546916" lon="31.0511290189"><ele>44.59</ele><time>2026-08-30T22:05:09Z</time></trkpt><trkpt lat="59.4832625706" lon="31.0510117561"><ele>44.77</ele><time>2026-08-30T22:05:40Z</time></trkpt><trkpt lat="59.4833164662" lon="31.0508535057"><ele>45.18</ele><time>2026-08-30T22:06:01Z</time></trkpt><trkpt lat="59.4832835253" lon="31.0508710239"><ele>45.01</ele><time>2026-08-30T22:06:18Z</time></trkpt><trkpt lat="59.4832831901" lon="31.0508602113"><ele>45.83</ele><time>2026-08-30T22:06:38Z</time></trkpt><trkpt lat="59.4832619838" lon="31.0507981014"><ele>45.06</ele><time>2026-08-30T22:07:06Z</time></trkpt><trkpt lat="59.4832738023" lon="31.0507898033"><ele>45.20</ele><time>2026-08-30T22:07:32Z</time></trkpt><trkpt lat="59.4833234232" lon="31.0508287791"><ele>45.65</ele><time>2026-08-30T22:07:53Z</time></trkpt><trkpt lat="59.4832973555" lon="31.0507838521"><ele>45.06</ele><time>2026-08-30T22:08:11Z</time></trkpt><trkpt lat="59.4833147898" lon="31.0507586226"><ele>43.72</ele><time>2026-08-30T22:08:14Z</time></trkpt><trkpt lat="59.4833277818" lon="31.0506079160"><ele>45.86</ele><time>2026-08-30T22:08:35Z</time></trkpt><trkpt lat="59.4833240937" lon="31.0505147930"><ele>45.28</ele><time>2026-08-30T22:08:55Z</time></trkpt><trkpt lat="59.4832595531" lon="31.0502573848"><ele>45.38</ele><time>2026-08-30T22:09:15Z</time></trkpt><trkpt lat="59.4832544401" lon="31.0501728952"><ele>45.23</ele><time>2026-08-30T22:09:36Z</time></trkpt><trkpt lat="59.4832523447" lon="31.0501675308"><ele>45.62</ele><time>2026-08-30T22:09:47Z</time></trkpt><trkpt lat="59.4833582919" lon="31.0500579793"><ele>45.96</ele><time>2026-08-30T22:10:07Z</time></trkpt><trkpt lat="59.4833964296" lon="31.0498296563"><ele>45.23</ele><time>2026-08-30T22:10:27Z</time></trkpt><trkpt lat="59.4833768997" lon="31.0495341104"><ele>45.56</ele><time>2026-08-30T22:10:48Z</time></trkpt><trkpt lat="59.4834019616" lon="31.0493021831"><ele>45.83</ele><time>2026-08-30T22:11:08Z</time></trkpt><trkpt lat="59.4834595453" lon="31.0493269097"><ele>45.12</ele><time>2026-08-30T22:11:37Z</time></trkpt><trkpt lat="59.4834639039" lon="31.0492706671"><ele>46.42</ele><time>2026-08-30T22:11:52Z</time></trkpt><trkpt lat="59.4834851939" lon="31.0491870996"><ele>45.68</ele><time>2026-08-30T22:12:20Z</time></trkpt><trkpt lat="59.4834691007" lon="31.0491014365"><ele>46.10</ele><time>2026-08-30T22:12:30Z</time></trkpt><trkpt lat="59.4834533427" lon="31.0489355586"><ele>46.53</ele><time>2026-08-30T22:12:48Z</time></trkpt><trkpt lat="59.4834638201" lon="31.0486338101"><ele>46.50</ele><time>2026-08-30T22:13:14Z</time></trkpt><trkpt lat="59.4834872894" lon="31.0484986100"><ele>47.33</ele><time>2026-08-30T22:13:34Z</time></trkpt><trkpt lat="59.4835092500" lon="31.0483499151"><ele>46.59</ele><time>2026-08-30T22:13:53Z</time></trkpt><trkpt lat="59.4835517462" lon="31.0481445584"><ele>47.19</ele><time>2026-08-30T22:14:14Z</time></trkpt><trkpt lat="59.4835524168" lon="31.0478747450"><ele>47.09</ele><time>2026-08-30T22:14:35Z</time></trkpt><trkpt lat="59.4835794065" lon="31.0475993156"><ele>47.42</ele><time>2026-08-30T22:14:56Z</time></trkpt><trkpt lat="59.4835912250" lon="31.0474162549"><ele>46.64</ele><time>2026-08-30T22:15:13Z</time></trkpt><trkpt lat="59.4835819211" lon="31.0473466851"><ele>47.88</ele><time>2026-08-30T22:15:27Z</time></trkpt><trkpt lat="59.4836207293" lon="31.0473417398"><ele>47.68</ele><time>2026-08-30T22:15:59Z</time></trkpt><trkpt lat="59.4835894648" lon="31.0473567434"><ele>47.66</ele><time>2026-08-30T22:16:31Z</time></trkpt><trkpt lat="59.4835839327" lon="31.0473079607"><ele>47.66</ele><time>2026-08-30T22:16:58Z</time></trkpt><trkpt lat="59.4835890457" lon="31.0472774506"><ele>46.71</ele><time>2026-08-30T22:17:03Z</time></trkpt><trkpt lat="59.4835567754" lon="31.0472939629"><ele>47.72</ele><time>2026-08-30T22:17:41Z</time></trkpt><trkpt lat="59.4835777301" lon="31.0472523049"><ele>47.06</ele><time>2026-08-30T22:18:08Z</time></trkpt><trkpt lat="59.4835823402" lon="31.0472766962"><ele>47.77</ele><time>2026-08-30T22:18:36Z</time></trkpt><trkpt lat="59.4835815858" lon="31.0472859163"><ele>47.77</ele><time>2026-08-30T22:19:05Z</time></trkpt><trkpt lat="59.4835785683" lon="31.0472506285"><ele>47.75</ele><time>2026-08-30T22:19:35Z</time></trkpt><trkpt lat="59.4836205617" lon="31.0472217109"><ele>47.70</ele><time>2026-08-30T22:20:03Z</time></trkpt><trkpt lat="59.4835693482" lon="31.0472234711"><ele>48.30</ele><time>2026-08-30T22:20:33Z</time></trkpt><trkpt lat="59.4835891295" lon="31.0473186057"><ele>48.54</ele><time>2026-08-30T22:21:08Z</time></trkpt><trkpt lat="59.4836003613" lon="31.0472517181"><ele>48.65</ele><time>2026-08-30T22:21:41Z</time></trkpt><trkpt lat="59.4835991040" lon="31.0472667217"><ele>49.84</ele><time>2026-08-30T22:22:06Z</time></trkpt><trkpt lat="59.4835946616" lon="31.0472753551"><ele>49.25</ele><time>2026-08-30T22:22:33Z</time></trkpt><trkpt lat="59.4835438672" lon="31.0472406540"><ele>49.39</ele><time>2026-08-30T22:23:10Z</time></trkpt><trkpt lat="59.4835803285" lon="31.0472388938"><ele>50.30</ele><time>2026-08-30T22:23:38Z</time></trkpt><trkpt lat="59.4836141076" lon="31.0470923781"><ele>49.90</ele><time>2026-08-30T22:23:55Z</time></trkpt><trkpt lat="59.4836495630" lon="31.0468685813"><ele>49.63</ele><time>2026-08-30T22:24:13Z</time></trkpt><trkpt lat="59.4836652372" lon="31.0466391686"><ele>50.38</ele><time>2026-08-30T22:24:31Z</time></trkpt><trkpt lat="59.4836853538" lon="31.0464693513"><ele>50.57</ele><time>2026-08-30T22:24:48Z</time></trkpt><trkpt lat="59.4836947415" lon="31.0462145414"><ele>50.63</ele><time>2026-08-30T22:25:08Z</time></trkpt><trkpt lat="59.4837217312" lon="31.0459791776"><ele>50.76</ele><time>2026-08-30T22:25:28Z</time></trkpt><trkpt lat="59.4837167859" lon="31.0457387008"><ele>50.44</ele><time>2026-08-30T22:25:52Z</time></trkpt><trkpt lat="59.4837425184" lon="31.0454818793"><ele>50.42</ele><time>2026-08-30T22:26:12Z</time></trkpt><trkpt lat="59.4837477989" lon="31.0454190150"><ele>50.54</ele><time>2026-08-30T22:26:38Z</time></trkpt><trkpt lat="59.4837711006" lon="31.0453768540"><ele>50.17</ele><time>2026-08-30T22:27:05Z</time></trkpt><trkpt lat="59.4837562647" lon="31.0453332681"><ele>49.79</ele><time>2026-08-30T22:27:10Z</time></trkpt><trkpt lat="59.4837674126" lon="31.0452091321"><ele>49.58</ele><time>2026-08-30T22:27:37Z</time></trkpt><trkpt lat="59.4837778062" lon="31.0450288374"><ele>49.73</ele><time>2026-08-30T22:27:57Z</time></trkpt><trkpt lat="59.4837738667" lon="31.0447994247"><ele>50.08</ele><time>2026-08-30T22:28:18Z</time></trkpt><trkpt lat="59.4838042930" lon="31.0446476284"><ele>49.79</ele><time>2026-08-30T22:28:30Z</time></trkpt><trkpt lat="59.4838464539" lon="31.0446025338"><ele>49.58</ele><time>2026-08-30T22:28:36Z</time></trkpt><trkpt lat="59.4838813227" lon="31.0443108436"><ele>49.91</ele><time>2026-08-30T22:29:00Z</time></trkpt><trkpt lat="59.4839076418" lon="31.0441036429"><ele>50.27</ele><time>2026-08-30T22:29:19Z</time></trkpt><trkpt lat="59.4839182869" lon="31.0438329913"><ele>49.92</ele><time>2026-08-30T22:29:40Z</time></trkpt><trkpt lat="59.4839358050" lon="31.0436914209"><ele>49.05</ele><time>2026-08-30T22:29:51Z</time></trkpt><trkpt lat="59.4839683268" lon="31.0434068553"><ele>49.63</ele><time>2026-08-30T22:30:11Z</time></trkpt><trkpt lat="59.4839648902" lon="31.0433915164"><ele>49.63</ele><time>2026-08-30T22:30:13Z</time></trkpt><trkpt lat="59.4839586038" lon="31.0433237907"><ele>49.60</ele><time>2026-08-30T22:30:19Z</time></trkpt><trkpt lat="59.4839513954" lon="31.0431517102"><ele>50.12</ele><time>2026-08-30T22:30:42Z</time></trkpt><trkpt lat="59.4839481264" lon="31.0431559850"><ele>50.73</ele><time>2026-08-30T22:30:56Z</time></trkpt><trkpt lat="59.4839483779" lon="31.0431641154"><ele>49.48</ele><time>2026-08-30T22:30:59Z</time></trkpt><trkpt lat="59.4839586876" lon="31.0432071146"><ele>49.24</ele><time>2026-08-30T22:31:26Z</time></trkpt><trkpt lat="59.4840075541" lon="31.0430725850"><ele>49.46</ele><time>2026-08-30T22:31:49Z</time></trkpt><trkpt lat="59.4840245694" lon="31.0429440066"><ele>49.20</ele><time>2026-08-30T22:32:07Z</time></trkpt><trkpt lat="59.4839852583" lon="31.0429135803"><ele>49.24</ele><time>2026-08-30T22:32:38Z</time></trkpt><trkpt lat="59.4840077218" lon="31.0427941382"><ele>49.45</ele><time>2026-08-30T22:33:03Z</time></trkpt><trkpt lat="59.4840245694" lon="31.0426564235"><ele>49.85</ele><time>2026-08-30T22:33:21Z</time></trkpt><trkpt lat="59.4840409979" lon="31.0423042998"><ele>50.01</ele><time>2026-08-30T22:33:40Z</time></trkpt><trkpt lat="59.4840781298" lon="31.0419527628"><ele>49.09</ele><time>2026-08-30T22:34:03Z</time></trkpt><trkpt lat="59.4841139205" lon="31.0416184925"><ele>49.20</ele><time>2026-08-30T22:34:24Z</time></trkpt><trkpt lat="59.4841239788" lon="31.0415834561"><ele>49.64</ele><time>2026-08-30T22:34:27Z</time></trkpt><trkpt lat="59.4841804728" lon="31.0412992258"><ele>50.06</ele><time>2026-08-30T22:34:49Z</time></trkpt><trkpt lat="59.4841564167" lon="31.0412221961"><ele>49.36</ele><time>2026-08-30T22:35:14Z</time></trkpt><trkpt lat="59.4841478672" lon="31.0411427356"><ele>49.71</ele><time>2026-08-30T22:35:44Z</time></trkpt><trkpt lat="59.4841932133" lon="31.0410423204"><ele>49.62</ele><time>2026-08-30T22:36:05Z</time></trkpt><trkpt lat="59.4842318539" lon="31.0408959724"><ele>49.50</ele><time>2026-08-30T22:36:24Z</time></trkpt><trkpt lat="59.4842471089" lon="31.0407653823"><ele>49.40</ele><time>2026-08-30T22:36:43Z</time></trkpt><trkpt lat="59.4842813071" lon="31.0405072197"><ele>49.40</ele><time>2026-08-30T22:37:01Z</time></trkpt><trkpt lat="59.4842914492" lon="31.0402806569"><ele>49.57</ele><time>2026-08-30T22:37:23Z</time></trkpt><trkpt lat="59.4842844084" lon="31.0401855223"><ele>49.08</ele><time>2026-08-30T22:37:35Z</time></trkpt><trkpt lat="59.4843135774" lon="31.0398427024"><ele>49.46</ele><time>2026-08-30T22:37:54Z</time></trkpt><trkpt lat="59.4843042735" lon="31.0396442190"><ele>49.26</ele><time>2026-08-30T22:38:14Z</time></trkpt><trkpt lat="59.4843153376" lon="31.0393661074"><ele>49.32</ele><time>2026-08-30T22:38:33Z</time></trkpt><trkpt lat="59.4843047764" lon="31.0391528718"><ele>48.09</ele><time>2026-08-30T22:38:51Z</time></trkpt><trkpt lat="59.4843186904" lon="31.0390681308"><ele>49.59</ele><time>2026-08-30T22:39:18Z</time></trkpt><trkpt lat="59.4842905272" lon="31.0390807036"><ele>48.85</ele><time>2026-08-30T22:39:52Z</time></trkpt><trkpt lat="59.4843547326" lon="31.0390268080"><ele>48.95</ele><time>2026-08-30T22:40:19Z</time></trkpt><trkpt lat="59.4843682274" lon="31.0388256423"><ele>48.98</ele><time>2026-08-30T22:40:40Z</time></trkpt><trkpt lat="59.4843644556" lon="31.0388193559"><ele>49.49</ele><time>2026-08-30T22:40:54Z</time></trkpt><trkpt lat="59.4843572471" lon="31.0387828108"><ele>49.97</ele><time>2026-08-30T22:41:24Z</time></trkpt><trkpt lat="59.4843093865" lon="31.0387526359"><ele>50.10</ele><time>2026-08-30T22:41:54Z</time></trkpt><trkpt lat="59.4841886032" lon="31.0386851616"><ele>49.16</ele><time>2026-08-30T22:42:16Z</time></trkpt><trkpt lat="59.4841186143" lon="31.0387052782"><ele>50.24</ele><time>2026-08-30T22:42:34Z</time></trkpt><trkpt lat="59.4841033593" lon="31.0388975590"><ele>49.97</ele><time>2026-08-30T22:42:51Z</time></trkpt><trkpt lat="59.4840208814" lon="31.0391919315"><ele>50.48</ele><time>2026-08-30T22:43:11Z</time></trkpt><trkpt lat="59.4840271678" lon="31.0391594097"><ele>50.19</ele><time>2026-08-30T22:43:39Z</time></trkpt><trkpt lat="59.4839696679" lon="31.0391351022"><ele>50.18</ele><time>2026-08-30T22:44:06Z</time></trkpt><trkpt lat="59.4839419238" lon="31.0391430650"><ele>49.94</ele><time>2026-08-30T22:44:39Z</time></trkpt><trkpt lat="59.4839316979" lon="31.0391770117"><ele>49.52</ele><time>2026-08-30T22:44:59Z</time></trkpt><trkpt lat="59.4838969968" lon="31.0391440708"><ele>50.18</ele><time>2026-08-30T22:45:30Z</time></trkpt><trkpt lat="59.4838785566" lon="31.0392989684"><ele>49.70</ele><time>2026-08-30T22:45:56Z</time></trkpt><trkpt lat="59.4838128425" lon="31.0394714680"><ele>50.24</ele><time>2026-08-30T22:46:17Z</time></trkpt><trkpt lat="59.4837150257" lon="31.0396223422"><ele>49.86</ele><time>2026-08-30T22:46:36Z</time></trkpt><trkpt lat="59.4836497307" lon="31.0396996234"><ele>49.88</ele><time>2026-08-30T22:46:56Z</time></trkpt><trkpt lat="59.4836406782" lon="31.0397238471"><ele>50.61</ele><time>2026-08-30T22:46:58Z</time></trkpt><trkpt lat="59.4835712761" lon="31.0399062373"><ele>49.42</ele><time>2026-08-30T22:47:22Z</time></trkpt><trkpt lat="59.4834775664" lon="31.0401369072"><ele>50.37</ele><time>2026-08-30T22:47:41Z</time></trkpt><trkpt lat="59.4834043924" lon="31.0402607918"><ele>49.33</ele><time>2026-08-30T22:47:57Z</time></trkpt><trkpt lat="59.4833131135" lon="31.0403942317"><ele>49.73</ele><time>2026-08-30T22:48:19Z</time></trkpt><trkpt lat="59.4831994548" lon="31.0405523144"><ele>49.68</ele><time>2026-08-30T22:48:40Z</time></trkpt><trkpt lat="59.4831955153" lon="31.0405534878"><ele>48.89</ele><time>2026-08-30T22:48:41Z</time></trkpt><trkpt lat="59.4831181504" lon="31.0407034401"><ele>49.04</ele><time>2026-08-30T22:49:00Z</time></trkpt><trkpt lat="59.4830739778" lon="31.0409203637"><ele>49.32</ele><time>2026-08-30T22:49:24Z</time></trkpt><trkpt lat="59.4829706289" lon="31.0411995649"><ele>49.81</ele><time>2026-08-30T22:49:46Z</time></trkpt><trkpt lat="59.4829307310" lon="31.0414593201"><ele>48.85</ele><time>2026-08-30T22:50:10Z</time></trkpt><trkpt lat="59.4829096925" lon="31.0416951869"><ele>48.41</ele><time>2026-08-30T22:50:29Z</time></trkpt><trkpt lat="59.4828380272" lon="31.0418039840"><ele>48.56</ele><time>2026-08-30T22:50:59Z</time></trkpt><trkpt lat="59.4828354288" lon="31.0418546945"><ele>48.21</ele><time>2026-08-30T22:51:33Z</time></trkpt><trkpt lat="59.4828450680" lon="31.0419458896"><ele>48.93</ele><time>2026-08-30T22:51:59Z</time></trkpt><trkpt lat="59.4828222692" lon="31.0420930758"><ele>49.03</ele><time>2026-08-30T22:52:19Z</time></trkpt><trkpt lat="59.4828447327" lon="31.0422877874"><ele>48.21</ele><time>2026-08-30T22:52:43Z</time></trkpt><trkpt lat="59.4827899151" lon="31.0424001049"><ele>47.96</ele><time>2026-08-30T22:53:12Z</time></trkpt><trkpt lat="59.4827376120" lon="31.0424514860"><ele>47.92</ele><time>2026-08-30T22:53:37Z</time></trkpt><trkpt lat="59.4826998934" lon="31.0425008554"><ele>48.96</ele><time>2026-08-30T22:54:03Z</time></trkpt><trkpt lat="59.4826915953" lon="31.0426784679"><ele>48.74</ele><time>2026-08-30T22:54:23Z</time></trkpt><trkpt lat="59.4826927688" lon="31.0428383108"><ele>48.99</ele><time>2026-08-30T22:54:43Z</time></trkpt><trkpt lat="59.4826844707" lon="31.0430044401"><ele>48.14</ele><time>2026-08-30T22:55:06Z</time></trkpt><trkpt lat="59.4826382864" lon="31.0431895126"><ele>48.50</ele><time>2026-08-30T22:55:20Z</time></trkpt><trkpt lat="59.4826402981" lon="31.0434480105"><ele>48.50</ele><time>2026-08-30T22:55:40Z</time></trkpt><trkpt lat="59.4825944491" lon="31.0436263774"><ele>48.19</ele><time>2026-08-30T22:55:58Z</time></trkpt><trkpt lat="59.4825340994" lon="31.0438003018"><ele>48.25</ele><time>2026-08-30T22:56:25Z</time></trkpt><trkpt lat="59.4824851491" lon="31.0437832866"><ele>49.00</ele><time>2026-08-30T22:56:56Z</time></trkpt><trkpt lat="59.4824844785" lon="31.0438229330"><ele>48.84</ele><time>2026-08-30T22:57:26Z</time></trkpt><trkpt lat="59.4824876636" lon="31.0438133776"><ele>48.55</ele><time>2026-08-30T22:57:33Z</time></trkpt><trkpt lat="59.4824747555" lon="31.0438873060"><ele>48.35</ele><time>2026-08-30T22:58:00Z</time></trkpt><trkpt lat="59.4824745040" lon="31.0439528525"><ele>49.13</ele><time>2026-08-30T22:58:20Z</time></trkpt><trkpt lat="59.4824828021" lon="31.0440918244"><ele>48.99</ele><time>2026-08-30T22:58:37Z</time></trkpt><trkpt lat="59.4825093728" lon="31.0443616379"><ele>48.70</ele><time>2026-08-30T22:59:01Z</time></trkpt><trkpt lat="59.4825013261" lon="31.0446943156"><ele>49.21</ele><time>2026-08-30T22:59:22Z</time></trkpt><trkpt lat="59.4824332651" lon="31.0449817311"><ele>48.72</ele><time>2026-08-30T22:59:43Z</time></trkpt><trkpt lat="59.4823862426" lon="31.0451840702"><ele>49.20</ele><time>2026-08-30T23:00:00Z</time></trkpt><trkpt lat="59.4824090414" lon="31.0453854036"><ele>48.79</ele><time>2026-08-30T23:00:21Z</time></trkpt><trkpt lat="59.4823908526" lon="31.0456022434"><ele>48.10</ele><time>2026-08-30T23:00:32Z</time></trkpt><trkpt lat="59.4823543914" lon="31.0459038243"><ele>47.97</ele><time>2026-08-30T23:00:53Z</time></trkpt><trkpt lat="59.4823698979" lon="31.0460152198"><ele>48.52</ele><time>2026-08-30T23:01:22Z</time></trkpt><trkpt lat="59.4823270664" lon="31.0460795090"><ele>48.37</ele><time>2026-08-30T23:01:49Z</time></trkpt><trkpt lat="59.4823353644" lon="31.0460894834"><ele>48.14</ele><time>2026-08-30T23:02:20Z</time></trkpt><trkpt lat="59.4823530503" lon="31.0462459736"><ele>48.05</ele><time>2026-08-30T23:02:41Z</time></trkpt><trkpt lat="59.4823336881" lon="31.0464521684"><ele>48.38</ele><time>2026-08-30T23:03:05Z</time></trkpt><trkpt lat="59.4822939578" lon="31.0466581956"><ele>47.70</ele><time>2026-08-30T23:03:24Z</time></trkpt><trkpt lat="59.4823123980" lon="31.0469616205"><ele>48.62</ele><time>2026-08-30T23:03:43Z</time></trkpt><trkpt lat="59.4822901022" lon="31.0471067112"><ele>47.53</ele><time>2026-08-30T23:03:48Z</time></trkpt><trkpt lat="59.4822765235" lon="31.0471866746"><ele>48.74</ele><time>2026-08-30T23:03:52Z</time></trkpt><trkpt lat="59.4822321832" lon="31.0474020895"><ele>48.22</ele><time>2026-08-30T23:04:12Z</time></trkpt><trkpt lat="59.4821788743" lon="31.0475047678"><ele>48.29</ele><time>2026-08-30T23:04:33Z</time></trkpt><trkpt lat="59.4821764436" lon="31.0475128144"><ele>47.94</ele><time>2026-08-30T23:04:34Z</time></trkpt><trkpt lat="59.4821680617" lon="31.0475595854"><ele>48.12</ele><time>2026-08-30T23:05:01Z</time></trkpt><trkpt lat="59.4821303431" lon="31.0476754233"><ele>47.95</ele><time>2026-08-30T23:05:29Z</time></trkpt><trkpt lat="59.4821481965" lon="31.0477598291"><ele>48.34</ele><time>2026-08-30T23:05:49Z</time></trkpt><trkpt lat="59.4821331091" lon="31.0477660317"><ele>48.19</ele><time>2026-08-30T23:06:14Z</time></trkpt><trkpt lat="59.4821170997" lon="31.0478150658"><ele>47.64</ele><time>2026-08-30T23:06:35Z</time></trkpt><trkpt lat="59.4821441732" lon="31.0479834583"><ele>48.10</ele><time>2026-08-30T23:06:53Z</time></trkpt><trkpt lat="59.4821577519" lon="31.0481800977"><ele>48.70</ele><time>2026-08-30T23:07:12Z</time></trkpt><trkpt lat="59.4821206201" lon="31.0482407827"><ele>48.57</ele><time>2026-08-30T23:07:41Z</time></trkpt><trkpt lat="59.4821461849" lon="31.0482780822"><ele>48.37</ele><time>2026-08-30T23:08:10Z</time></trkpt><trkpt lat="59.4821313489" lon="31.0484244302"><ele>49.22</ele><time>2026-08-30T23:08:29Z</time></trkpt><trkpt lat="59.4821045268" lon="31.0487333033"><ele>49.81</ele><time>2026-08-30T23:08:51Z</time></trkpt><trkpt lat="59.4820742682" lon="31.0488573555"><ele>47.60</ele><time>2026-08-30T23:08:59Z</time></trkpt><trkpt lat="59.4820756093" lon="31.0489116702"><ele>48.91</ele><time>2026-08-30T23:09:04Z</time></trkpt><trkpt lat="59.4820381422" lon="31.0490954854"><ele>49.26</ele><time>2026-08-30T23:09:20Z</time></trkpt><trkpt lat="59.4820321910" lon="31.0492611956"><ele>48.66</ele><time>2026-08-30T23:09:40Z</time></trkpt><trkpt lat="59.4820024353" lon="31.0494263191"><ele>49.43</ele><time>2026-08-30T23:09:54Z</time></trkpt><trkpt lat="59.4819880184" lon="31.0496859066"><ele>49.56</ele><time>2026-08-30T23:10:14Z</time></trkpt><trkpt lat="59.4819689915" lon="31.0500152316"><ele>48.87</ele><time>2026-08-30T23:10:35Z</time></trkpt><trkpt lat="59.4819256570" lon="31.0504163057"><ele>49.27</ele><time>2026-08-30T23:10:57Z</time></trkpt><trkpt lat="59.4818907883" lon="31.0504909046"><ele>49.02</ele><time>2026-08-30T23:11:23Z</time></trkpt><trkpt lat="59.4818706717" lon="31.0505165532"><ele>48.84</ele><time>2026-08-30T23:11:54Z</time></trkpt><trkpt lat="59.4818944763" lon="31.0505711194"><ele>49.23</ele><time>2026-08-30T23:12:23Z</time></trkpt><trkpt lat="59.4818741921" lon="31.0505472310"><ele>49.05</ele><time>2026-08-30T23:12:59Z</time></trkpt><trkpt lat="59.4818678219" lon="31.0506099276"><ele>49.07</ele><time>2026-08-30T23:13:28Z</time></trkpt><trkpt lat="59.4818327855" lon="31.0507987719"><ele>49.73</ele><time>2026-08-30T23:13:49Z</time></trkpt><trkpt lat="59.4818087295" lon="31.0509515740"><ele>49.93</ele><time>2026-08-30T23:14:08Z</time></trkpt><trkpt lat="59.4818091486" lon="31.0510514025"><ele>49.14</ele><time>2026-08-30T23:14:20Z</time></trkpt><trkpt lat="59.4818264991" lon="31.0512792226"><ele>48.57</ele><time>2026-08-30T23:14:40Z</time></trkpt><trkpt lat="59.4817954022" lon="31.0515717510"><ele>49.26</ele><time>2026-08-30T23:15:00Z</time></trkpt><trkpt lat="59.4817500561" lon="31.0518135689"><ele>49.77</ele><time>2026-08-30T23:15:20Z</time></trkpt><trkpt lat="59.4817505591" lon="31.0521262139"><ele>49.21</ele><time>2026-08-30T23:15:42Z</time></trkpt><trkpt lat="59.4817514811" lon="31.0523356777"><ele>48.83</ele><time>2026-08-30T23:15:57Z</time></trkpt><trkpt lat="59.4817275926" lon="31.0524408706"><ele>49.30</ele><time>2026-08-30T23:16:04Z</time></trkpt><trkpt lat="59.4816856831" lon="31.0525793396"><ele>48.92</ele><time>2026-08-30T23:16:30Z</time></trkpt><trkpt lat="59.4817016926" lon="31.0525947623"><ele>48.42</ele><time>2026-08-30T23:17:02Z</time></trkpt><trkpt lat="59.4816848449" lon="31.0525883920"><ele>48.70</ele><time>2026-08-30T23:17:35Z</time></trkpt><trkpt lat="59.4816801511" lon="31.0525329877"><ele>48.65</ele><time>2026-08-30T23:18:12Z</time></trkpt><trkpt lat="59.4816993456" lon="31.0524959397"><ele>48.08</ele><time>2026-08-30T23:18:20Z</time></trkpt><trkpt lat="59.4817358907" lon="31.0524880607"><ele>48.47</ele><time>2026-08-30T23:18:49Z</time></trkpt><trkpt lat="59.4817117509" lon="31.0525480751"><ele>49.29</ele><time>2026-08-30T23:19:14Z</time></trkpt><trkpt lat="59.4817056321" lon="31.0525913257"><ele>48.73</ele><time>2026-08-30T23:19:19Z</time></trkpt><trkpt lat="59.4817140978" lon="31.0525772441"><ele>49.65</ele><time>2026-08-30T23:19:49Z</time></trkpt><trkpt lat="59.4815994333" lon="31.0527075827"><ele>49.63</ele><time>2026-08-30T23:20:23Z</time></trkpt><trkpt lat="59.4816292729" lon="31.0526258592"><ele>48.85</ele><time>2026-08-30T23:20:54Z</time></trkpt><trkpt lat="59.4817160256" lon="31.0527053196"><ele>49.82</ele><time>2026-08-30T23:21:29Z</time></trkpt><trkpt lat="59.4817524031" lon="31.0527327284"><ele>50.02</ele><time>2026-08-30T23:21:58Z</time></trkpt><trkpt lat="59.4817018602" lon="31.0529223271"><ele>49.64</ele><time>2026-08-30T23:22:20Z</time></trkpt><trkpt lat="59.4815949071" lon="31.0530935694"><ele>50.24</ele><time>2026-08-30T23:22:41Z</time></trkpt><trkpt lat="59.4815232418" lon="31.0532898735"><ele>50.01</ele><time>2026-08-30T23:23:03Z</time></trkpt><trkpt lat="59.4814844336" lon="31.0535381455"><ele>49.74</ele><time>2026-08-30T23:23:25Z</time></trkpt><trkpt lat="59.4814644009" lon="31.0537941288"><ele>50.26</ele><time>2026-08-30T23:23:52Z</time></trkpt><trkpt lat="59.4814486429" lon="31.0539828055"><ele>48.64</ele><time>2026-08-30T23:24:10Z</time></trkpt><trkpt lat="59.4814386684" lon="31.0540211946"><ele>50.97</ele><time>2026-08-30T23:24:15Z</time></trkpt><trkpt lat="59.4814416021" lon="31.0540808737"><ele>49.41</ele><time>2026-08-30T23:24:23Z</time></trkpt><trkpt lat="59.4814473856" lon="31.0543826222"><ele>51.49</ele><time>2026-08-30T23:24:44Z</time></trkpt><trkpt lat="59.4814204797" lon="31.0545816924"><ele>51.13</ele><time>2026-08-30T23:25:05Z</time></trkpt><trkpt lat="59.4814069010" lon="31.0547375958"><ele>51.29</ele><time>2026-08-30T23:25:22Z</time></trkpt><trkpt lat="59.4813813362" lon="31.0547679383"><ele>51.20</ele><time>2026-08-30T23:25:27Z</time></trkpt><trkpt lat="59.4813254289" lon="31.0549178906"><ele>50.86</ele><time>2026-08-30T23:25:47Z</time></trkpt><trkpt lat="59.4813387562" lon="31.0549495742"><ele>50.29</ele><time>2026-08-30T23:26:01Z</time></trkpt><trkpt lat="59.4813437015" lon="31.0549685173"><ele>52.17</ele><time>2026-08-30T23:26:04Z</time></trkpt><trkpt lat="59.4813209027" lon="31.0549666733"><ele>50.25</ele><time>2026-08-30T23:26:38Z</time></trkpt><trkpt lat="59.4813203160" lon="31.0549257696"><ele>50.73</ele><time>2026-08-30T23:27:09Z</time></trkpt><trkpt lat="59.4812535960" lon="31.0549479816"><ele>51.54</ele><time>2026-08-30T23:27:37Z</time></trkpt><trkpt lat="59.4812603854" lon="31.0548590496"><ele>51.37</ele><time>2026-08-30T23:27:58Z</time></trkpt><trkpt lat="59.4812756404" lon="31.0548950080"><ele>51.25</ele><time>2026-08-30T23:28:29Z</time></trkpt><trkpt lat="59.4812901411" lon="31.0549546871"><ele>50.93</ele><time>2026-08-30T23:29:02Z</time></trkpt><trkpt lat="59.4812699407" lon="31.0549556091"><ele>51.84</ele><time>2026-08-30T23:29:08Z</time></trkpt><trkpt lat="59.4812593795" lon="31.0550202336"><ele>52.01</ele><time>2026-08-30T23:29:34Z</time></trkpt><trkpt lat="59.4812904764" lon="31.0552308708"><ele>51.43</ele><time>2026-08-30T23:29:58Z</time></trkpt><trkpt lat="59.4812512491" lon="31.0554694198"><ele>51.50</ele><time>2026-08-30T23:30:20Z</time></trkpt><trkpt lat="59.4812297914" lon="31.0555794742"><ele>52.57</ele><time>2026-08-30T23:30:36Z</time></trkpt><trkpt lat="59.4812630676" lon="31.0559077933"><ele>52.17</ele><time>2026-08-30T23:31:02Z</time></trkpt><trkpt lat="59.4812617265" lon="31.0559225455"><ele>52.24</ele><time>2026-08-30T23:31:03Z</time></trkpt><trkpt lat="59.4812536798" lon="31.0561124794"><ele>52.86</ele><time>2026-08-30T23:31:27Z</time></trkpt><trkpt lat="59.4812557753" lon="31.0561280698"><ele>52.21</ele><time>2026-08-30T23:31:30Z</time></trkpt><trkpt lat="59.4811734650" lon="31.0563368630"><ele>52.29</ele><time>2026-08-30T23:31:48Z</time></trkpt><trkpt lat="59.4811672624" lon="31.0564620886"><ele>53.37</ele><time>2026-08-30T23:31:59Z</time></trkpt><trkpt lat="59.4811714534" lon="31.0566744022"><ele>52.96</ele><time>2026-08-30T23:32:20Z</time></trkpt><trkpt lat="59.4811510015" lon="31.0567575507"><ele>53.35</ele><time>2026-08-30T23:32:31Z</time></trkpt><trkpt lat="59.4811248500" lon="31.0570139531"><ele>53.27</ele><time>2026-08-30T23:32:53Z</time></trkpt><trkpt lat="59.4811895583" lon="31.0570085887"><ele>52.59</ele><time>2026-08-30T23:33:24Z</time></trkpt><trkpt lat="59.4811602216" lon="31.0569965187"><ele>53.60</ele><time>2026-08-30T23:33:45Z</time></trkpt><trkpt lat="59.4812040590" lon="31.0569760669"><ele>52.57</ele><time>2026-08-30T23:34:11Z</time></trkpt><trkpt lat="59.4811444636" lon="31.0570139531"><ele>53.61</ele><time>2026-08-30T23:34:29Z</time></trkpt><trkpt lat="59.4810637459" lon="31.0571435373"><ele>53.53</ele><time>2026-08-30T23:34:57Z</time></trkpt><trkpt lat="59.4811286218" lon="31.0572061501"><ele>53.23</ele><time>2026-08-30T23:35:25Z</time></trkpt><trkpt lat="59.4811028056" lon="31.0573692620"><ele>53.63</ele><time>2026-08-30T23:35:45Z</time></trkpt><trkpt lat="59.4810625724" lon="31.0576221440"><ele>53.34</ele><time>2026-08-30T23:36:08Z</time></trkpt><trkpt lat="59.4810654223" lon="31.0577321146"><ele>53.41</ele><time>2026-08-30T23:36:23Z</time></trkpt><trkpt lat="59.4810537715" lon="31.0579822306"><ele>53.39</ele><time>2026-08-30T23:36:49Z</time></trkpt><trkpt lat="59.4810592197" lon="31.0580334440"><ele>53.78</ele><time>2026-08-30T23:37:15Z</time></trkpt><trkpt lat="59.4811108522" lon="31.0580623616"><ele>54.34</ele><time>2026-08-30T23:37:46Z</time></trkpt><trkpt lat="59.4810757320" lon="31.0582377110"><ele>53.25</ele><time>2026-08-30T23:38:12Z</time></trkpt><trkpt lat="59.4810391031" lon="31.0582771897"><ele>50.58</ele><time>2026-08-30T23:38:15Z</time></trkpt><trkpt lat="59.4810184836" lon="31.0583179258"><ele>53.69</ele><time>2026-08-30T23:38:19Z</time></trkpt><trkpt lat="59.4810156338" lon="31.0583310015"><ele>53.52</ele><time>2026-08-30T23:38:20Z</time></trkpt><trkpt lat="59.4810007140" lon="31.0585539602"><ele>53.96</ele><time>2026-08-30T23:38:38Z</time></trkpt><trkpt lat="59.4809540268" lon="31.0588857997"><ele>54.07</ele><time>2026-08-30T23:39:00Z</time></trkpt><trkpt lat="59.4809150510" lon="31.0589861311"><ele>53.13</ele><time>2026-08-30T23:39:07Z</time></trkpt><trkpt lat="59.4809044059" lon="31.0592235066"><ele>54.41</ele><time>2026-08-30T23:39:27Z</time></trkpt><trkpt lat="59.4809181523" lon="31.0594818369"><ele>53.90</ele><time>2026-08-30T23:39:47Z</time></trkpt><trkpt lat="59.4809718803" lon="31.0596559290"><ele>53.17</ele><time>2026-08-30T23:40:07Z</time></trkpt><trkpt lat="59.4809049927" lon="31.0598829947"><ele>53.69</ele><time>2026-08-30T23:40:27Z</time></trkpt><trkpt lat="59.4808886480" lon="31.0599677358"><ele>54.29</ele><time>2026-08-30T23:40:48Z</time></trkpt><trkpt lat="59.4808846246" lon="31.0599996708"><ele>54.26</ele><time>2026-08-30T23:41:20Z</time></trkpt><trkpt lat="59.4808969460" lon="31.0601060372"><ele>54.07</ele><time>2026-08-30T23:41:43Z</time></trkpt><trkpt lat="59.4808157254" lon="31.0601982381"><ele>54.42</ele><time>2026-08-30T23:42:05Z</time></trkpt><trkpt lat="59.4808035716" lon="31.0602170136"><ele>54.07</ele><time>2026-08-30T23:42:08Z</time></trkpt><trkpt lat="59.4807876460" lon="31.0602420755"><ele>54.65</ele><time>2026-08-30T23:42:11Z</time></trkpt><trkpt lat="59.4807359297" lon="31.0603212006"><ele>53.39</ele><time>2026-08-30T23:42:31Z</time></trkpt><trkpt lat="59.4807245303" lon="31.0603447538"><ele>54.92</ele><time>2026-08-30T23:42:37Z</time></trkpt><trkpt lat="59.4807069283" lon="31.0603678040"><ele>54.99</ele><time>2026-08-30T23:42:40Z</time></trkpt><trkpt lat="59.4806556311" lon="31.0604664590"><ele>54.15</ele><time>2026-08-30T23:42:54Z</time></trkpt><trkpt lat="59.4806465786" lon="31.0605808720"><ele>54.42</ele><time>2026-08-30T23:43:14Z</time></trkpt><trkpt lat="59.4806521945" lon="31.0606293194"><ele>54.81</ele><time>2026-08-30T23:43:37Z</time></trkpt><trkpt lat="59.4806588162" lon="31.0607408825"><ele>52.46</ele><time>2026-08-30T23:43:50Z</time></trkpt><trkpt lat="59.4806590676" lon="31.0607882403"><ele>55.66</ele><time>2026-08-30T23:43:54Z</time></trkpt><trkpt lat="59.4806617498" lon="31.0607968736"><ele>55.28</ele><time>2026-08-30T23:43:55Z</time></trkpt><trkpt lat="59.4806404598" lon="31.0609891545"><ele>54.87</ele><time>2026-08-30T23:44:16Z</time></trkpt><trkpt lat="59.4805986341" lon="31.0611764900"><ele>54.31</ele><time>2026-08-30T23:44:39Z</time></trkpt><trkpt lat="59.4805371109" lon="31.0612424556"><ele>54.62</ele><time>2026-08-30T23:44:52Z</time></trkpt><trkpt lat="59.4805226102" lon="31.0613184795"><ele>54.21</ele><time>2026-08-30T23:45:00Z</time></trkpt><trkpt lat="59.4804897532" lon="31.0613866244"><ele>54.45</ele><time>2026-08-30T23:45:29Z</time></trkpt><trkpt lat="59.4804573152" lon="31.0614252649"><ele>54.92</ele><time>2026-08-30T23:46:01Z</time></trkpt><trkpt lat="59.4804636855" lon="31.0613998678"><ele>54.83</ele><time>2026-08-30T23:46:30Z</time></trkpt><trkpt lat="59.4805116300" lon="31.0614941642"><ele>55.66</ele><time>2026-08-30T23:46:54Z</time></trkpt><trkpt lat="59.4805505220" lon="31.0615110956"><ele>55.23</ele><time>2026-08-30T23:47:12Z</time></trkpt><trkpt lat="59.4806691259" lon="31.0614199005"><ele>55.06</ele><time>2026-08-30T23:47:32Z</time></trkpt><trkpt lat="59.4807094429" lon="31.0614468064"><ele>55.17</ele><time>2026-08-30T23:47:52Z</time></trkpt><trkpt lat="59.4807287212" lon="31.0614135303"><ele>55.15</ele><time>2026-08-30T23:48:19Z</time></trkpt><trkpt lat="59.4807210099" lon="31.0614122730"><ele>55.63</ele><time>2026-08-30T23:48:45Z</time></trkpt><trkpt lat="59.4807236083" lon="31.0614453815"><ele>56.35</ele><time>2026-08-30T23:49:17Z</time></trkpt><trkpt lat="59.4806542061" lon="31.0614770651"><ele>54.98</ele><time>2026-08-30T23:49:42Z</time></trkpt><trkpt lat="59.4805863127" lon="31.0615203995"><ele>55.13</ele><time>2026-08-30T23:50:01Z</time></trkpt><trkpt lat="59.4804909267" lon="31.0614975169"><ele>55.65</ele><time>2026-08-30T23:50:23Z</time></trkpt><trkpt lat="59.4804062694" lon="31.0613713693"><ele>55.59</ele><time>2026-08-30T23:50:46Z</time></trkpt><trkpt lat="59.4803564809" lon="31.0613043141"><ele>55.69</ele><time>2026-08-30T23:51:05Z</time></trkpt><trkpt lat="59.4803532958" lon="31.0612976924"><ele>54.93</ele><time>2026-08-30T23:51:07Z</time></trkpt><trkpt lat="59.4802874979" lon="31.0611842014"><ele>55.22</ele><time>2026-08-30T23:51:32Z</time></trkpt><trkpt lat="59.4801892620" lon="31.0611920804"><ele>55.34</ele><time>2026-08-30T23:51:57Z</time></trkpt><trkpt lat="59.4801850710" lon="31.0612013843"><ele>55.56</ele><time>2026-08-30T23:51:59Z</time></trkpt><trkpt lat="59.4801121484" lon="31.0613315552"><ele>55.88</ele><time>2026-08-30T23:52:21Z</time></trkpt><trkpt lat="59.4800637849" lon="31.0613840260"><ele>54.95</ele><time>2026-08-30T23:52:28Z</time></trkpt><trkpt lat="59.4800015911" lon="31.0614464711"><ele>55.49</ele><time>2026-08-30T23:52:47Z</time></trkpt><trkpt lat="59.4799348712" lon="31.0614915658"><ele>54.91</ele><time>2026-08-30T23:53:06Z</time></trkpt><trkpt lat="59.4799243100" lon="31.0615305416"><ele>55.11</ele><time>2026-08-30T23:53:15Z</time></trkpt><trkpt lat="59.4798637927" lon="31.0615446232"><ele>55.09</ele><time>2026-08-30T23:53:37Z</time></trkpt><trkpt lat="59.4797587674" lon="31.0615263507"><ele>55.58</ele><time>2026-08-30T23:54:00Z</time></trkpt><trkpt lat="59.4796862639" lon="31.0614618938"><ele>54.81</ele><time>2026-08-30T23:54:20Z</time></trkpt><trkpt lat="59.4796228968" lon="31.0614538472"><ele>56.25</ele><time>2026-08-30T23:54:42Z</time></trkpt><trkpt lat="59.4795474596" lon="31.0614450462"><ele>55.57</ele><time>2026-08-30T23:55:02Z</time></trkpt><trkpt lat="59.4795881957" lon="31.0615266860"><ele>56.29</ele><time>2026-08-30T23:55:20Z</time></trkpt><trkpt lat="59.4795645587" lon="31.0616392549"><ele>55.70</ele><time>2026-08-30T23:55:40Z</time></trkpt><trkpt lat="59.4795537461" lon="31.0616711061"><ele>56.22</ele><time>2026-08-30T23:56:07Z</time></trkpt><trkpt lat="59.4795295224" lon="31.0616912227"><ele>56.26</ele><time>2026-08-30T23:56:36Z</time></trkpt><trkpt lat="59.4795317017" lon="31.0617000237"><ele>56.51</ele><time>2026-08-30T23:57:04Z</time></trkpt><trkpt lat="59.4795328751" lon="31.0616463795"><ele>56.10</ele><time>2026-08-30T23:57:30Z</time></trkpt><trkpt lat="59.4795446098" lon="31.0616503190"><ele>55.69</ele><time>2026-08-30T23:57:57Z</time></trkpt><trkpt lat="59.4795213919" lon="31.0616535041"><ele>56.56</ele><time>2026-08-30T23:58:28Z</time></trkpt><trkpt lat="59.4795217272" lon="31.0615670029"><ele>56.89</ele><time>2026-08-30T23:58:52Z</time></trkpt><trkpt lat="59.4794612098" lon="31.0615507420"><ele>57.05</ele><time>2026-08-30T23:59:09Z</time></trkpt><trkpt lat="59.4794281013" lon="31.0615475569"><ele>55.88</ele><time>2026-08-30T23:59:17Z</time></trkpt><trkpt lat="59.4793393370" lon="31.0614877101"><ele>57.09</ele><time>2026-08-30T23:59:36Z</time></trkpt><trkpt lat="59.4793272670" lon="31.0614696890"><ele>57.73</ele><time>2026-08-30T23:59:42Z</time></trkpt><trkpt lat="59.4793115929" lon="31.0614503268"><ele>57.51</ele><time>2026-08-30T23:59:44Z</time></trkpt><trkpt lat="59.4792727008" lon="31.0614388436"><ele>57.77</ele><time>2026-08-30T23:59:49Z</time></trkpt><trkpt lat="59.4791124389" lon="31.0614588764"><ele>57.33</ele><time>2026-08-31T00:00:17Z</time></trkpt><trkpt lat="59.4790965132" lon="31.0614611395"><ele>57.55</ele><time>2026-08-31T00:00:21Z</time></trkpt><trkpt lat="59.4789956789" lon="31.0615457129"><ele>56.60</ele><time>2026-08-31T00:00:41Z</time></trkpt><trkpt lat="59.4789570384" lon="31.0615762230"><ele>55.86</ele><time>2026-08-31T00:00:55Z</time></trkpt><trkpt lat="59.4788385183" lon="31.0616310406"><ele>56.98</ele><time>2026-08-31T00:01:19Z</time></trkpt><trkpt lat="59.4787370972" lon="31.0616206471"><ele>57.13</ele><time>2026-08-31T00:01:37Z</time></trkpt><trkpt lat="59.4786439743" lon="31.0615847725"><ele>56.54</ele><time>2026-08-31T00:01:58Z</time></trkpt><trkpt lat="59.4785999693" lon="31.0615480598"><ele>57.00</ele><time>2026-08-31T00:02:10Z</time></trkpt><trkpt lat="59.4785487559" lon="31.0615304578"><ele>56.67</ele><time>2026-08-31T00:02:18Z</time></trkpt><trkpt lat="59.4784572255" lon="31.0614955053"><ele>56.45</ele><time>2026-08-31T00:02:47Z</time></trkpt><trkpt lat="59.4784675352" lon="31.0615459643"><ele>56.44</ele><time>2026-08-31T00:03:25Z</time></trkpt><trkpt lat="59.4784881547" lon="31.0615818389"><ele>56.78</ele><time>2026-08-31T00:03:54Z</time></trkpt><trkpt lat="59.4784909207" lon="31.0615387559"><ele>56.36</ele><time>2026-08-31T00:04:19Z</time></trkpt><trkpt lat="59.4784623384" lon="31.0615525860"><ele>56.87</ele><time>2026-08-31T00:04:28Z</time></trkpt><trkpt lat="59.4783025794" lon="31.0615595430"><ele>56.58</ele><time>2026-08-31T00:04:51Z</time></trkpt><trkpt lat="59.4782555569" lon="31.0615731217"><ele>56.93</ele><time>2026-08-31T00:05:01Z</time></trkpt><trkpt lat="59.4781397190" lon="31.0615295358"><ele>56.78</ele><time>2026-08-31T00:05:23Z</time></trkpt><trkpt lat="59.4780553132" lon="31.0615338106"><ele>55.94</ele><time>2026-08-31T00:05:41Z</time></trkpt><trkpt lat="59.4779956341" lon="31.0615231656"><ele>56.49</ele><time>2026-08-31T00:06:03Z</time></trkpt><trkpt lat="59.4778554887" lon="31.0615973454"><ele>56.64</ele><time>2026-08-31T00:06:26Z</time></trkpt><trkpt lat="59.4777806383" lon="31.0615802463"><ele>57.31</ele><time>2026-08-31T00:06:40Z</time></trkpt><trkpt lat="59.4776714221" lon="31.0616088286"><ele>56.63</ele><time>2026-08-31T00:07:02Z</time></trkpt><trkpt lat="59.4776588492" lon="31.0616597906"><ele>57.41</ele><time>2026-08-31T00:07:27Z</time></trkpt><trkpt lat="59.4776676502" lon="31.0616102535"><ele>56.62</ele><time>2026-08-31T00:07:55Z</time></trkpt><trkpt lat="59.4775705040" lon="31.0615832638"><ele>57.13</ele><time>2026-08-31T00:08:16Z</time></trkpt><trkpt lat="59.4774496369" lon="31.0616664961"><ele>57.90</ele><time>2026-08-31T00:08:35Z</time></trkpt><trkpt lat="59.4773301110" lon="31.0616778955"><ele>58.38</ele><time>2026-08-31T00:08:56Z</time></trkpt><trkpt lat="59.4772887044" lon="31.0616834275"><ele>57.84</ele><time>2026-08-31T00:09:06Z</time></trkpt><trkpt lat="59.4772457890" lon="31.0616674181"><ele>58.03</ele><time>2026-08-31T00:09:12Z</time></trkpt><trkpt lat="59.4772107527" lon="31.0616623890"><ele>58.05</ele><time>2026-08-31T00:09:17Z</time></trkpt><trkpt lat="59.4771794043" lon="31.0616583657"><ele>57.50</ele><time>2026-08-31T00:09:23Z</time></trkpt><trkpt lat="59.4771038834" lon="31.0616789013"><ele>58.40</ele><time>2026-08-31T00:09:33Z</time></trkpt><trkpt lat="59.4770268537" lon="31.0616431106"><ele>58.15</ele><time>2026-08-31T00:09:54Z</time></trkpt><trkpt lat="59.4770146161" lon="31.0616409313"><ele>57.96</ele><time>2026-08-31T00:09:55Z</time></trkpt><trkpt lat="59.4769328926" lon="31.0617606249"><ele>57.93</ele><time>2026-08-31T00:10:14Z</time></trkpt><trkpt lat="59.4769175537" lon="31.0617536679"><ele>58.25</ele><time>2026-08-31T00:10:33Z</time></trkpt><trkpt lat="59.4769059028" lon="31.0617770534"><ele>58.09</ele><time>2026-08-31T00:10:57Z</time></trkpt><trkpt lat="59.4769266900" lon="31.0617955774"><ele>58.32</ele><time>2026-08-31T00:11:17Z</time></trkpt><trkpt lat="59.4769017957" lon="31.0617743712"><ele>58.26</ele><time>2026-08-31T00:11:46Z</time></trkpt><trkpt lat="59.4768544380" lon="31.0615095869"><ele>57.70</ele><time>2026-08-31T00:12:07Z</time></trkpt><trkpt lat="59.4767424557" lon="31.0611334909"><ele>58.56</ele><time>2026-08-31T00:12:31Z</time></trkpt><trkpt lat="59.4766412023" lon="31.0607587360"><ele>58.12</ele><time>2026-08-31T00:12:54Z</time></trkpt><trkpt lat="59.4765383564" lon="31.0604557302"><ele>57.91</ele><time>2026-08-31T00:13:17Z</time></trkpt><trkpt lat="59.4764623325" lon="31.0601051152"><ele>57.65</ele><time>2026-08-31T00:13:37Z</time></trkpt><trkpt lat="59.4763739035" lon="31.0597562604"><ele>57.05</ele><time>2026-08-31T00:14:01Z</time></trkpt><trkpt lat="59.4762701355" lon="31.0594120156"><ele>56.62</ele><time>2026-08-31T00:14:22Z</time></trkpt><trkpt lat="59.4761338457" lon="31.0592104308"><ele>56.75</ele><time>2026-08-31T00:14:41Z</time></trkpt><trkpt lat="59.4761046767" lon="31.0592242610"><ele>56.79</ele><time>2026-08-31T00:14:49Z</time></trkpt><trkpt lat="59.4760741666" lon="31.0591762327"><ele>56.87</ele><time>2026-08-31T00:15:22Z</time></trkpt><trkpt lat="59.4761351869" lon="31.0591134522"><ele>56.44</ele><time>2026-08-31T00:15:45Z</time></trkpt><trkpt lat="59.4761687145" lon="31.0591094289"><ele>56.56</ele><time>2026-08-31T00:16:15Z</time></trkpt><trkpt lat="59.4762335066" lon="31.0590680223"><ele>56.44</ele><time>2026-08-31T00:17:19Z</time></trkpt><trkpt lat="59.4761749171" lon="31.0590692796"><ele>55.94</ele><time>2026-08-31T00:18:03Z</time></trkpt><trkpt lat="59.4762546290" lon="31.0589941777"><ele>55.83</ele><time>2026-08-31T00:18:22Z</time></trkpt><trkpt lat="59.4763222709" lon="31.0589023959"><ele>55.84</ele><time>2026-08-31T00:18:42Z</time></trkpt><trkpt lat="59.4764243625" lon="31.0590221733"><ele>56.04</ele><time>2026-08-31T00:19:03Z</time></trkpt><trkpt lat="59.4764196686" lon="31.0590987839"><ele>54.96</ele><time>2026-08-31T00:19:25Z</time></trkpt><trkpt lat="59.4764788449" lon="31.0590813495"><ele>54.78</ele><time>2026-08-31T00:19:51Z</time></trkpt><trkpt lat="59.4765253644" lon="31.0590373445"><ele>54.86</ele><time>2026-08-31T00:20:11Z</time></trkpt><trkpt lat="59.4766014721" lon="31.0589206684"><ele>54.60</ele><time>2026-08-31T00:20:25Z</time></trkpt><trkpt lat="59.4767222553" lon="31.0589445569"><ele>55.04</ele><time>2026-08-31T00:20:43Z</time></trkpt><trkpt lat="59.4767997041" lon="31.0590073373"><ele>52.97</ele><time>2026-08-31T00:20:54Z</time></trkpt><trkpt lat="59.4768272806" lon="31.0590067506"><ele>55.12</ele><time>2026-08-31T00:20:59Z</time></trkpt><trkpt lat="59.4769443758" lon="31.0589871369"><ele>54.77</ele><time>2026-08-31T00:21:15Z</time></trkpt><trkpt lat="59.4770714454" lon="31.0590160545"><ele>54.51</ele><time>2026-08-31T00:21:29Z</time></trkpt><trkpt lat="59.4771515764" lon="31.0589681100"><ele>54.00</ele><time>2026-08-31T00:21:43Z</time></trkpt><trkpt lat="59.4772581942" lon="31.0589496698"><ele>53.51</ele><time>2026-08-31T00:22:02Z</time></trkpt><trkpt lat="59.4772895426" lon="31.0588987917"><ele>53.50</ele><time>2026-08-31T00:22:25Z</time></trkpt><trkpt lat="59.4772610441" lon="31.0589503404"><ele>53.47</ele><time>2026-08-31T00:22:46Z</time></trkpt><trkpt lat="59.4773490541" lon="31.0591100994"><ele>53.61</ele><time>2026-08-31T00:23:08Z</time></trkpt><trkpt lat="59.4774604496" lon="31.0590061639"><ele>53.60</ele><time>2026-08-31T00:23:24Z</time></trkpt><trkpt lat="59.4775776286" lon="31.0590199102"><ele>53.63</ele><time>2026-08-31T00:23:45Z</time></trkpt><trkpt lat="59.4776523951" lon="31.0589169804"><ele>54.21</ele><time>2026-08-31T00:24:10Z</time></trkpt><trkpt lat="59.4776673149" lon="31.0590443853"><ele>53.45</ele><time>2026-08-31T00:24:37Z</time></trkpt><trkpt lat="59.4776820671" lon="31.0590653401"><ele>53.65</ele><time>2026-08-31T00:24:58Z</time></trkpt><trkpt lat="59.4776781276" lon="31.0590676870"><ele>53.27</ele><time>2026-08-31T00:25:03Z</time></trkpt><trkpt lat="59.4777655508" lon="31.0590115283"><ele>54.46</ele><time>2026-08-31T00:25:21Z</time></trkpt><trkpt lat="59.4778965600" lon="31.0588414595"><ele>53.93</ele><time>2026-08-31T00:25:44Z</time></trkpt><trkpt lat="59.4780114759" lon="31.0587961972"><ele>54.57</ele><time>2026-08-31T00:26:03Z</time></trkpt><trkpt lat="59.4780589174" lon="31.0588490032"><ele>54.49</ele><time>2026-08-31T00:26:24Z</time></trkpt><trkpt lat="59.4780731667" lon="31.0588844586"><ele>54.59</ele><time>2026-08-31T00:26:43Z</time></trkpt><trkpt lat="59.4781693909" lon="31.0589427967"><ele>54.35</ele><time>2026-08-31T00:27:01Z</time></trkpt><trkpt lat="59.4782476779" lon="31.0590068344"><ele>54.85</ele><time>2026-08-31T00:27:20Z</time></trkpt><trkpt lat="59.4783763401" lon="31.0590486601"><ele>55.09</ele><time>2026-08-31T00:27:38Z</time></trkpt><trkpt lat="59.4784798566" lon="31.0589430481"><ele>56.01</ele><time>2026-08-31T00:27:56Z</time></trkpt><trkpt lat="59.4785345066" lon="31.0589370131"><ele>56.14</ele><time>2026-08-31T00:28:16Z</time></trkpt><trkpt lat="59.4785822835" lon="31.0589401983"><ele>55.70</ele><time>2026-08-31T00:28:41Z</time></trkpt><trkpt lat="59.4785662740" lon="31.0588264558"><ele>55.62</ele><time>2026-08-31T00:29:11Z</time></trkpt><trkpt lat="59.4786179066" lon="31.0588447284"><ele>56.56</ele><time>2026-08-31T00:29:31Z</time></trkpt><trkpt lat="59.4786531944" lon="31.0587541200"><ele>55.03</ele><time>2026-08-31T00:29:49Z</time></trkpt><trkpt lat="59.4786977861" lon="31.0587235261"><ele>55.14</ele><time>2026-08-31T00:30:07Z</time></trkpt><trkpt lat="59.4788049068" lon="31.0587125458"><ele>55.75</ele><time>2026-08-31T00:30:27Z</time></trkpt><trkpt lat="59.4788549468" lon="31.0588091053"><ele>55.94</ele><time>2026-08-31T00:30:42Z</time></trkpt><trkpt lat="59.4789748918" lon="31.0588024836"><ele>56.17</ele><time>2026-08-31T00:31:01Z</time></trkpt><trkpt lat="59.4790833537" lon="31.0587640107"><ele>55.86</ele><time>2026-08-31T00:31:22Z</time></trkpt><trkpt lat="59.4791843556" lon="31.0587305669"><ele>56.09</ele><time>2026-08-31T00:31:41Z</time></trkpt><trkpt lat="59.4793170411" lon="31.0587309022"><ele>55.69</ele><time>2026-08-31T00:32:02Z</time></trkpt><trkpt lat="59.4794565160" lon="31.0587511864"><ele>55.68</ele><time>2026-08-31T00:32:23Z</time></trkpt><trkpt lat="59.4795469567" lon="31.0587625019"><ele>55.77</ele><time>2026-08-31T00:32:41Z</time></trkpt><trkpt lat="59.4796101563" lon="31.0587345064"><ele>56.40</ele><time>2026-08-31T00:33:00Z</time></trkpt><trkpt lat="59.4795938954" lon="31.0587263759"><ele>56.37</ele><time>2026-08-31T00:33:25Z</time></trkpt><trkpt lat="59.4795772154" lon="31.0588172358"><ele>56.52</ele><time>2026-08-31T00:33:55Z</time></trkpt><trkpt lat="59.4796565920" lon="31.0587564670"><ele>57.08</ele><time>2026-08-31T00:34:22Z</time></trkpt><trkpt lat="59.4797202107" lon="31.0585627612"><ele>57.05</ele><time>2026-08-31T00:34:40Z</time></trkpt><trkpt lat="59.4797234796" lon="31.0582648683"><ele>56.92</ele><time>2026-08-31T00:35:02Z</time></trkpt><trkpt lat="59.4797174446" lon="31.0580819752"><ele>57.69</ele><time>2026-08-31T00:35:26Z</time></trkpt><trkpt lat="59.4797000941" lon="31.0581149999"><ele>57.08</ele><time>2026-08-31T00:35:52Z</time></trkpt><trkpt lat="59.4796887785" lon="31.0581138264"><ele>57.00</ele><time>2026-08-31T00:35:57Z</time></trkpt><trkpt lat="59.4797338732" lon="31.0579224676"><ele>57.09</ele><time>2026-08-31T00:36:20Z</time></trkpt><trkpt lat="59.4797775429" lon="31.0576868523"><ele>57.40</ele><time>2026-08-31T00:36:44Z</time></trkpt><trkpt lat="59.4798016828" lon="31.0574517399"><ele>56.65</ele><time>2026-08-31T00:37:03Z</time></trkpt><trkpt lat="59.4797817338" lon="31.0573506542"><ele>57.59</ele><time>2026-08-31T00:37:12Z</time></trkpt><trkpt lat="59.4797794707" lon="31.0572944116"><ele>57.30</ele><time>2026-08-31T00:37:17Z</time></trkpt><trkpt lat="59.4797653891" lon="31.0571426153"><ele>56.70</ele><time>2026-08-31T00:37:29Z</time></trkpt><trkpt lat="59.4797584321" lon="31.0571042262"><ele>57.00</ele><time>2026-08-31T00:37:33Z</time></trkpt><trkpt lat="59.4798041135" lon="31.0568785015"><ele>57.08</ele><time>2026-08-31T00:37:57Z</time></trkpt><trkpt lat="59.4798072148" lon="31.0567645077"><ele>56.87</ele><time>2026-08-31T00:38:25Z</time></trkpt><trkpt lat="59.4798719231" lon="31.0566763300"><ele>56.98</ele><time>2026-08-31T00:38:48Z</time></trkpt><trkpt lat="59.4799443427" lon="31.0565117933"><ele>57.34</ele><time>2026-08-31T00:39:07Z</time></trkpt><trkpt lat="59.4799155090" lon="31.0563917644"><ele>57.71</ele><time>2026-08-31T00:39:22Z</time></trkpt><trkpt lat="59.4798937161" lon="31.0564449895"><ele>57.64</ele><time>2026-08-31T00:39:46Z</time></trkpt><trkpt lat="59.4798983261" lon="31.0563874897"><ele>58.13</ele><time>2026-08-31T00:40:14Z</time></trkpt><trkpt lat="59.4798692409" lon="31.0564183351"><ele>58.17</ele><time>2026-08-31T00:40:26Z</time></trkpt><trkpt lat="59.4798170216" lon="31.0563562252"><ele>57.54</ele><time>2026-08-31T00:40:54Z</time></trkpt><trkpt lat="59.4796688296" lon="31.0563055146"><ele>57.88</ele><time>2026-08-31T00:41:16Z</time></trkpt><trkpt lat="59.4795472082" lon="31.0562546365"><ele>56.88</ele><time>2026-08-31T00:41:32Z</time></trkpt><trkpt lat="59.4794434402" lon="31.0563401319"><ele>57.28</ele><time>2026-08-31T00:41:49Z</time></trkpt><trkpt lat="59.4793542568" lon="31.0562140681"><ele>57.54</ele><time>2026-08-31T00:42:07Z</time></trkpt><trkpt lat="59.4792440347" lon="31.0561929457"><ele>57.25</ele><time>2026-08-31T00:42:24Z</time></trkpt><trkpt lat="59.4791362435" lon="31.0561661236"><ele>57.40</ele><time>2026-08-31T00:42:40Z</time></trkpt><trkpt lat="59.4789852854" lon="31.0562289879"><ele>57.83</ele><time>2026-08-31T00:43:01Z</time></trkpt><trkpt lat="59.4788782485" lon="31.0562714003"><ele>57.46</ele><time>2026-08-31T00:43:19Z</time></trkpt><trkpt lat="59.4788493309" lon="31.0562636890"><ele>57.90</ele><time>2026-08-31T00:43:41Z</time></trkpt><trkpt lat="59.4788512588" lon="31.0563112982"><ele>57.54</ele><time>2026-08-31T00:44:08Z</time></trkpt><trkpt lat="59.4788298011" lon="31.0563109629"><ele>58.21</ele><time>2026-08-31T00:44:22Z</time></trkpt><trkpt lat="59.4788021408" lon="31.0562608391"><ele>57.57</ele><time>2026-08-31T00:44:32Z</time></trkpt><trkpt lat="59.4786783401" lon="31.0562078655"><ele>57.26</ele><time>2026-08-31T00:44:55Z</time></trkpt><trkpt lat="59.4785847142" lon="31.0561813787"><ele>57.37</ele><time>2026-08-31T00:45:14Z</time></trkpt><trkpt lat="59.4784905016" lon="31.0563118849"><ele>57.91</ele><time>2026-08-31T00:45:32Z</time></trkpt><trkpt lat="59.4784627575" lon="31.0563398805"><ele>56.02</ele><time>2026-08-31T00:45:37Z</time></trkpt><trkpt lat="59.4783741608" lon="31.0563811194"><ele>58.01</ele><time>2026-08-31T00:45:55Z</time></trkpt><trkpt lat="59.4782654475" lon="31.0563782696"><ele>56.88</ele><time>2026-08-31T00:46:13Z</time></trkpt><trkpt lat="59.4781798683" lon="31.0563814547"><ele>57.30</ele><time>2026-08-31T00:46:30Z</time></trkpt><trkpt lat="59.4781150762" lon="31.0563864838"><ele>57.21</ele><time>2026-08-31T00:46:40Z</time></trkpt><trkpt lat="59.4780486915" lon="31.0564227775"><ele>56.83</ele><time>2026-08-31T00:47:07Z</time></trkpt><trkpt lat="59.4778723363" lon="31.0563392937"><ele>58.32</ele><time>2026-08-31T00:47:31Z</time></trkpt><trkpt lat="59.4777925406" lon="31.0562778544"><ele>58.20</ele><time>2026-08-31T00:47:49Z</time></trkpt><trkpt lat="59.4777799677" lon="31.0562541336"><ele>58.12</ele><time>2026-08-31T00:47:56Z</time></trkpt><trkpt lat="59.4777650479" lon="31.0562928580"><ele>55.98</ele><time>2026-08-31T00:48:16Z</time></trkpt><trkpt lat="59.4777687360" lon="31.0563092027"><ele>58.12</ele><time>2026-08-31T00:48:28Z</time></trkpt><trkpt lat="59.4777943008" lon="31.0562864877"><ele>58.00</ele><time>2026-08-31T00:48:44Z</time></trkpt><trkpt lat="59.4777950551" lon="31.0562323406"><ele>57.20</ele><time>2026-08-31T00:49:11Z</time></trkpt><trkpt lat="59.4778360426" lon="31.0563015752"><ele>57.42</ele><time>2026-08-31T00:49:55Z</time></trkpt><trkpt lat="59.4778336957" lon="31.0563627630"><ele>57.47</ele><time>2026-08-31T00:50:25Z</time></trkpt><trkpt lat="59.4778311811" lon="31.0563566443"><ele>58.45</ele><time>2026-08-31T00:50:32Z</time></trkpt><trkpt lat="59.4778734259" lon="31.0563323367"><ele>57.14</ele><time>2026-08-31T00:50:47Z</time></trkpt><trkpt lat="59.4778521359" lon="31.0562747531"><ele>57.94</ele><time>2026-08-31T00:51:13Z</time></trkpt><trkpt lat="59.4777640421" lon="31.0562623478"><ele>57.12</ele><time>2026-08-31T00:51:48Z</time></trkpt><trkpt lat="59.4777766149" lon="31.0564366914"><ele>57.38</ele><time>2026-08-31T00:52:21Z</time></trkpt><trkpt lat="59.4777731784" lon="31.0564364400"><ele>57.41</ele><time>2026-08-31T00:52:24Z</time></trkpt><trkpt lat="59.4777836557" lon="31.0564804450"><ele>57.19</ele><time>2026-08-31T00:52:59Z</time></trkpt><trkpt lat="59.4777131639" lon="31.0564532876"><ele>57.38</ele><time>2026-08-31T00:53:34Z</time></trkpt><trkpt lat="59.4777171873" lon="31.0564034153"><ele>58.30</ele><time>2026-08-31T00:54:08Z</time></trkpt><trkpt lat="59.4777181093" lon="31.0564431455"><ele>57.50</ele><time>2026-08-31T00:54:10Z</time></trkpt><trkpt lat="59.4777288381" lon="31.0564100370"><ele>56.75</ele><time>2026-08-31T00:54:15Z</time></trkpt><trkpt lat="59.4777582586" lon="31.0563633498"><ele>57.19</ele><time>2026-08-31T00:54:50Z</time></trkpt><trkpt lat="59.4777606055" lon="31.0564138088"><ele>57.23</ele><time>2026-08-31T00:55:21Z</time></trkpt><trkpt lat="59.4777743518" lon="31.0563280620"><ele>57.00</ele><time>2026-08-31T00:55:45Z</time></trkpt><trkpt lat="59.4777530618" lon="31.0563357733"><ele>56.81</ele><time>2026-08-31T00:56:07Z</time></trkpt><trkpt lat="59.4777444284" lon="31.0563298222"><ele>57.47</ele><time>2026-08-31T00:56:31Z</time></trkpt><trkpt lat="59.4777632877" lon="31.0563379526"><ele>57.30</ele><time>2026-08-31T00:57:00Z</time></trkpt><trkpt lat="59.4777546544" lon="31.0563910101"><ele>57.61</ele><time>2026-08-31T00:57:19Z</time></trkpt><trkpt lat="59.4777958095" lon="31.0564019065"><ele>57.35</ele><time>2026-08-31T00:57:49Z</time></trkpt><trkpt lat="59.4777439255" lon="31.0563378688"><ele>57.93</ele><time>2026-08-31T00:58:15Z</time></trkpt><trkpt lat="59.4777765311" lon="31.0563650262"><ele>58.07</ele><time>2026-08-31T00:58:42Z</time></trkpt><trkpt lat="59.4777849969" lon="31.0563594941"><ele>57.77</ele><time>2026-08-31T00:59:06Z</time></trkpt><trkpt lat="59.4777641259" lon="31.0563257989"><ele>58.51</ele><time>2026-08-31T00:59:38Z</time></trkpt><trkpt lat="59.4777759444" lon="31.0563492682"><ele>58.08</ele><time>2026-08-31T01:00:09Z</time></trkpt><trkpt lat="59.4777958095" lon="31.0563885793"><ele>56.75</ele><time>2026-08-31T01:00:33Z</time></trkpt><trkpt lat="59.4777883496" lon="31.0563848075"><ele>58.34</ele><time>2026-08-31T01:00:38Z</time></trkpt><trkpt lat="59.4777570013" lon="31.0563128069"><ele>58.06</ele><time>2026-08-31T01:01:01Z</time></trkpt><trkpt lat="59.4777748547" lon="31.0560963023"><ele>59.07</ele><time>2026-08-31T01:01:22Z</time></trkpt><trkpt lat="59.4776980765" lon="31.0560864117"><ele>58.54</ele><time>2026-08-31T01:01:42Z</time></trkpt><trkpt lat="59.4775596913" lon="31.0561667942"><ele>58.48</ele><time>2026-08-31T01:02:02Z</time></trkpt><trkpt lat="59.4774474576" lon="31.0562753398"><ele>58.93</ele><time>2026-08-31T01:02:20Z</time></trkpt><trkpt lat="59.4773476291" lon="31.0564597417"><ele>59.30</ele><time>2026-08-31T01:02:45Z</time></trkpt><trkpt lat="59.4773002714" lon="31.0564817023"><ele>58.17</ele><time>2026-08-31T01:03:03Z</time></trkpt><trkpt lat="59.4772652350" lon="31.0564988013"><ele>58.81</ele><time>2026-08-31T01:03:32Z</time></trkpt><trkpt lat="59.4772561826" lon="31.0565931816"><ele>58.09</ele><time>2026-08-31T01:03:58Z</time></trkpt><trkpt lat="59.4772276841" lon="31.0564419720"><ele>58.79</ele><time>2026-08-31T01:04:12Z</time></trkpt><trkpt lat="59.4771206472" lon="31.0564022418"><ele>58.86</ele><time>2026-08-31T01:04:33Z</time></trkpt><trkpt lat="59.4769964274" lon="31.0564884078"><ele>58.83</ele><time>2026-08-31T01:04:53Z</time></trkpt><trkpt lat="59.4768895581" lon="31.0565387830"><ele>57.98</ele><time>2026-08-31T01:05:11Z</time></trkpt><trkpt lat="59.4767815992" lon="31.0565816145"><ele>58.16</ele><time>2026-08-31T01:05:29Z</time></trkpt><trkpt lat="59.4766552001" lon="31.0566029884"><ele>58.57</ele><time>2026-08-31T01:05:50Z</time></trkpt><trkpt lat="59.4765831158" lon="31.0565687902"><ele>58.26</ele><time>2026-08-31T01:06:06Z</time></trkpt><trkpt lat="59.4765162282" lon="31.0564482585"><ele>58.24</ele><time>2026-08-31T01:06:24Z</time></trkpt><trkpt lat="59.4765033200" lon="31.0564245377"><ele>57.40</ele><time>2026-08-31T01:06:26Z</time></trkpt><trkpt lat="59.4764100295" lon="31.0562940314"><ele>58.65</ele><time>2026-08-31T01:06:45Z</time></trkpt><trkpt lat="59.4764019828" lon="31.0562694725"><ele>58.03</ele><time>2026-08-31T01:06:48Z</time></trkpt><trkpt lat="59.4763905834" lon="31.0562184267"><ele>57.97</ele><time>2026-08-31T01:06:59Z</time></trkpt><trkpt lat="59.4763867278" lon="31.0561901797"><ele>57.88</ele><time>2026-08-31T01:07:01Z</time></trkpt><trkpt lat="59.4763621688" lon="31.0562034231"><ele>57.68</ele><time>2026-08-31T01:07:30Z</time></trkpt><trkpt lat="59.4763911702" lon="31.0562651139"><ele>58.05</ele><time>2026-08-31T01:07:53Z</time></trkpt><trkpt lat="59.4764234405" lon="31.0563019942"><ele>57.89</ele><time>2026-08-31T01:08:33Z</time></trkpt><trkpt lat="59.4764104486" lon="31.0562703945"><ele>58.19</ele><time>2026-08-31T01:09:02Z</time></trkpt><trkpt lat="59.4763341732" lon="31.0561969690"><ele>58.27</ele><time>2026-08-31T01:09:33Z</time></trkpt><trkpt lat="59.4762057625" lon="31.0563142318"><ele>57.91</ele><time>2026-08-31T01:09:52Z</time></trkpt><trkpt lat="59.4761148188" lon="31.0564176645"><ele>57.42</ele><time>2026-08-31T01:10:09Z</time></trkpt><trkpt lat="59.4759640284" lon="31.0566115379"><ele>57.80</ele><time>2026-08-31T01:10:33Z</time></trkpt><trkpt lat="59.4758983981" lon="31.0566270445"><ele>58.65</ele><time>2026-08-31T01:10:52Z</time></trkpt><trkpt lat="59.4758301694" lon="31.0566272959"><ele>58.52</ele><time>2026-08-31T01:11:24Z</time></trkpt><trkpt lat="59.4757862482" lon="31.0566024017"><ele>58.68</ele><time>2026-08-31T01:11:40Z</time></trkpt><trkpt lat="59.4757514633" lon="31.0565005615"><ele>58.57</ele><time>2026-08-31T01:12:04Z</time></trkpt><trkpt lat="59.4757471886" lon="31.0564585682"><ele>57.18</ele><time>2026-08-31T01:12:08Z</time></trkpt><trkpt lat="59.4757376332" lon="31.0564200953"><ele>58.52</ele><time>2026-08-31T01:12:13Z</time></trkpt><trkpt lat="59.4756241422" lon="31.0564201791"><ele>58.35</ele><time>2026-08-31T01:12:35Z</time></trkpt><trkpt lat="59.4755316060" lon="31.0562560614"><ele>59.17</ele><time>2026-08-31T01:12:54Z</time></trkpt><trkpt lat="59.4754921272" lon="31.0561254714"><ele>58.07</ele><time>2026-08-31T01:13:17Z</time></trkpt><trkpt lat="59.4754441828" lon="31.0560728330"><ele>58.05</ele><time>2026-08-31T01:13:47Z</time></trkpt><trkpt lat="59.4755033590" lon="31.0561188497"><ele>59.25</ele><time>2026-08-31T01:14:17Z</time></trkpt><trkpt lat="59.4754146785" lon="31.0560195241"><ele>58.51</ele><time>2026-08-31T01:14:51Z</time></trkpt><trkpt lat="59.4754546601" lon="31.0559328552"><ele>58.05</ele><time>2026-08-31T01:15:13Z</time></trkpt><trkpt lat="59.4754440151" lon="31.0558220465"><ele>56.36</ele><time>2026-08-31T01:15:29Z</time></trkpt><trkpt lat="59.4753808994" lon="31.0556685738"><ele>57.50</ele><time>2026-08-31T01:15:47Z</time></trkpt><trkpt lat="59.4753827434" lon="31.0555297695"><ele>57.33</ele><time>2026-08-31T01:16:06Z</time></trkpt><trkpt lat="59.4753800612" lon="31.0554844234"><ele>57.88</ele><time>2026-08-31T01:16:10Z</time></trkpt><trkpt lat="59.4753574301" lon="31.0553558450"><ele>57.39</ele><time>2026-08-31T01:16:19Z</time></trkpt><trkpt lat="59.4752526563" lon="31.0552377440"><ele>57.86</ele><time>2026-08-31T01:16:41Z</time></trkpt><trkpt lat="59.4751852658" lon="31.0550918989"><ele>57.17</ele><time>2026-08-31T01:17:03Z</time></trkpt><trkpt lat="59.4750773069" lon="31.0548305511"><ele>57.07</ele><time>2026-08-31T01:17:25Z</time></trkpt><trkpt lat="59.4750282727" lon="31.0547182336"><ele>57.18</ele><time>2026-08-31T01:17:39Z</time></trkpt><trkpt lat="59.4749728683" lon="31.0546889808"><ele>56.71</ele><time>2026-08-31T01:18:00Z</time></trkpt><trkpt lat="59.4750273507" lon="31.0545327421"><ele>56.59</ele><time>2026-08-31T01:18:19Z</time></trkpt><trkpt lat="59.4749770593" lon="31.0543187521"><ele>56.35</ele><time>2026-08-31T01:18:42Z</time></trkpt><trkpt lat="59.4749168772" lon="31.0542237014"><ele>57.16</ele><time>2026-08-31T01:19:07Z</time></trkpt><trkpt lat="59.4749339763" lon="31.0542429797"><ele>57.10</ele><time>2026-08-31T01:19:43Z</time></trkpt><trkpt lat="59.4749576971" lon="31.0542892478"><ele>57.00</ele><time>2026-08-31T01:20:17Z</time></trkpt><trkpt lat="59.4749648217" lon="31.0543389525"><ele>56.30</ele><time>2026-08-31T01:20:49Z</time></trkpt><trkpt lat="59.4749525003" lon="31.0542849731"><ele>56.37</ele><time>2026-08-31T01:21:21Z</time></trkpt><trkpt lat="59.4749121834" lon="31.0541699734"><ele>56.55</ele><time>2026-08-31T01:21:50Z</time></trkpt><trkpt lat="59.4749000296" lon="31.0540255532"><ele>55.47</ele><time>2026-08-31T01:22:15Z</time></trkpt><trkpt lat="59.4748877920" lon="31.0538916104"><ele>56.77</ele><time>2026-08-31T01:22:38Z</time></trkpt><trkpt lat="59.4748835173" lon="31.0537966434"><ele>56.97</ele><time>2026-08-31T01:23:08Z</time></trkpt><trkpt lat="59.4748877082" lon="31.0538287461"><ele>55.19</ele><time>2026-08-31T01:23:34Z</time></trkpt><trkpt lat="59.4749133568" lon="31.0538803786"><ele>56.51</ele><time>2026-08-31T01:23:53Z</time></trkpt><trkpt lat="59.4750052225" lon="31.0537340306"><ele>56.80</ele><time>2026-08-31T01:24:14Z</time></trkpt><trkpt lat="59.4751194678" lon="31.0536662210"><ele>56.41</ele><time>2026-08-31T01:24:34Z</time></trkpt><trkpt lat="59.4752161112" lon="31.0537498724"><ele>55.93</ele><time>2026-08-31T01:24:56Z</time></trkpt><trkpt lat="59.4753383193" lon="31.0537380539"><ele>55.90</ele><time>2026-08-31T01:25:16Z</time></trkpt><trkpt lat="59.4754171930" lon="31.0536322743"><ele>55.73</ele><time>2026-08-31T01:25:38Z</time></trkpt><trkpt lat="59.4754938874" lon="31.0536259040"><ele>56.77</ele><time>2026-08-31T01:25:59Z</time></trkpt><trkpt lat="59.4755710009" lon="31.0536896903"><ele>55.89</ele><time>2026-08-31T01:26:17Z</time></trkpt><trkpt lat="59.4756715838" lon="31.0537353717"><ele>56.17</ele><time>2026-08-31T01:26:35Z</time></trkpt><trkpt lat="59.4757034350" lon="31.0538544785"><ele>56.31</ele><time>2026-08-31T01:27:03Z</time></trkpt><trkpt lat="59.4757406507" lon="31.0538002476"><ele>56.42</ele><time>2026-08-31T01:27:33Z</time></trkpt><trkpt lat="59.4757861644" lon="31.0537950508"><ele>56.81</ele><time>2026-08-31T01:27:51Z</time></trkpt><trkpt lat="59.4758986495" lon="31.0538201127"><ele>56.82</ele><time>2026-08-31T01:28:08Z</time></trkpt><trkpt lat="59.4759662077" lon="31.0537911113"><ele>56.93</ele><time>2026-08-31T01:28:31Z</time></trkpt><trkpt lat="59.4759775233" lon="31.0537953861"><ele>56.73</ele><time>2026-08-31T01:28:35Z</time></trkpt><trkpt lat="59.4760662876" lon="31.0537576675"><ele>56.36</ele><time>2026-08-31T01:28:58Z</time></trkpt><trkpt lat="59.4761537947" lon="31.0537857469"><ele>55.76</ele><time>2026-08-31T01:29:18Z</time></trkpt><trkpt lat="59.4762567244" lon="31.0537326895"><ele>55.93</ele><time>2026-08-31T01:29:40Z</time></trkpt><trkpt lat="59.4763148110" lon="31.0536823981"><ele>56.14</ele><time>2026-08-31T01:29:52Z</time></trkpt><trkpt lat="59.4764464069" lon="31.0536800511"><ele>56.88</ele><time>2026-08-31T01:30:17Z</time></trkpt><trkpt lat="59.4765452296" lon="31.0537490342"><ele>55.73</ele><time>2026-08-31T01:30:41Z</time></trkpt><trkpt lat="59.4765780866" lon="31.0537769459"><ele>57.22</ele><time>2026-08-31T01:30:47Z</time></trkpt><trkpt lat="59.4766297191" lon="31.0537730064"><ele>56.93</ele><time>2026-08-31T01:30:55Z</time></trkpt><trkpt lat="59.4767018035" lon="31.0537022632"><ele>56.48</ele><time>2026-08-31T01:31:19Z</time></trkpt><trkpt lat="59.4767068326" lon="31.0536265746"><ele>57.09</ele><time>2026-08-31T01:31:50Z</time></trkpt><trkpt lat="59.4767122809" lon="31.0536370520"><ele>55.70</ele><time>2026-08-31T01:32:03Z</time></trkpt><trkpt lat="59.4767831080" lon="31.0537146684"><ele>57.08</ele><time>2026-08-31T01:32:25Z</time></trkpt><trkpt lat="59.4768752251" lon="31.0538123176"><ele>56.99</ele><time>2026-08-31T01:32:46Z</time></trkpt><trkpt lat="59.4769546855" lon="31.0537703242"><ele>56.35</ele><time>2026-08-31T01:33:00Z</time></trkpt><trkpt lat="59.4770669192" lon="31.0539507028"><ele>56.90</ele><time>2026-08-31T01:33:24Z</time></trkpt><trkpt lat="59.4770763069" lon="31.0539501160"><ele>56.54</ele><time>2026-08-31T01:33:27Z</time></trkpt><trkpt lat="59.4771017879" lon="31.0539300833"><ele>56.85</ele><time>2026-08-31T01:33:30Z</time></trkpt><trkpt lat="59.4771797396" lon="31.0538514610"><ele>57.12</ele><time>2026-08-31T01:33:47Z</time></trkpt><trkpt lat="59.4772664085" lon="31.0536204558"><ele>56.89</ele><time>2026-08-31T01:34:09Z</time></trkpt><trkpt lat="59.4773930591" lon="31.0535717569"><ele>57.08</ele><time>2026-08-31T01:34:37Z</time></trkpt><trkpt lat="59.4774109963" lon="31.0536973178"><ele>57.27</ele><time>2026-08-31T01:34:55Z</time></trkpt><trkpt lat="59.4774451945" lon="31.0538348649"><ele>57.14</ele><time>2026-08-31T01:35:19Z</time></trkpt><trkpt lat="59.4774780516" lon="31.0539374594"><ele>57.54</ele><time>2026-08-31T01:35:40Z</time></trkpt><trkpt lat="59.4774923846" lon="31.0539392196"><ele>57.10</ele><time>2026-08-31T01:35:42Z</time></trkpt><trkpt lat="59.4775336236" lon="31.0539673828"><ele>57.15</ele><time>2026-08-31T01:35:52Z</time></trkpt><trkpt lat="59.4776302669" lon="31.0539988987"><ele>57.71</ele><time>2026-08-31T01:36:15Z</time></trkpt><trkpt lat="59.4777306821" lon="31.0540416464"><ele>57.96</ele><time>2026-08-31T01:36:46Z</time></trkpt><trkpt lat="59.4777018484" lon="31.0539936181"><ele>57.48</ele><time>2026-08-31T01:37:15Z</time></trkpt><trkpt lat="59.4776626211" lon="31.0539235454"><ele>58.29</ele><time>2026-08-31T01:37:43Z</time></trkpt><trkpt lat="59.4776847493" lon="31.0538931191"><ele>57.88</ele><time>2026-08-31T01:38:12Z</time></trkpt><trkpt lat="59.4777459372" lon="31.0539432429"><ele>59.14</ele><time>2026-08-31T01:38:33Z</time></trkpt><trkpt lat="59.4777868409" lon="31.0539404768"><ele>58.56</ele><time>2026-08-31T01:39:01Z</time></trkpt><trkpt lat="59.4778085500" lon="31.0538171791"><ele>59.32</ele><time>2026-08-31T01:39:21Z</time></trkpt><trkpt lat="59.4778181892" lon="31.0536691546"><ele>59.39</ele><time>2026-08-31T01:39:45Z</time></trkpt><trkpt lat="59.4778222125" lon="31.0536616948"><ele>59.13</ele><time>2026-08-31T01:39:46Z</time></trkpt><trkpt lat="59.4778864179" lon="31.0534827411"><ele>59.37</ele><time>2026-08-31T01:40:06Z</time></trkpt><trkpt lat="59.4779502042" lon="31.0534618702"><ele>57.85</ele><time>2026-08-31T01:40:23Z</time></trkpt><trkpt lat="59.4780408964" lon="31.0536185279"><ele>59.77</ele><time>2026-08-31T01:40:49Z</time></trkpt><trkpt lat="59.4780966360" lon="31.0536559951"><ele>59.05</ele><time>2026-08-31T01:41:00Z</time></trkpt><trkpt lat="59.4781758450" lon="31.0536189470"><ele>60.22</ele><time>2026-08-31T01:41:09Z</time></trkpt><trkpt lat="59.4783506915" lon="31.0535661411"><ele>60.12</ele><time>2026-08-31T01:41:33Z</time></trkpt><trkpt lat="59.4783863146" lon="31.0535827372"><ele>59.60</ele><time>2026-08-31T01:41:40Z</time></trkpt><trkpt lat="59.4784975424" lon="31.0535896942"><ele>60.05</ele><time>2026-08-31T01:42:00Z</time></trkpt><trkpt lat="59.4786401186" lon="31.0536156781"><ele>60.60</ele><time>2026-08-31T01:42:23Z</time></trkpt><trkpt lat="59.4787016418" lon="31.0537232179"><ele>60.47</ele><time>2026-08-31T01:42:45Z</time></trkpt><trkpt lat="59.4786928408" lon="31.0537739284"><ele>60.30</ele><time>2026-08-31T01:42:52Z</time></trkpt><trkpt lat="59.4787383545" lon="31.0538005829"><ele>60.63</ele><time>2026-08-31T01:43:22Z</time></trkpt><trkpt lat="59.4786816090" lon="31.0538530536"><ele>60.48</ele><time>2026-08-31T01:43:58Z</time></trkpt><trkpt lat="59.4786774181" lon="31.0538585018"><ele>60.31</ele><time>2026-08-31T01:44:26Z</time></trkpt><trkpt lat="59.4786946848" lon="31.0538177658"><ele>60.71</ele><time>2026-08-31T01:44:55Z</time></trkpt><trkpt lat="59.4787542801" lon="31.0538166761"><ele>60.33</ele><time>2026-08-31T01:45:19Z</time></trkpt><trkpt lat="59.4788675196" lon="31.0537328571"><ele>60.09</ele><time>2026-08-31T01:45:43Z</time></trkpt><trkpt lat="59.4790157117" lon="31.0537236370"><ele>59.79</ele><time>2026-08-31T01:46:07Z</time></trkpt><trkpt lat="59.4790526759" lon="31.0537234694"><ele>58.64</ele><time>2026-08-31T01:46:19Z</time></trkpt><trkpt lat="59.4790732954" lon="31.0537110642"><ele>58.64</ele><time>2026-08-31T01:46:21Z</time></trkpt><trkpt lat="59.4790989440" lon="31.0537067894"><ele>60.18</ele><time>2026-08-31T01:46:24Z</time></trkpt><trkpt lat="59.4791478943" lon="31.0536891036"><ele>59.89</ele><time>2026-08-31T01:46:30Z</time></trkpt><trkpt lat="59.4791688491" lon="31.0536829848"><ele>60.48</ele><time>2026-08-31T01:46:32Z</time></trkpt><trkpt lat="59.4792304561" lon="31.0536632035"><ele>60.67</ele><time>2026-08-31T01:46:40Z</time></trkpt><trkpt lat="59.4792637322" lon="31.0536717530"><ele>60.31</ele><time>2026-08-31T01:46:47Z</time></trkpt><trkpt lat="59.4793663267" lon="31.0537128244"><ele>60.52</ele><time>2026-08-31T01:46:58Z</time></trkpt><trkpt lat="59.4795233198" lon="31.0536857508"><ele>59.62</ele><time>2026-08-31T01:47:23Z</time></trkpt><trkpt lat="59.4796160236" lon="31.0536647961"><ele>60.65</ele><time>2026-08-31T01:47:46Z</time></trkpt><trkpt lat="59.4796033669" lon="31.0536279995"><ele>59.99</ele><time>2026-08-31T01:48:12Z</time></trkpt><trkpt lat="59.4796571787" lon="31.0536332801"><ele>60.03</ele><time>2026-08-31T01:48:36Z</time></trkpt><trkpt lat="59.4797417521" lon="31.0537264869"><ele>60.36</ele><time>2026-08-31T01:48:59Z</time></trkpt><trkpt lat="59.4798585121" lon="31.0538180172"><ele>60.76</ele><time>2026-08-31T01:49:20Z</time></trkpt><trkpt lat="59.4799373019" lon="31.0537600983"><ele>59.59</ele><time>2026-08-31T01:49:40Z</time></trkpt><trkpt lat="59.4800587557" lon="31.0536782071"><ele>59.84</ele><time>2026-08-31T01:50:01Z</time></trkpt><trkpt lat="59.4801328517" lon="31.0536766145"><ele>59.90</ele><time>2026-08-31T01:50:13Z</time></trkpt><trkpt lat="59.4802196883" lon="31.0536947194"><ele>59.72</ele><time>2026-08-31T01:50:38Z</time></trkpt><trkpt lat="59.4802101329" lon="31.0537045263"><ele>58.12</ele><time>2026-08-31T01:50:59Z</time></trkpt><trkpt lat="59.4802126475" lon="31.0536742676"><ele>58.71</ele><time>2026-08-31T01:51:26Z</time></trkpt><trkpt lat="59.4802351110" lon="31.0536350403"><ele>59.46</ele><time>2026-08-31T01:51:49Z</time></trkpt><trkpt lat="59.4802688900" lon="31.0535238124"><ele>58.96</ele><time>2026-08-31T01:52:08Z</time></trkpt><trkpt lat="59.4803164992" lon="31.0533919651"><ele>58.56</ele><time>2026-08-31T01:52:26Z</time></trkpt><trkpt lat="59.4803886674" lon="31.0530961677"><ele>58.43</ele><time>2026-08-31T01:52:51Z</time></trkpt><trkpt lat="59.4803907629" lon="31.0530608799"><ele>59.47</ele><time>2026-08-31T01:52:55Z</time></trkpt><trkpt lat="59.4803796988" lon="31.0528562777"><ele>59.47</ele><time>2026-08-31T01:53:14Z</time></trkpt><trkpt lat="59.4803586602" lon="31.0526297987"><ele>58.52</ele><time>2026-08-31T01:53:35Z</time></trkpt><trkpt lat="59.4803241268" lon="31.0524075106"><ele>59.13</ele><time>2026-08-31T01:53:57Z</time></trkpt><trkpt lat="59.4803238753" lon="31.0523884837"><ele>59.59</ele><time>2026-08-31T01:53:59Z</time></trkpt><trkpt lat="59.4803090394" lon="31.0523532797"><ele>58.28</ele><time>2026-08-31T01:54:02Z</time></trkpt><trkpt lat="59.4802633580" lon="31.0522338375"><ele>58.61</ele><time>2026-08-31T01:54:27Z</time></trkpt><trkpt lat="59.4802495278" lon="31.0521532875"><ele>58.72</ele><time>2026-08-31T01:54:38Z</time></trkpt><trkpt lat="59.4802491087" lon="31.0520477593"><ele>58.56</ele><time>2026-08-31T01:54:49Z</time></trkpt><trkpt lat="59.4802664593" lon="31.0519848950"><ele>58.38</ele><time>2026-08-31T01:55:12Z</time></trkpt><trkpt lat="59.4803144876" lon="31.0519196838"><ele>57.08</ele><time>2026-08-31T01:55:29Z</time></trkpt><trkpt lat="59.4803220313" lon="31.0519442428"><ele>58.42</ele><time>2026-08-31T01:55:56Z</time></trkpt><trkpt lat="59.4803449977" lon="31.0518360324"><ele>57.48</ele><time>2026-08-31T01:56:18Z</time></trkpt><trkpt lat="59.4803691376" lon="31.0518271476"><ele>58.00</ele><time>2026-08-31T01:56:37Z</time></trkpt><trkpt lat="59.4804434851" lon="31.0516142473"><ele>57.24</ele><time>2026-08-31T01:56:59Z</time></trkpt><trkpt lat="59.4804741628" lon="31.0513870139"><ele>56.97</ele><time>2026-08-31T01:57:21Z</time></trkpt><trkpt lat="59.4804713130" lon="31.0513337888"><ele>56.66</ele><time>2026-08-31T01:57:26Z</time></trkpt><trkpt lat="59.4804694690" lon="31.0512030311"><ele>56.81</ele><time>2026-08-31T01:57:39Z</time></trkpt><trkpt lat="59.4804479275" lon="31.0509972554"><ele>56.91</ele><time>2026-08-31T01:57:54Z</time></trkpt><trkpt lat="59.4804731570" lon="31.0507011227"><ele>56.94</ele><time>2026-08-31T01:58:17Z</time></trkpt><trkpt lat="59.4805157371" lon="31.0504995380"><ele>57.07</ele><time>2026-08-31T01:58:42Z</time></trkpt><trkpt lat="59.4805383682" lon="31.0502249468"><ele>56.96</ele><time>2026-08-31T01:59:01Z</time></trkpt><trkpt lat="59.4805639330" lon="31.0500410479"><ele>56.90</ele><time>2026-08-31T01:59:20Z</time></trkpt><trkpt lat="59.4805705547" lon="31.0499987192"><ele>57.24</ele><time>2026-08-31T01:59:24Z</time></trkpt><trkpt lat="59.4806125481" lon="31.0499597434"><ele>56.61</ele><time>2026-08-31T01:59:53Z</time></trkpt><trkpt lat="59.4806057587" lon="31.0498774331"><ele>56.24</ele><time>2026-08-31T02:00:19Z</time></trkpt><trkpt lat="59.4806175772" lon="31.0496688075"><ele>56.50</ele><time>2026-08-31T02:00:42Z</time></trkpt><trkpt lat="59.4806502666" lon="31.0494629480"><ele>56.70</ele><time>2026-08-31T02:01:02Z</time></trkpt><trkpt lat="59.4806819502" lon="31.0493163485"><ele>56.77</ele><time>2026-08-31T02:01:15Z</time></trkpt><trkpt lat="59.4806861412" lon="31.0492912028"><ele>56.07</ele><time>2026-08-31T02:01:17Z</time></trkpt><trkpt lat="59.4806951098" lon="31.0489714332"><ele>56.15</ele><time>2026-08-31T02:01:40Z</time></trkpt><trkpt lat="59.4807230216" lon="31.0488239117"><ele>56.73</ele><time>2026-08-31T02:01:54Z</time></trkpt><trkpt lat="59.4806908350" lon="31.0486549325"><ele>56.30</ele><time>2026-08-31T02:02:07Z</time></trkpt><trkpt lat="59.4806854706" lon="31.0484623164"><ele>56.20</ele><time>2026-08-31T02:02:30Z</time></trkpt><trkpt lat="59.4806801900" lon="31.0481305607"><ele>56.20</ele><time>2026-08-31T02:02:54Z</time></trkpt><trkpt lat="59.4806669466" lon="31.0480132140"><ele>56.16</ele><time>2026-08-31T02:03:28Z</time></trkpt><trkpt lat="59.4806791842" lon="31.0480648465"><ele>55.97</ele><time>2026-08-31T02:03:58Z</time></trkpt><trkpt lat="59.4806657732" lon="31.0481329914"><ele>56.13</ele><time>2026-08-31T02:04:32Z</time></trkpt><trkpt lat="59.4806499314" lon="31.0481617413"><ele>56.59</ele><time>2026-08-31T02:04:33Z</time></trkpt><trkpt lat="59.4806625042" lon="31.0479252879"><ele>55.34</ele><time>2026-08-31T02:04:50Z</time></trkpt><trkpt lat="59.4807109516" lon="31.0478158202"><ele>55.86</ele><time>2026-08-31T02:05:02Z</time></trkpt><trkpt lat="59.4808185752" lon="31.0476226173"><ele>56.24</ele><time>2026-08-31T02:05:24Z</time></trkpt><trkpt lat="59.4808576349" lon="31.0473888461"><ele>56.21</ele><time>2026-08-31T02:05:41Z</time></trkpt><trkpt lat="59.4808806852" lon="31.0471171048"><ele>55.71</ele><time>2026-08-31T02:06:02Z</time></trkpt><trkpt lat="59.4808931742" lon="31.0468011070"><ele>56.13</ele><time>2026-08-31T02:06:22Z</time></trkpt><trkpt lat="59.4809459802" lon="31.0465093330"><ele>55.26</ele><time>2026-08-31T02:06:44Z</time></trkpt><trkpt lat="59.4809862971" lon="31.0463185608"><ele>55.36</ele><time>2026-08-31T02:07:03Z</time></trkpt><trkpt lat="59.4809837826" lon="31.0463028867"><ele>55.28</ele><time>2026-08-31T02:07:31Z</time></trkpt><trkpt lat="59.4809603970" lon="31.0462925769"><ele>55.10</ele><time>2026-08-31T02:08:00Z</time></trkpt><trkpt lat="59.4810005464" lon="31.0461515095"><ele>55.83</ele><time>2026-08-31T02:08:19Z</time></trkpt><trkpt lat="59.4810298830" lon="31.0459100269"><ele>55.30</ele><time>2026-08-31T02:08:38Z</time></trkpt><trkpt lat="59.4810155500" lon="31.0456338432"><ele>54.52</ele><time>2026-08-31T02:08:59Z</time></trkpt><trkpt lat="59.4810217526" lon="31.0454499442"><ele>55.76</ele><time>2026-08-31T02:09:21Z</time></trkpt><trkpt lat="59.4810814317" lon="31.0454986431"><ele>55.74</ele><time>2026-08-31T02:09:38Z</time></trkpt><trkpt lat="59.4811253529" lon="31.0455026664"><ele>55.04</ele><time>2026-08-31T02:10:00Z</time></trkpt><trkpt lat="59.4811648317" lon="31.0454171710"><ele>55.49</ele><time>2026-08-31T02:10:22Z</time></trkpt><trkpt lat="59.4811919052" lon="31.0452519637"><ele>56.30</ele><time>2026-08-31T02:10:43Z</time></trkpt><trkpt lat="59.4812292047" lon="31.0450212099"><ele>55.02</ele><time>2026-08-31T02:11:03Z</time></trkpt><trkpt lat="59.4812796637" lon="31.0448378138"><ele>55.81</ele><time>2026-08-31T02:11:21Z</time></trkpt><trkpt lat="59.4813902210" lon="31.0446032044"><ele>56.52</ele><time>2026-08-31T02:11:41Z</time></trkpt><trkpt lat="59.4814633112" lon="31.0444573592"><ele>55.62</ele><time>2026-08-31T02:11:58Z</time></trkpt><trkpt lat="59.4815739524" lon="31.0442755558"><ele>55.06</ele><time>2026-08-31T02:12:20Z</time></trkpt><trkpt lat="59.4816579390" lon="31.0442040581"><ele>54.92</ele><time>2026-08-31T02:12:42Z</time></trkpt><trkpt lat="59.4816858508" lon="31.0441657528"><ele>55.26</ele><time>2026-08-31T02:13:11Z</time></trkpt><trkpt lat="59.4816451985" lon="31.0441549402"><ele>55.03</ele><time>2026-08-31T02:13:36Z</time></trkpt><trkpt lat="59.4815891236" lon="31.0443003662"><ele>54.71</ele><time>2026-08-31T02:13:54Z</time></trkpt><trkpt lat="59.4814866129" lon="31.0445056390"><ele>54.89</ele><time>2026-08-31T02:14:13Z</time></trkpt><trkpt lat="59.4813913945" lon="31.0446688347"><ele>55.25</ele><time>2026-08-31T02:14:33Z</time></trkpt><trkpt lat="59.4812731259" lon="31.0448010173"><ele>54.84</ele><time>2026-08-31T02:14:50Z</time></trkpt><trkpt lat="59.4811930787" lon="31.0450497922"><ele>53.59</ele><time>2026-08-31T02:15:08Z</time></trkpt><trkpt lat="59.4811386801" lon="31.0452398937"><ele>53.90</ele><time>2026-08-31T02:15:24Z</time></trkpt><trkpt lat="59.4811284542" lon="31.0452787019"><ele>53.28</ele><time>2026-08-31T02:15:28Z</time></trkpt><trkpt lat="59.4810515922" lon="31.0453890916"><ele>53.70</ele><time>2026-08-31T02:15:50Z</time></trkpt><trkpt lat="59.4810007978" lon="31.0454100464"><ele>53.75</ele><time>2026-08-31T02:16:04Z</time></trkpt><trkpt lat="59.4810030609" lon="31.0454218648"><ele>53.92</ele><time>2026-08-31T02:16:27Z</time></trkpt><trkpt lat="59.4810138736" lon="31.0454627685"><ele>53.42</ele><time>2026-08-31T02:16:49Z</time></trkpt><trkpt lat="59.4809981994" lon="31.0455605015"><ele>53.22</ele><time>2026-08-31T02:17:11Z</time></trkpt><trkpt lat="59.4810003787" lon="31.0454966314"><ele>53.44</ele><time>2026-08-31T02:17:33Z</time></trkpt><trkpt lat="59.4809451420" lon="31.0453893431"><ele>53.61</ele><time>2026-08-31T02:17:52Z</time></trkpt><trkpt lat="59.4808797631" lon="31.0452895146"><ele>53.68</ele><time>2026-08-31T02:18:12Z</time></trkpt><trkpt lat="59.4808103610" lon="31.0451517161"><ele>53.49</ele><time>2026-08-31T02:18:34Z</time></trkpt><trkpt lat="59.4807491731" lon="31.0449810605"><ele>53.71</ele><time>2026-08-31T02:18:57Z</time></trkpt><trkpt lat="59.4807479996" lon="31.0449497122"><ele>53.69</ele><time>2026-08-31T02:19:00Z</time></trkpt><trkpt lat="59.4806637615" lon="31.0447182879"><ele>53.44</ele><time>2026-08-31T02:19:19Z</time></trkpt><trkpt lat="59.4806091953" lon="31.0446467903"><ele>54.20</ele><time>2026-08-31T02:19:47Z</time></trkpt><trkpt lat="59.4805870671" lon="31.0445041303"><ele>53.42</ele><time>2026-08-31T02:20:08Z</time></trkpt><trkpt lat="59.4805475045" lon="31.0445064772"><ele>53.65</ele><time>2026-08-31T02:20:35Z</time></trkpt><trkpt lat="59.4804876577" lon="31.0445461236"><ele>52.74</ele><time>2026-08-31T02:20:57Z</time></trkpt><trkpt lat="59.4804453291" lon="31.0444601253"><ele>52.93</ele><time>2026-08-31T02:21:28Z</time></trkpt><trkpt lat="59.4804132264" lon="31.0443442874"><ele>52.88</ele><time>2026-08-31T02:22:08Z</time></trkpt><trkpt lat="59.4803976361" lon="31.0441875458"><ele>53.97</ele><time>2026-08-31T02:22:29Z</time></trkpt><trkpt lat="59.4803599175" lon="31.0440727137"><ele>53.56</ele><time>2026-08-31T02:22:49Z</time></trkpt><trkpt lat="59.4802869949" lon="31.0439329874"><ele>53.54</ele><time>2026-08-31T02:23:11Z</time></trkpt><trkpt lat="59.4802819658" lon="31.0439231806"><ele>53.95</ele><time>2026-08-31T02:23:12Z</time></trkpt><trkpt lat="59.4802226219" lon="31.0438838694"><ele>53.15</ele><time>2026-08-31T02:23:26Z</time></trkpt><trkpt lat="59.4802152459" lon="31.0438592266"><ele>53.11</ele><time>2026-08-31T02:23:28Z</time></trkpt><trkpt lat="59.4801271521" lon="31.0437277146"><ele>53.18</ele><time>2026-08-31T02:23:50Z</time></trkpt><trkpt lat="59.4800906070" lon="31.0436630063"><ele>53.77</ele><time>2026-08-31T02:24:07Z</time></trkpt><trkpt lat="59.4800206181" lon="31.0435742419"><ele>53.94</ele><time>2026-08-31T02:24:30Z</time></trkpt><trkpt lat="59.4799382240" lon="31.0435810313"><ele>53.59</ele><time>2026-08-31T02:24:48Z</time></trkpt><trkpt lat="59.4799263217" lon="31.0435805283"><ele>53.24</ele><time>2026-08-31T02:25:21Z</time></trkpt><trkpt lat="59.4799471926" lon="31.0437883995"><ele>53.22</ele><time>2026-08-31T02:25:52Z</time></trkpt><trkpt lat="59.4799568318" lon="31.0438830312"><ele>53.31</ele><time>2026-08-31T02:26:10Z</time></trkpt><trkpt lat="59.4799492881" lon="31.0441246815"><ele>52.81</ele><time>2026-08-31T02:26:34Z</time></trkpt><trkpt lat="59.4799472764" lon="31.0443667509"><ele>52.86</ele><time>2026-08-31T02:26:55Z</time></trkpt><trkpt lat="59.4799164310" lon="31.0446059704"><ele>53.23</ele><time>2026-08-31T02:27:12Z</time></trkpt><trkpt lat="59.4798885193" lon="31.0447442718"><ele>53.41</ele><time>2026-08-31T02:27:29Z</time></trkpt><trkpt lat="59.4798309356" lon="31.0449678171"><ele>53.19</ele><time>2026-08-31T02:27:51Z</time></trkpt><trkpt lat="59.4798374735" lon="31.0451996606"><ele>53.19</ele><time>2026-08-31T02:28:11Z</time></trkpt><trkpt lat="59.4798269961" lon="31.0453982279"><ele>53.56</ele><time>2026-08-31T02:28:31Z</time></trkpt><trkpt lat="59.4797425903" lon="31.0455034208"><ele>53.70</ele><time>2026-08-31T02:28:52Z</time></trkpt><trkpt lat="59.4796999265" lon="31.0456402972"><ele>54.01</ele><time>2026-08-31T02:29:18Z</time></trkpt><trkpt lat="59.4796953164" lon="31.0456489306"><ele>52.31</ele><time>2026-08-31T02:29:20Z</time></trkpt><trkpt lat="59.4797565043" lon="31.0456817877"><ele>53.68</ele><time>2026-08-31T02:29:55Z</time></trkpt><trkpt lat="59.4797078054" lon="31.0456262156"><ele>53.42</ele><time>2026-08-31T02:30:25Z</time></trkpt><trkpt lat="59.4797149301" lon="31.0455382895"><ele>53.28</ele><time>2026-08-31T02:30:32Z</time></trkpt><trkpt lat="59.4797016028" lon="31.0453870799"><ele>54.03</ele><time>2026-08-31T02:30:38Z</time></trkpt><trkpt lat="59.4797228090" lon="31.0453668796"><ele>54.37</ele><time>2026-08-31T02:30:56Z</time></trkpt><trkpt lat="59.4797380641" lon="31.0457008146"><ele>54.24</ele><time>2026-08-31T02:31:16Z</time></trkpt><trkpt lat="59.4796985853" lon="31.0458676144"><ele>54.33</ele><time>2026-08-31T02:31:40Z</time></trkpt><trkpt lat="59.4796887785" lon="31.0459050816"><ele>53.81</ele><time>2026-08-31T02:32:05Z</time></trkpt><trkpt lat="59.4796562567" lon="31.0458924249"><ele>53.75</ele><time>2026-08-31T02:32:36Z</time></trkpt><trkpt lat="59.4796954002" lon="31.0459137149"><ele>53.17</ele><time>2026-08-31T02:33:09Z</time></trkpt><trkpt lat="59.4796675723" lon="31.0461978614"><ele>53.73</ele><time>2026-08-31T02:33:29Z</time></trkpt><trkpt lat="59.4796702545" lon="31.0462691914"><ele>52.71</ele><time>2026-08-31T02:33:54Z</time></trkpt><trkpt lat="59.4797119126" lon="31.0462453868"><ele>53.49</ele><time>2026-08-31T02:34:03Z</time></trkpt><trkpt lat="59.4796948973" lon="31.0462364182"><ele>53.14</ele><time>2026-08-31T02:34:34Z</time></trkpt><trkpt lat="59.4797085598" lon="31.0463187285"><ele>53.57</ele><time>2026-08-31T02:34:47Z</time></trkpt><trkpt lat="59.4796378165" lon="31.0465108417"><ele>53.69</ele><time>2026-08-31T02:35:10Z</time></trkpt><trkpt lat="59.4796308596" lon="31.0465470515"><ele>53.49</ele><time>2026-08-31T02:35:14Z</time></trkpt><trkpt lat="59.4795887824" lon="31.0468665697"><ele>53.64</ele><time>2026-08-31T02:35:36Z</time></trkpt><trkpt lat="59.4795132615" lon="31.0470271669"><ele>53.03</ele><time>2026-08-31T02:35:55Z</time></trkpt><trkpt lat="59.4794933125" lon="31.0469987523"><ele>54.19</ele><time>2026-08-31T02:36:21Z</time></trkpt><trkpt lat="59.4794928934" lon="31.0470679868"><ele>53.27</ele><time>2026-08-31T02:36:46Z</time></trkpt><trkpt lat="59.4794654846" lon="31.0470851697"><ele>53.47</ele><time>2026-08-31T02:37:16Z</time></trkpt><trkpt lat="59.4794944022" lon="31.0470808949"><ele>53.04</ele><time>2026-08-31T02:37:41Z</time></trkpt><trkpt lat="59.4795036223" lon="31.0472512152"><ele>53.30</ele><time>2026-08-31T02:38:05Z</time></trkpt><trkpt lat="59.4795373175" lon="31.0472788755"><ele>53.41</ele><time>2026-08-31T02:38:13Z</time></trkpt><trkpt lat="59.4795972481" lon="31.0473180190"><ele>52.75</ele><time>2026-08-31T02:38:24Z</time></trkpt><trkpt lat="59.4795951527" lon="31.0473779496"><ele>53.17</ele><time>2026-08-31T02:38:34Z</time></trkpt><trkpt lat="59.4795903750" lon="31.0475133173"><ele>53.59</ele><time>2026-08-31T02:38:41Z</time></trkpt><trkpt lat="59.4795281813" lon="31.0477532912"><ele>52.52</ele><time>2026-08-31T02:39:05Z</time></trkpt><trkpt lat="59.4794972520" lon="31.0478485096"><ele>53.00</ele><time>2026-08-31T02:39:28Z</time></trkpt><trkpt lat="59.4793833420" lon="31.0479687061"><ele>52.94</ele><time>2026-08-31T02:39:49Z</time></trkpt><trkpt lat="59.4792828429" lon="31.0481427982"><ele>53.10</ele><time>2026-08-31T02:40:11Z</time></trkpt><trkpt lat="59.4793167058" lon="31.0482795071"><ele>53.03</ele><time>2026-08-31T02:40:27Z</time></trkpt><trkpt lat="59.4792691804" lon="31.0486390069"><ele>52.42</ele><time>2026-08-31T02:40:49Z</time></trkpt><trkpt lat="59.4792935718" lon="31.0488895420"><ele>52.58</ele><time>2026-08-31T02:41:10Z</time></trkpt><trkpt lat="59.4792883750" lon="31.0488861054"><ele>52.73</ele><time>2026-08-31T02:41:37Z</time></trkpt><trkpt lat="59.4792960864" lon="31.0488892905"><ele>52.92</ele><time>2026-08-31T02:42:03Z</time></trkpt><trkpt lat="59.4793099165" lon="31.0488500632"><ele>52.18</ele><time>2026-08-31T02:42:32Z</time></trkpt><trkpt lat="59.4793590344" lon="31.0488034599"><ele>52.46</ele><time>2026-08-31T02:42:56Z</time></trkpt><trkpt lat="59.4792480581" lon="31.0489806533"><ele>52.62</ele><time>2026-08-31T02:43:57Z</time></trkpt><trkpt lat="59.4792402629" lon="31.0489861853"><ele>52.67</ele><time>2026-08-31T02:44:02Z</time></trkpt><trkpt lat="59.4793365709" lon="31.0487277713"><ele>52.15</ele><time>2026-08-31T02:45:35Z</time></trkpt><trkpt lat="59.4793053064" lon="31.0488876142"><ele>52.89</ele><time>2026-08-31T02:46:10Z</time></trkpt><trkpt lat="59.4793590344" lon="31.0488168709"><ele>51.95</ele><time>2026-08-31T02:47:09Z</time></trkpt><trkpt lat="59.4793187175" lon="31.0488047171"><ele>52.84</ele><time>2026-08-31T02:47:41Z</time></trkpt><trkpt lat="59.4792857766" lon="31.0487449542"><ele>52.83</ele><time>2026-08-31T02:48:40Z</time></trkpt><trkpt lat="59.4792591222" lon="31.0487502348"><ele>53.35</ele><time>2026-08-31T02:49:13Z</time></trkpt><trkpt lat="59.4792816695" lon="31.0487250891"><ele>52.26</ele><time>2026-08-31T02:49:52Z</time></trkpt><trkpt lat="59.4792610500" lon="31.0488365684"><ele>52.40</ele><time>2026-08-31T02:50:25Z</time></trkpt><trkpt lat="59.4792727847" lon="31.0488562658"><ele>52.28</ele><time>2026-08-31T02:50:42Z</time></trkpt><trkpt lat="59.4792938232" lon="31.0488060582"><ele>52.61</ele><time>2026-08-31T02:51:08Z</time></trkpt><trkpt lat="59.4794069789" lon="31.0488132667"><ele>52.20</ele><time>2026-08-31T02:51:24Z</time></trkpt><trkpt lat="59.4793179631" lon="31.0487985983"><ele>53.49</ele><time>2026-08-31T02:52:16Z</time></trkpt><trkpt lat="59.4792762212" lon="31.0487573594"><ele>52.49</ele><time>2026-08-31T02:52:48Z</time></trkpt><trkpt lat="59.4792618044" lon="31.0488099977"><ele>52.61</ele><time>2026-08-31T02:53:14Z</time></trkpt><trkpt lat="59.4793013670" lon="31.0487850197"><ele>51.83</ele><time>2026-08-31T02:53:19Z</time></trkpt><trkpt lat="59.4793291111" lon="31.0488054715"><ele>52.77</ele><time>2026-08-31T02:53:48Z</time></trkpt><trkpt lat="59.4793082401" lon="31.0487871151"><ele>51.62</ele><time>2026-08-31T02:54:41Z</time></trkpt><trkpt lat="59.4793011155" lon="31.0488579422"><ele>53.00</ele><time>2026-08-31T02:55:25Z</time></trkpt><trkpt lat="59.4792845193" lon="31.0488648154"><ele>52.50</ele><time>2026-08-31T02:55:31Z</time></trkpt><trkpt lat="59.4792744610" lon="31.0488641448"><ele>52.94</ele><time>2026-08-31T02:55:44Z</time></trkpt><trkpt lat="59.4792352337" lon="31.0489206389"><ele>52.82</ele><time>2026-08-31T02:56:13Z</time></trkpt><trkpt lat="59.4792263489" lon="31.0489568487"><ele>52.98</ele><time>2026-08-31T02:56:17Z</time></trkpt><trkpt lat="59.4792106748" lon="31.0488830879"><ele>52.64</ele><time>2026-08-31T02:56:55Z</time></trkpt><trkpt lat="59.4791327231" lon="31.0488760471"><ele>52.40</ele><time>2026-08-31T02:57:15Z</time></trkpt><trkpt lat="59.4790639076" lon="31.0490258317"><ele>52.78</ele><time>2026-08-31T02:57:36Z</time></trkpt><trkpt lat="59.4790925737" lon="31.0492372233"><ele>52.78</ele><time>2026-08-31T02:57:58Z</time></trkpt><trkpt lat="59.4791157078" lon="31.0492808092"><ele>52.90</ele><time>2026-08-31T02:58:03Z</time></trkpt><trkpt lat="59.4792079926" lon="31.0495046061"><ele>52.35</ele><time>2026-08-31T02:58:26Z</time></trkpt><trkpt lat="59.4792447053" lon="31.0496863257"><ele>52.67</ele><time>2026-08-31T02:58:46Z</time></trkpt><trkpt lat="59.4792338926" lon="31.0496917740"><ele>52.57</ele><time>2026-08-31T02:58:50Z</time></trkpt><trkpt lat="59.4791901391" lon="31.0498390440"><ele>52.37</ele><time>2026-08-31T02:59:11Z</time></trkpt><trkpt lat="59.4791896362" lon="31.0498399660"><ele>52.81</ele><time>2026-08-31T02:59:12Z</time></trkpt><trkpt lat="59.4791915640" lon="31.0500546265"><ele>52.85</ele><time>2026-08-31T02:59:33Z</time></trkpt><trkpt lat="59.4792039692" lon="31.0503599793"><ele>52.55</ele><time>2026-08-31T02:59:57Z</time></trkpt><trkpt lat="59.4791709445" lon="31.0505460575"><ele>53.67</ele><time>2026-08-31T03:00:18Z</time></trkpt><trkpt lat="59.4791525044" lon="31.0505448841"><ele>51.26</ele><time>2026-08-31T03:00:25Z</time></trkpt><trkpt lat="59.4791265205" lon="31.0506803356"><ele>53.34</ele><time>2026-08-31T03:00:46Z</time></trkpt><trkpt lat="59.4791189767" lon="31.0507587064"><ele>53.22</ele><time>2026-08-31T03:00:54Z</time></trkpt><trkpt lat="59.4790831022" lon="31.0509320442"><ele>54.37</ele><time>2026-08-31T03:01:11Z</time></trkpt><trkpt lat="59.4790108502" lon="31.0510942340"><ele>53.79</ele><time>2026-08-31T03:01:32Z</time></trkpt><trkpt lat="59.4789773226" lon="31.0511047114"><ele>53.85</ele><time>2026-08-31T03:02:04Z</time></trkpt><trkpt lat="59.4789944217" lon="31.0510707647"><ele>53.33</ele><time>2026-08-31T03:02:37Z</time></trkpt><trkpt lat="59.4789198227" lon="31.0510363989"><ele>54.36</ele><time>2026-08-31T03:03:04Z</time></trkpt><trkpt lat="59.4788830262" lon="31.0509813298"><ele>54.43</ele><time>2026-08-31T03:03:27Z</time></trkpt><trkpt lat="59.4788281247" lon="31.0510503966"><ele>54.43</ele><time>2026-08-31T03:03:39Z</time></trkpt><trkpt lat="59.4787441380" lon="31.0510558449"><ele>54.26</ele><time>2026-08-31T03:03:56Z</time></trkpt><trkpt lat="59.4786208402" lon="31.0511011910"><ele>54.79</ele><time>2026-08-31T03:04:18Z</time></trkpt><trkpt lat="59.4785187487" lon="31.0510767996"><ele>54.13</ele><time>2026-08-31T03:04:51Z</time></trkpt><trkpt lat="59.4783663657" lon="31.0511052143"><ele>54.61</ele><time>2026-08-31T03:05:16Z</time></trkpt><trkpt lat="59.4782544672" lon="31.0511234030"><ele>54.62</ele><time>2026-08-31T03:05:35Z</time></trkpt><trkpt lat="59.4781491905" lon="31.0510522407"><ele>54.84</ele><time>2026-08-31T03:05:51Z</time></trkpt><trkpt lat="59.4781400543" lon="31.0510809906"><ele>55.06</ele><time>2026-08-31T03:05:58Z</time></trkpt><trkpt lat="59.4780538045" lon="31.0511047952"><ele>54.45</ele><time>2026-08-31T03:06:21Z</time></trkpt><trkpt lat="59.4780413993" lon="31.0511065554"><ele>54.33</ele><time>2026-08-31T03:06:25Z</time></trkpt><trkpt lat="59.4779426605" lon="31.0511858482"><ele>54.43</ele><time>2026-08-31T03:06:47Z</time></trkpt><trkpt lat="59.4779402297" lon="31.0512875207"><ele>55.31</ele><time>2026-08-31T03:07:16Z</time></trkpt><trkpt lat="59.4779216219" lon="31.0512627102"><ele>53.95</ele><time>2026-08-31T03:07:45Z</time></trkpt><trkpt lat="59.4778528903" lon="31.0512321163"><ele>54.06</ele><time>2026-08-31T03:08:04Z</time></trkpt><trkpt lat="59.4778150879" lon="31.0511725210"><ele>53.26</ele><time>2026-08-31T03:08:15Z</time></trkpt><trkpt lat="59.4777894393" lon="31.0511800647"><ele>54.61</ele><time>2026-08-31T03:08:20Z</time></trkpt><trkpt lat="59.4777231384" lon="31.0511967447"><ele>54.80</ele><time>2026-08-31T03:08:38Z</time></trkpt><trkpt lat="59.4776820671" lon="31.0511768796"><ele>54.50</ele><time>2026-08-31T03:08:53Z</time></trkpt><trkpt lat="59.4776181970" lon="31.0511327069"><ele>54.51</ele><time>2026-08-31T03:09:02Z</time></trkpt><trkpt lat="59.4774775486" lon="31.0510913841"><ele>54.22</ele><time>2026-08-31T03:09:22Z</time></trkpt><trkpt lat="59.4774487987" lon="31.0511198826"><ele>54.62</ele><time>2026-08-31T03:09:32Z</time></trkpt><trkpt lat="59.4774104096" lon="31.0511335451"><ele>53.77</ele><time>2026-08-31T03:10:00Z</time></trkpt><trkpt lat="59.4773393311" lon="31.0511708446"><ele>55.86</ele><time>2026-08-31T03:10:15Z</time></trkpt><trkpt lat="59.4773227349" lon="31.0511979181"><ele>54.42</ele><time>2026-08-31T03:10:20Z</time></trkpt><trkpt lat="59.4772456214" lon="31.0512768757"><ele>54.34</ele><time>2026-08-31T03:10:40Z</time></trkpt><trkpt lat="59.4771650713" lon="31.0512670688"><ele>55.11</ele><time>2026-08-31T03:11:04Z</time></trkpt><trkpt lat="59.4771311246" lon="31.0512460303"><ele>55.01</ele><time>2026-08-31T03:11:21Z</time></trkpt><trkpt lat="59.4770233333" lon="31.0512173641"><ele>54.74</ele><time>2026-08-31T03:11:40Z</time></trkpt><trkpt lat="59.4769435376" lon="31.0511929728"><ele>54.94</ele><time>2026-08-31T03:11:57Z</time></trkpt><trkpt lat="59.4768983591" lon="31.0511325393"><ele>54.64</ele><time>2026-08-31T03:12:18Z</time></trkpt><trkpt lat="59.4768930785" lon="31.0511192959"><ele>55.89</ele><time>2026-08-31T03:12:21Z</time></trkpt><trkpt lat="59.4768451340" lon="31.0510100797"><ele>56.16</ele><time>2026-08-31T03:12:51Z</time></trkpt><trkpt lat="59.4768077508" lon="31.0510037094"><ele>55.41</ele><time>2026-08-31T03:13:17Z</time></trkpt><trkpt lat="59.4767926633" lon="31.0509150289"><ele>55.81</ele><time>2026-08-31T03:13:47Z</time></trkpt><trkpt lat="59.4766987022" lon="31.0509676673"><ele>54.96</ele><time>2026-08-31T03:14:11Z</time></trkpt><trkpt lat="59.4766647555" lon="31.0509952437"><ele>55.48</ele><time>2026-08-31T03:14:19Z</time></trkpt><trkpt lat="59.4766335748" lon="31.0510688368"><ele>55.64</ele><time>2026-08-31T03:14:26Z</time></trkpt><trkpt lat="59.4765987899" lon="31.0511825792"><ele>56.11</ele><time>2026-08-31T03:14:40Z</time></trkpt><trkpt lat="59.4765547011" lon="31.0512511432"><ele>55.80</ele><time>2026-08-31T03:14:50Z</time></trkpt><trkpt lat="59.4764921721" lon="31.0512715112"><ele>54.19</ele><time>2026-08-31T03:15:02Z</time></trkpt><trkpt lat="59.4764702115" lon="31.0512590222"><ele>55.59</ele><time>2026-08-31T03:15:07Z</time></trkpt><trkpt lat="59.4763782620" lon="31.0512948968"><ele>54.84</ele><time>2026-08-31T03:15:27Z</time></trkpt><trkpt lat="59.4762490131" lon="31.0513759498"><ele>55.68</ele><time>2026-08-31T03:15:51Z</time></trkpt><trkpt lat="59.4761560578" lon="31.0513134208"><ele>54.88</ele><time>2026-08-31T03:16:12Z</time></trkpt><trkpt lat="59.4761312474" lon="31.0513482057"><ele>55.65</ele><time>2026-08-31T03:16:18Z</time></trkpt><trkpt lat="59.4760870747" lon="31.0513772070"><ele>55.45</ele><time>2026-08-31T03:16:23Z</time></trkpt><trkpt lat="59.4759697281" lon="31.0513350461"><ele>55.90</ele><time>2026-08-31T03:16:44Z</time></trkpt><trkpt lat="59.4758817181" lon="31.0512348823"><ele>55.81</ele><time>2026-08-31T03:17:09Z</time></trkpt><trkpt lat="59.4758630265" lon="31.0512642190"><ele>55.72</ele><time>2026-08-31T03:17:38Z</time></trkpt><trkpt lat="59.4758590031" lon="31.0512776300"><ele>54.83</ele><time>2026-08-31T03:17:40Z</time></trkpt><trkpt lat="59.4758556504" lon="31.0512636323"><ele>54.83</ele><time>2026-08-31T03:17:44Z</time></trkpt><trkpt lat="59.4757961389" lon="31.0511576012"><ele>56.20</ele><time>2026-08-31T03:18:07Z</time></trkpt><trkpt lat="59.4757886790" lon="31.0511720181"><ele>55.54</ele><time>2026-08-31T03:18:10Z</time></trkpt><trkpt lat="59.4757537264" lon="31.0510809906"><ele>55.78</ele><time>2026-08-31T03:18:30Z</time></trkpt><trkpt lat="59.4756843243" lon="31.0510552581"><ele>55.58</ele><time>2026-08-31T03:18:41Z</time></trkpt><trkpt lat="59.4756184425" lon="31.0510591138"><ele>55.23</ele><time>2026-08-31T03:18:51Z</time></trkpt><trkpt lat="59.4754855055" lon="31.0510819964"><ele>55.53</ele><time>2026-08-31T03:19:16Z</time></trkpt><trkpt lat="59.4754711725" lon="31.0511482134"><ele>55.34</ele><time>2026-08-31T03:19:52Z</time></trkpt><trkpt lat="59.4754536543" lon="31.0511891171"><ele>55.28</ele><time>2026-08-31T03:20:05Z</time></trkpt><trkpt lat="59.4753828272" lon="31.0512375645"><ele>55.23</ele><time>2026-08-31T03:20:28Z</time></trkpt><trkpt lat="59.4753431808" lon="31.0512460303"><ele>55.67</ele><time>2026-08-31T03:20:49Z</time></trkpt><trkpt lat="59.4752820767" lon="31.0513216350"><ele>54.97</ele><time>2026-08-31T03:21:17Z</time></trkpt><trkpt lat="59.4752332941" lon="31.0512603633"><ele>54.73</ele><time>2026-08-31T03:21:36Z</time></trkpt><trkpt lat="59.4752235711" lon="31.0512306076"><ele>54.84</ele><time>2026-08-31T03:21:41Z</time></trkpt><trkpt lat="59.4751125108" lon="31.0511072259"><ele>55.08</ele><time>2026-08-31T03:22:07Z</time></trkpt><trkpt lat="59.4750134367" lon="31.0511048790"><ele>55.60</ele><time>2026-08-31T03:22:24Z</time></trkpt><trkpt lat="59.4749385025" lon="31.0510639753"><ele>55.87</ele><time>2026-08-31T03:22:50Z</time></trkpt><trkpt lat="59.4749559369" lon="31.0510850977"><ele>55.74</ele><time>2026-08-31T03:23:20Z</time></trkpt><trkpt lat="59.4749149494" lon="31.0510705970"><ele>55.65</ele><time>2026-08-31T03:23:45Z</time></trkpt><trkpt lat="59.4748204853" lon="31.0510548390"><ele>55.21</ele><time>2026-08-31T03:24:05Z</time></trkpt><trkpt lat="59.4747469760" lon="31.0510832537"><ele>54.80</ele><time>2026-08-31T03:24:19Z</time></trkpt><trkpt lat="59.4746572059" lon="31.0510958266"><ele>54.86</ele><time>2026-08-31T03:24:36Z</time></trkpt><trkpt lat="59.4745573774" lon="31.0511787236"><ele>55.74</ele><time>2026-08-31T03:24:56Z</time></trkpt><trkpt lat="59.4745489955" lon="31.0510817450"><ele>55.10</ele><time>2026-08-31T03:25:13Z</time></trkpt><trkpt lat="59.4745336566" lon="31.0510914680"><ele>55.56</ele><time>2026-08-31T03:25:17Z</time></trkpt><trkpt lat="59.4744172320" lon="31.0511193797"><ele>55.47</ele><time>2026-08-31T03:25:40Z</time></trkpt><trkpt lat="59.4744203333" lon="31.0511384066"><ele>55.33</ele><time>2026-08-31T03:25:42Z</time></trkpt><trkpt lat="59.4744672719" lon="31.0513093136"><ele>55.32</ele><time>2026-08-31T03:25:58Z</time></trkpt><trkpt lat="59.4744505081" lon="31.0514533147"><ele>54.67</ele><time>2026-08-31T03:26:19Z</time></trkpt><trkpt lat="59.4743687008" lon="31.0515126586"><ele>55.75</ele><time>2026-08-31T03:26:45Z</time></trkpt><trkpt lat="59.4743437227" lon="31.0514171049"><ele>54.13</ele><time>2026-08-31T03:27:04Z</time></trkpt><trkpt lat="59.4743392803" lon="31.0514285881"><ele>55.58</ele><time>2026-08-31T03:27:08Z</time></trkpt><trkpt lat="59.4742829539" lon="31.0513212159"><ele>55.42</ele><time>2026-08-31T03:27:25Z</time></trkpt><trkpt lat="59.4742508512" lon="31.0512686614"><ele>55.51</ele><time>2026-08-31T03:27:58Z</time></trkpt><trkpt lat="59.4742392004" lon="31.0512497183"><ele>55.62</ele><time>2026-08-31T03:28:28Z</time></trkpt><trkpt lat="59.4742759131" lon="31.0512236506"><ele>54.16</ele><time>2026-08-31T03:28:50Z</time></trkpt><trkpt lat="59.4743620791" lon="31.0511046275"><ele>54.49</ele><time>2026-08-31T03:29:06Z</time></trkpt><trkpt lat="59.4743977021" lon="31.0509302840"><ele>55.43</ele><time>2026-08-31T03:29:24Z</time></trkpt><trkpt lat="59.4743410405" lon="31.0509473830"><ele>55.33</ele><time>2026-08-31T03:29:50Z</time></trkpt><trkpt lat="59.4743065909" lon="31.0508978460"><ele>55.10</ele><time>2026-08-31T03:29:52Z</time></trkpt><trkpt lat="59.4742491748" lon="31.0507956706"><ele>54.92</ele><time>2026-08-31T03:30:18Z</time></trkpt><trkpt lat="59.4742135517" lon="31.0508088302"><ele>55.19</ele><time>2026-08-31T03:30:44Z</time></trkpt><trkpt lat="59.4741705526" lon="31.0508339759"><ele>55.75</ele><time>2026-08-31T03:31:10Z</time></trkpt><trkpt lat="59.4740940258" lon="31.0507880431"><ele>54.64</ele><time>2026-08-31T03:31:32Z</time></trkpt><trkpt lat="59.4740180019" lon="31.0506661702"><ele>54.97</ele><time>2026-08-31T03:31:56Z</time></trkpt><trkpt lat="59.4739967957" lon="31.0506717023"><ele>55.24</ele><time>2026-08-31T03:32:00Z</time></trkpt><trkpt lat="59.4739288185" lon="31.0504945088"><ele>55.01</ele><time>2026-08-31T03:32:19Z</time></trkpt><trkpt lat="59.4737900980" lon="31.0503572132"><ele>54.20</ele><time>2026-08-31T03:32:41Z</time></trkpt><trkpt lat="59.4737855718" lon="31.0503588896"><ele>54.70</ele><time>2026-08-31T03:32:42Z</time></trkpt><trkpt lat="59.4737585820" lon="31.0503463168"><ele>54.56</ele><time>2026-08-31T03:32:46Z</time></trkpt><trkpt lat="59.4736791216" lon="31.0501954425"><ele>54.71</ele><time>2026-08-31T03:33:07Z</time></trkpt><trkpt lat="59.4736313447" lon="31.0499024112"><ele>54.59</ele><time>2026-08-31T03:33:30Z</time></trkpt><trkpt lat="59.4736528024" lon="31.0497544706"><ele>54.23</ele><time>2026-08-31T03:33:48Z</time></trkpt><trkpt lat="59.4736509584" lon="31.0497136507"><ele>54.54</ele><time>2026-08-31T03:33:54Z</time></trkpt><trkpt lat="59.4736464322" lon="31.0497234575"><ele>54.31</ele><time>2026-08-31T03:34:21Z</time></trkpt><trkpt lat="59.4737233780" lon="31.0494832322"><ele>53.72</ele><time>2026-08-31T03:34:44Z</time></trkpt><trkpt lat="59.4736935385" lon="31.0492549092"><ele>54.65</ele><time>2026-08-31T03:35:03Z</time></trkpt><trkpt lat="59.4736686442" lon="31.0492150113"><ele>54.74</ele><time>2026-08-31T03:35:09Z</time></trkpt><trkpt lat="59.4736129884" lon="31.0490899533"><ele>53.67</ele><time>2026-08-31T03:35:35Z</time></trkpt><trkpt lat="59.4734838232" lon="31.0489012767"><ele>54.01</ele><time>2026-08-31T03:35:59Z</time></trkpt><trkpt lat="59.4734404050" lon="31.0488272645"><ele>54.95</ele><time>2026-08-31T03:36:09Z</time></trkpt><trkpt lat="59.4734274969" lon="31.0487850197"><ele>55.43</ele><time>2026-08-31T03:36:14Z</time></trkpt><trkpt lat="59.4733826537" lon="31.0485696886"><ele>55.05</ele><time>2026-08-31T03:36:34Z</time></trkpt><trkpt lat="59.4733514730" lon="31.0484409425"><ele>53.75</ele><time>2026-08-31T03:36:51Z</time></trkpt><trkpt lat="59.4733062107" lon="31.0483363364"><ele>54.41</ele><time>2026-08-31T03:37:19Z</time></trkpt><trkpt lat="59.4733296800" lon="31.0484059062"><ele>54.27</ele><time>2026-08-31T03:37:50Z</time></trkpt><trkpt lat="59.4733523112" lon="31.0483549442"><ele>52.25</ele><time>2026-08-31T03:38:24Z</time></trkpt><trkpt lat="59.4733396545" lon="31.0483391024"><ele>54.32</ele><time>2026-08-31T03:38:27Z</time></trkpt><trkpt lat="59.4734077994" lon="31.0483538546"><ele>53.77</ele><time>2026-08-31T03:38:52Z</time></trkpt><trkpt lat="59.4735144172" lon="31.0484195687"><ele>53.83</ele><time>2026-08-31T03:39:12Z</time></trkpt><trkpt lat="59.4736238010" lon="31.0483839456"><ele>53.57</ele><time>2026-08-31T03:39:35Z</time></trkpt><trkpt lat="59.4737088773" lon="31.0483934171"><ele>53.61</ele><time>2026-08-31T03:39:54Z</time></trkpt><trkpt lat="59.4737175945" lon="31.0484040622"><ele>53.69</ele><time>2026-08-31T03:39:56Z</time></trkpt><trkpt lat="59.4738681335" lon="31.0484935809"><ele>53.41</ele><time>2026-08-31T03:40:17Z</time></trkpt><trkpt lat="59.4739394635" lon="31.0485940799"><ele>52.09</ele><time>2026-08-31T03:40:36Z</time></trkpt><trkpt lat="59.4740481768" lon="31.0485945828"><ele>53.12</ele><time>2026-08-31T03:40:56Z</time></trkpt><trkpt lat="59.4741893280" lon="31.0485443752"><ele>53.26</ele><time>2026-08-31T03:41:17Z</time></trkpt><trkpt lat="59.4742275495" lon="31.0484416969"><ele>52.95</ele><time>2026-08-31T03:41:37Z</time></trkpt><trkpt lat="59.4742563833" lon="31.0484521743"><ele>52.48</ele><time>2026-08-31T03:41:42Z</time></trkpt><trkpt lat="59.4741607457" lon="31.0486591235"><ele>51.84</ele><time>2026-08-31T03:42:15Z</time></trkpt><trkpt lat="59.4742031582" lon="31.0486742947"><ele>52.01</ele><time>2026-08-31T03:42:36Z</time></trkpt><trkpt lat="59.4742648490" lon="31.0486645717"><ele>51.47</ele><time>2026-08-31T03:42:44Z</time></trkpt><trkpt lat="59.4743453152" lon="31.0483991168"><ele>51.60</ele><time>2026-08-31T03:43:06Z</time></trkpt><trkpt lat="59.4743975345" lon="31.0482508410"><ele>51.80</ele><time>2026-08-31T03:43:26Z</time></trkpt><trkpt lat="59.4745548628" lon="31.0480715521"><ele>51.71</ele><time>2026-08-31T03:43:47Z</time></trkpt><trkpt lat="59.4746356644" lon="31.0481741466"><ele>51.45</ele><time>2026-08-31T03:44:07Z</time></trkpt><trkpt lat="59.4746836927" lon="31.0483868793"><ele>52.26</ele><time>2026-08-31T03:44:28Z</time></trkpt><trkpt lat="59.4747825991" lon="31.0483412817"><ele>51.71</ele><time>2026-08-31T03:44:48Z</time></trkpt><trkpt lat="59.4747854490" lon="31.0483131185"><ele>50.07</ele><time>2026-08-31T03:44:50Z</time></trkpt><trkpt lat="59.4748002850" lon="31.0483070835"><ele>51.33</ele><time>2026-08-31T03:44:54Z</time></trkpt><trkpt lat="59.4748878758" lon="31.0483192373"><ele>52.09</ele><time>2026-08-31T03:45:15Z</time></trkpt><trkpt lat="59.4750049710" lon="31.0483200755"><ele>51.98</ele><time>2026-08-31T03:45:36Z</time></trkpt><trkpt lat="59.4751020335" lon="31.0482847877"><ele>51.88</ele><time>2026-08-31T03:45:55Z</time></trkpt><trkpt lat="59.4752120879" lon="31.0483083408"><ele>51.40</ele><time>2026-08-31T03:46:17Z</time></trkpt><trkpt lat="59.4752420112" lon="31.0483988654"><ele>51.62</ele><time>2026-08-31T03:46:26Z</time></trkpt><trkpt lat="59.4752477948" lon="31.0484080017"><ele>51.72</ele><time>2026-08-31T03:46:53Z</time></trkpt><trkpt lat="59.4752558414" lon="31.0484150425"><ele>52.24</ele><time>2026-08-31T03:47:24Z</time></trkpt><trkpt lat="59.4752500579" lon="31.0483870469"><ele>52.75</ele><time>2026-08-31T03:47:42Z</time></trkpt><trkpt lat="59.4753038697" lon="31.0483606439"><ele>52.16</ele><time>2026-08-31T03:47:48Z</time></trkpt><trkpt lat="59.4754182827" lon="31.0483228415"><ele>52.68</ele><time>2026-08-31T03:47:59Z</time></trkpt><trkpt lat="59.4754283410" lon="31.0483116936"><ele>51.61</ele><time>2026-08-31T03:48:01Z</time></trkpt><trkpt lat="59.4755450170" lon="31.0482335743"><ele>52.29</ele><time>2026-08-31T03:48:21Z</time></trkpt><trkpt lat="59.4756450970" lon="31.0482812673"><ele>52.13</ele><time>2026-08-31T03:48:44Z</time></trkpt><trkpt lat="59.4756678957" lon="31.0483760666"><ele>52.13</ele><time>2026-08-31T03:49:06Z</time></trkpt><trkpt lat="59.4757155888" lon="31.0483795870"><ele>52.07</ele><time>2026-08-31T03:49:35Z</time></trkpt><trkpt lat="59.4757209532" lon="31.0483808443"><ele>52.08</ele><time>2026-08-31T03:49:38Z</time></trkpt><trkpt lat="59.4757598452" lon="31.0483519267"><ele>52.35</ele><time>2026-08-31T03:49:59Z</time></trkpt><trkpt lat="59.4758961350" lon="31.0482784174"><ele>52.63</ele><time>2026-08-31T03:50:21Z</time></trkpt><trkpt lat="59.4760110509" lon="31.0481988732"><ele>53.49</ele><time>2026-08-31T03:50:40Z</time></trkpt><trkpt lat="59.4761173334" lon="31.0482585523"><ele>52.23</ele><time>2026-08-31T03:51:01Z</time></trkpt><trkpt lat="59.4761322532" lon="31.0482881404"><ele>51.43</ele><time>2026-08-31T03:51:06Z</time></trkpt><trkpt lat="59.4761360250" lon="31.0483196564"><ele>53.21</ele><time>2026-08-31T03:51:10Z</time></trkpt><trkpt lat="59.4762118813" lon="31.0485084169"><ele>52.64</ele><time>2026-08-31T03:51:29Z</time></trkpt><trkpt lat="59.4763010647" lon="31.0485720355"><ele>53.07</ele><time>2026-08-31T03:51:52Z</time></trkpt><trkpt lat="59.4763146434" lon="31.0485727061"><ele>52.81</ele><time>2026-08-31T03:51:54Z</time></trkpt><trkpt lat="59.4764288887" lon="31.0485176370"><ele>52.40</ele><time>2026-08-31T03:52:12Z</time></trkpt><trkpt lat="59.4764544535" lon="31.0485064890"><ele>52.60</ele><time>2026-08-31T03:52:16Z</time></trkpt><trkpt lat="59.4764705468" lon="31.0484802537"><ele>52.38</ele><time>2026-08-31T03:52:21Z</time></trkpt><trkpt lat="59.4765403681" lon="31.0482920799"><ele>51.71</ele><time>2026-08-31T03:52:44Z</time></trkpt><trkpt lat="59.4766058307" lon="31.0482382681"><ele>52.06</ele><time>2026-08-31T03:53:04Z</time></trkpt><trkpt lat="59.4766793400" lon="31.0482201632"><ele>52.01</ele><time>2026-08-31T03:53:29Z</time></trkpt><trkpt lat="59.4767131191" lon="31.0481991246"><ele>51.57</ele><time>2026-08-31T03:53:46Z</time></trkpt><trkpt lat="59.4765804335" lon="31.0483365040"><ele>52.49</ele><time>2026-08-31T03:54:15Z</time></trkpt><trkpt lat="59.4766210020" lon="31.0482857097"><ele>52.10</ele><time>2026-08-31T03:54:27Z</time></trkpt><trkpt lat="59.4766541943" lon="31.0482365079"><ele>52.06</ele><time>2026-08-31T03:54:34Z</time></trkpt><trkpt lat="59.4767373428" lon="31.0481913295"><ele>52.04</ele><time>2026-08-31T03:54:53Z</time></trkpt><trkpt lat="59.4767639134" lon="31.0481899045"><ele>52.29</ele><time>2026-08-31T03:54:59Z</time></trkpt><trkpt lat="59.4768976886" lon="31.0480846278"><ele>51.87</ele><time>2026-08-31T03:55:22Z</time></trkpt><trkpt lat="59.4769974332" lon="31.0481899884"><ele>52.03</ele><time>2026-08-31T03:55:38Z</time></trkpt><trkpt lat="59.4770973455" lon="31.0483135376"><ele>52.16</ele><time>2026-08-31T03:56:00Z</time></trkpt><trkpt lat="59.4771760516" lon="31.0483131185"><ele>52.63</ele><time>2026-08-31T03:56:19Z</time></trkpt><trkpt lat="59.4772976730" lon="31.0482591391"><ele>52.90</ele><time>2026-08-31T03:56:37Z</time></trkpt><trkpt lat="59.4774626289" lon="31.0482759029"><ele>52.53</ele><time>2026-08-31T03:56:57Z</time></trkpt><trkpt lat="59.4775509741" lon="31.0483600572"><ele>52.92</ele><time>2026-08-31T03:57:15Z</time></trkpt><trkpt lat="59.4776394032" lon="31.0483734682"><ele>53.50</ele><time>2026-08-31T03:57:34Z</time></trkpt><trkpt lat="59.4777150080" lon="31.0482874699"><ele>53.62</ele><time>2026-08-31T03:57:53Z</time></trkpt><trkpt lat="59.4778180216" lon="31.0482321493"><ele>52.81</ele><time>2026-08-31T03:58:14Z</time></trkpt><trkpt lat="59.4778346177" lon="31.0482490808"><ele>52.03</ele><time>2026-08-31T03:58:55Z</time></trkpt><trkpt lat="59.4778138306" lon="31.0482205823"><ele>53.40</ele><time>2026-08-31T03:59:02Z</time></trkpt><trkpt lat="59.4778400660" lon="31.0481255315"><ele>52.97</ele><time>2026-08-31T03:59:31Z</time></trkpt><trkpt lat="59.4778637867" lon="31.0478988010"><ele>52.62</ele><time>2026-08-31T03:59:50Z</time></trkpt><trkpt lat="59.4779117312" lon="31.0477205180"><ele>53.30</ele><time>2026-08-31T04:00:09Z</time></trkpt><trkpt lat="59.4780324306" lon="31.0476211924"><ele>53.53</ele><time>2026-08-31T04:00:31Z</time></trkpt><trkpt lat="59.4780988153" lon="31.0475123115"><ele>52.51</ele><time>2026-08-31T04:00:47Z</time></trkpt><trkpt lat="59.4781553093" lon="31.0474657919"><ele>53.78</ele><time>2026-08-31T04:01:04Z</time></trkpt><trkpt lat="59.4781608414" lon="31.0473806318"><ele>53.04</ele><time>2026-08-31T04:01:15Z</time></trkpt><trkpt lat="59.4781086221" lon="31.0472353734"><ele>54.07</ele><time>2026-08-31T04:01:39Z</time></trkpt><trkpt lat="59.4780965522" lon="31.0470730159"><ele>53.12</ele><time>2026-08-31T04:02:02Z</time></trkpt><trkpt lat="59.4781230390" lon="31.0468668211"><ele>52.52</ele><time>2026-08-31T04:02:19Z</time></trkpt><trkpt lat="59.4780621864" lon="31.0465935711"><ele>53.40</ele><time>2026-08-31T04:02:39Z</time></trkpt><trkpt lat="59.4780492783" lon="31.0463943332"><ele>52.66</ele><time>2026-08-31T04:02:58Z</time></trkpt><trkpt lat="59.4781010784" lon="31.0463178065"><ele>53.57</ele><time>2026-08-31T04:03:20Z</time></trkpt><trkpt lat="59.4781008270" lon="31.0463280324"><ele>53.00</ele><time>2026-08-31T04:03:51Z</time></trkpt><trkpt lat="59.4781730790" lon="31.0461806785"><ele>52.71</ele><time>2026-08-31T04:04:14Z</time></trkpt><trkpt lat="59.4781959616" lon="31.0459142178"><ele>52.49</ele><time>2026-08-31T04:04:32Z</time></trkpt><trkpt lat="59.4782801159" lon="31.0457915906"><ele>52.87</ele><time>2026-08-31T04:04:54Z</time></trkpt><trkpt lat="59.4782867376" lon="31.0457934346"><ele>52.86</ele><time>2026-08-31T04:04:56Z</time></trkpt><trkpt lat="59.4783174992" lon="31.0457971226"><ele>53.08</ele><time>2026-08-31T04:05:24Z</time></trkpt><trkpt lat="59.4782811217" lon="31.0457407124"><ele>53.06</ele><time>2026-08-31T04:05:33Z</time></trkpt><trkpt lat="59.4782579038" lon="31.0458055045"><ele>52.98</ele><time>2026-08-31T04:05:54Z</time></trkpt><trkpt lat="59.4782499410" lon="31.0458139703"><ele>52.06</ele><time>2026-08-31T04:06:19Z</time></trkpt><trkpt lat="59.4782299921" lon="31.0457871482"><ele>52.34</ele><time>2026-08-31T04:06:26Z</time></trkpt><trkpt lat="59.4782316685" lon="31.0457879864"><ele>52.94</ele><time>2026-08-31T04:07:00Z</time></trkpt><trkpt lat="59.4781984761" lon="31.0458147246"><ele>53.05</ele><time>2026-08-31T04:07:31Z</time></trkpt><trkpt lat="59.4781922735" lon="31.0458785109"><ele>52.74</ele><time>2026-08-31T04:07:59Z</time></trkpt><trkpt lat="59.4782069419" lon="31.0458801035"><ele>49.05</ele><time>2026-08-31T04:08:09Z</time></trkpt><trkpt lat="59.4782069419" lon="31.0458825342"><ele>53.81</ele><time>2026-08-31T04:08:10Z</time></trkpt><trkpt lat="59.4781796169" lon="31.0459314846"><ele>50.92</ele><time>2026-08-31T04:08:41Z</time></trkpt><trkpt lat="59.4781933632" lon="31.0459485836"><ele>52.85</ele><time>2026-08-31T04:08:43Z</time></trkpt><trkpt lat="59.4782293215" lon="31.0459532775"><ele>52.17</ele><time>2026-08-31T04:09:13Z</time></trkpt><trkpt lat="59.4782636035" lon="31.0458844621"><ele>52.06</ele><time>2026-08-31T04:09:41Z</time></trkpt><trkpt lat="59.4782701414" lon="31.0458661895"><ele>52.14</ele><time>2026-08-31T04:10:04Z</time></trkpt><trkpt lat="59.4783179183" lon="31.0458493419"><ele>52.68</ele><time>2026-08-31T04:10:32Z</time></trkpt><trkpt lat="59.4783591572" lon="31.0456029978"><ele>52.41</ele><time>2026-08-31T04:10:52Z</time></trkpt><trkpt lat="59.4783565588" lon="31.0453448351"><ele>52.21</ele><time>2026-08-31T04:11:14Z</time></trkpt><trkpt lat="59.4783166610" lon="31.0452750139"><ele>52.51</ele><time>2026-08-31T04:11:22Z</time></trkpt><trkpt lat="59.4782380387" lon="31.0450320225"><ele>52.68</ele><time>2026-08-31T04:11:44Z</time></trkpt><trkpt lat="59.4782470074" lon="31.0449493770"><ele>52.07</ele><time>2026-08-31T04:11:53Z</time></trkpt><trkpt lat="59.4782935269" lon="31.0449492931"><ele>51.65</ele><time>2026-08-31T04:12:00Z</time></trkpt><trkpt lat="59.4784261286" lon="31.0449004266"><ele>52.69</ele><time>2026-08-31T04:12:18Z</time></trkpt><trkpt lat="59.4784572255" lon="31.0448648874"><ele>51.94</ele><time>2026-08-31T04:12:23Z</time></trkpt><trkpt lat="59.4785230234" lon="31.0446840059"><ele>52.01</ele><time>2026-08-31T04:12:40Z</time></trkpt><trkpt lat="59.4785630889" lon="31.0446471255"><ele>51.86</ele><time>2026-08-31T04:12:49Z</time></trkpt><trkpt lat="59.4786372688" lon="31.0446143523"><ele>50.77</ele><time>2026-08-31T04:13:10Z</time></trkpt><trkpt lat="59.4785442296" lon="31.0445991810"><ele>51.35</ele><time>2026-08-31T04:13:26Z</time></trkpt><trkpt lat="59.4785760809" lon="31.0445184633"><ele>51.20</ele><time>2026-08-31T04:13:48Z</time></trkpt><trkpt lat="59.4785284717" lon="31.0442581214"><ele>51.44</ele><time>2026-08-31T04:14:10Z</time></trkpt><trkpt lat="59.4784361869" lon="31.0441283695"><ele>50.78</ele><time>2026-08-31T04:14:28Z</time></trkpt><trkpt lat="59.4784482569" lon="31.0440186504"><ele>50.96</ele><time>2026-08-31T04:14:43Z</time></trkpt><trkpt lat="59.4784811139" lon="31.0439241864"><ele>50.99</ele><time>2026-08-31T04:14:53Z</time></trkpt><trkpt lat="59.4784546271" lon="31.0436576419"><ele>51.18</ele><time>2026-08-31T04:15:17Z</time></trkpt><trkpt lat="59.4784938544" lon="31.0435343441"><ele>50.54</ele><time>2026-08-31T04:15:34Z</time></trkpt><trkpt lat="59.4786637556" lon="31.0434784368"><ele>50.40</ele><time>2026-08-31T04:15:51Z</time></trkpt><trkpt lat="59.4787340797" lon="31.0435839649"><ele>50.29</ele><time>2026-08-31T04:16:13Z</time></trkpt><trkpt lat="59.4787280448" lon="31.0435958672"><ele>50.26</ele><time>2026-08-31T04:16:18Z</time></trkpt><trkpt lat="59.4787407015" lon="31.0435306560"><ele>50.37</ele><time>2026-08-31T04:16:49Z</time></trkpt><trkpt lat="59.4787825271" lon="31.0434926860"><ele>50.58</ele><time>2026-08-31T04:17:11Z</time></trkpt><trkpt lat="59.4787763245" lon="31.0433423147"><ele>50.05</ele><time>2026-08-31T04:17:31Z</time></trkpt><trkpt lat="59.4787686132" lon="31.0430710763"><ele>49.47</ele><time>2026-08-31T04:17:53Z</time></trkpt><trkpt lat="59.4787831139" lon="31.0428576730"><ele>50.26</ele><time>2026-08-31T04:18:14Z</time></trkpt><trkpt lat="59.4787959382" lon="31.0427208804"><ele>49.80</ele><time>2026-08-31T04:18:27Z</time></trkpt><trkpt lat="59.4787946809" lon="31.0426873527"><ele>48.73</ele><time>2026-08-31T04:18:29Z</time></trkpt><trkpt lat="59.4788015541" lon="31.0426524840"><ele>49.63</ele><time>2026-08-31T04:18:38Z</time></trkpt><trkpt lat="59.4787925854" lon="31.0426117480"><ele>49.90</ele><time>2026-08-31T04:18:43Z</time></trkpt><trkpt lat="59.4788140431" lon="31.0426001810"><ele>50.19</ele><time>2026-08-31T04:18:45Z</time></trkpt><trkpt lat="59.4787877239" lon="31.0425066389"><ele>49.53</ele><time>2026-08-31T04:19:05Z</time></trkpt><trkpt lat="59.4787935913" lon="31.0424576886"><ele>49.47</ele><time>2026-08-31T04:19:43Z</time></trkpt><trkpt lat="59.4787444733" lon="31.0423754621"><ele>49.37</ele><time>2026-08-31T04:20:08Z</time></trkpt><trkpt lat="59.4787682779" lon="31.0424023680"><ele>49.12</ele><time>2026-08-31T04:20:21Z</time></trkpt><trkpt lat="59.4787686970" lon="31.0421426129"><ele>47.18</ele><time>2026-08-31T04:20:38Z</time></trkpt><trkpt lat="59.4787841197" lon="31.0420935787"><ele>49.17</ele><time>2026-08-31T04:20:43Z</time></trkpt><trkpt lat="59.4788421225" lon="31.0418662615"><ele>49.47</ele><time>2026-08-31T04:21:05Z</time></trkpt><trkpt lat="59.4788515102" lon="31.0416773334"><ele>49.45</ele><time>2026-08-31T04:21:22Z</time></trkpt><trkpt lat="59.4788891450" lon="31.0414335039"><ele>50.50</ele><time>2026-08-31T04:21:40Z</time></trkpt><trkpt lat="59.4788904861" lon="31.0413622577"><ele>48.93</ele><time>2026-08-31T04:21:45Z</time></trkpt><trkpt lat="59.4788842835" lon="31.0412560590"><ele>48.96</ele><time>2026-08-31T04:22:07Z</time></trkpt><trkpt lat="59.4789453037" lon="31.0412173346"><ele>48.51</ele><time>2026-08-31T04:22:40Z</time></trkpt><trkpt lat="59.4789364189" lon="31.0411708150"><ele>48.14</ele><time>2026-08-31T04:23:10Z</time></trkpt><trkpt lat="59.4789416157" lon="31.0412710626"><ele>48.33</ele><time>2026-08-31T04:23:39Z</time></trkpt><trkpt lat="59.4789467286" lon="31.0412609205"><ele>49.07</ele><time>2026-08-31T04:23:48Z</time></trkpt><trkpt lat="59.4789113570" lon="31.0410527140"><ele>47.73</ele><time>2026-08-31T04:24:07Z</time></trkpt><trkpt lat="59.4788909052" lon="31.0408288334"><ele>48.25</ele><time>2026-08-31T04:24:29Z</time></trkpt><trkpt lat="59.4788065832" lon="31.0406968184"><ele>48.45</ele><time>2026-08-31T04:24:43Z</time></trkpt><trkpt lat="59.4786739815" lon="31.0404886957"><ele>48.04</ele><time>2026-08-31T04:25:04Z</time></trkpt><trkpt lat="59.4785905816" lon="31.0402426030"><ele>48.07</ele><time>2026-08-31T04:25:27Z</time></trkpt><trkpt lat="59.4785998017" lon="31.0402071476"><ele>48.70</ele><time>2026-08-31T04:25:58Z</time></trkpt><trkpt lat="59.4785878155" lon="31.0400776472"><ele>48.73</ele><time>2026-08-31T04:26:16Z</time></trkpt><trkpt lat="59.4785371888" lon="31.0400095861"><ele>47.34</ele><time>2026-08-31T04:26:32Z</time></trkpt><trkpt lat="59.4785097800" lon="31.0399775673"><ele>48.73</ele><time>2026-08-31T04:26:36Z</time></trkpt><trkpt lat="59.4784097001" lon="31.0398947541"><ele>47.68</ele><time>2026-08-31T04:26:55Z</time></trkpt><trkpt lat="59.4783704728" lon="31.0398677643"><ele>49.37</ele><time>2026-08-31T04:27:18Z</time></trkpt><trkpt lat="59.4783926848" lon="31.0398679320"><ele>49.55</ele><time>2026-08-31T04:27:28Z</time></trkpt><trkpt lat="59.4784293137" lon="31.0398686863"><ele>48.93</ele><time>2026-08-31T04:27:57Z</time></trkpt><trkpt lat="59.4784201775" lon="31.0399276949"><ele>48.37</ele><time>2026-08-31T04:28:25Z</time></trkpt><trkpt lat="59.4784237817" lon="31.0400338937"><ele>48.17</ele><time>2026-08-31T04:28:43Z</time></trkpt><trkpt lat="59.4784177467" lon="31.0402667429"><ele>48.87</ele><time>2026-08-31T04:29:05Z</time></trkpt><trkpt lat="59.4783540443" lon="31.0403819103"><ele>48.55</ele><time>2026-08-31T04:29:21Z</time></trkpt><trkpt lat="59.4782586582" lon="31.0405145120"><ele>48.57</ele><time>2026-08-31T04:29:42Z</time></trkpt><trkpt lat="59.4781745877" lon="31.0407463554"><ele>48.36</ele><time>2026-08-31T04:30:00Z</time></trkpt><trkpt lat="59.4781304989" lon="31.0409802943"><ele>49.00</ele><time>2026-08-31T04:30:21Z</time></trkpt><trkpt lat="59.4779859111" lon="31.0411087051"><ele>49.40</ele><time>2026-08-31T04:30:41Z</time></trkpt><trkpt lat="59.4779006671" lon="31.0413194261"><ele>48.69</ele><time>2026-08-31T04:31:03Z</time></trkpt><trkpt lat="59.4778404012" lon="31.0412948672"><ele>49.81</ele><time>2026-08-31T04:31:19Z</time></trkpt><trkpt lat="59.4777920377" lon="31.0413951986"><ele>48.77</ele><time>2026-08-31T04:31:51Z</time></trkpt><trkpt lat="59.4777790457" lon="31.0414706357"><ele>49.69</ele><time>2026-08-31T04:32:20Z</time></trkpt><trkpt lat="59.4777435903" lon="31.0416223481"><ele>49.63</ele><time>2026-08-31T04:32:39Z</time></trkpt><trkpt lat="59.4776133355" lon="31.0419008788"><ele>49.13</ele><time>2026-08-31T04:33:00Z</time></trkpt><trkpt lat="59.4775452744" lon="31.0420467239"><ele>49.97</ele><time>2026-08-31T04:33:19Z</time></trkpt><trkpt lat="59.4775360543" lon="31.0422368255"><ele>50.39</ele><time>2026-08-31T04:33:38Z</time></trkpt><trkpt lat="59.4774349686" lon="31.0422996059"><ele>49.26</ele><time>2026-08-31T04:34:01Z</time></trkpt><trkpt lat="59.4773125928" lon="31.0424713511"><ele>48.61</ele><time>2026-08-31T04:34:25Z</time></trkpt><trkpt lat="59.4771758839" lon="31.0425781365"><ele>49.64</ele><time>2026-08-31T04:34:48Z</time></trkpt><trkpt lat="59.4770721998" lon="31.0427336209"><ele>49.36</ele><time>2026-08-31T04:35:11Z</time></trkpt><trkpt lat="59.4770169631" lon="31.0427948926"><ele>49.21</ele><time>2026-08-31T04:35:45Z</time></trkpt><trkpt lat="59.4769918174" lon="31.0429040249"><ele>49.26</ele><time>2026-08-31T04:36:16Z</time></trkpt><trkpt lat="59.4769833516" lon="31.0429102276"><ele>49.81</ele><time>2026-08-31T04:36:20Z</time></trkpt><trkpt lat="59.4769328088" lon="31.0429706611"><ele>49.58</ele><time>2026-08-31T04:36:42Z</time></trkpt><trkpt lat="59.4768879656" lon="31.0430548992"><ele>49.64</ele><time>2026-08-31T04:37:04Z</time></trkpt><trkpt lat="59.4768717047" lon="31.0432250518"><ele>49.31</ele><time>2026-08-31T04:37:19Z</time></trkpt><trkpt lat="59.4767511729" lon="31.0435078572"><ele>49.30</ele><time>2026-08-31T04:37:40Z</time></trkpt><trkpt lat="59.4766883925" lon="31.0436083563"><ele>50.28</ele><time>2026-08-31T04:37:56Z</time></trkpt><trkpt lat="59.4765880611" lon="31.0437328275"><ele>50.00</ele><time>2026-08-31T04:38:11Z</time></trkpt><trkpt lat="59.4765316509" lon="31.0439643357"><ele>50.41</ele><time>2026-08-31T04:38:27Z</time></trkpt><trkpt lat="59.4764835387" lon="31.0441235919"><ele>50.12</ele><time>2026-08-31T04:38:42Z</time></trkpt><trkpt lat="59.4764148910" lon="31.0441430379"><ele>50.33</ele><time>2026-08-31T04:38:55Z</time></trkpt><trkpt lat="59.4763216842" lon="31.0442332271"><ele>50.44</ele><time>2026-08-31T04:39:16Z</time></trkpt><trkpt lat="59.4762506057" lon="31.0443561058"><ele>50.71</ele><time>2026-08-31T04:39:28Z</time></trkpt><trkpt lat="59.4761835504" lon="31.0443167947"><ele>49.99</ele><time>2026-08-31T04:39:59Z</time></trkpt><trkpt lat="59.4762089476" lon="31.0444302857"><ele>50.63</ele><time>2026-08-31T04:40:28Z</time></trkpt><trkpt lat="59.4762236159" lon="31.0445379093"><ele>49.71</ele><time>2026-08-31T04:40:53Z</time></trkpt><trkpt lat="59.4763265457" lon="31.0446802340"><ele>50.43</ele><time>2026-08-31T04:41:14Z</time></trkpt><trkpt lat="59.4764388632" lon="31.0446870234"><ele>50.46</ele><time>2026-08-31T04:41:33Z</time></trkpt><trkpt lat="59.4765112828" lon="31.0446195491"><ele>50.82</ele><time>2026-08-31T04:41:42Z</time></trkpt><trkpt lat="59.4765299745" lon="31.0446094908"><ele>50.07</ele><time>2026-08-31T04:41:46Z</time></trkpt><trkpt lat="59.4766243547" lon="31.0446261708"><ele>49.81</ele><time>2026-08-31T04:41:58Z</time></trkpt><trkpt lat="59.4766718801" lon="31.0446217284"><ele>49.89</ele><time>2026-08-31T04:42:05Z</time></trkpt><trkpt lat="59.4767848682" lon="31.0443947464"><ele>50.24</ele><time>2026-08-31T04:42:29Z</time></trkpt><trkpt lat="59.4768106006" lon="31.0443287808"><ele>50.31</ele><time>2026-08-31T04:42:35Z</time></trkpt><trkpt lat="59.4769492373" lon="31.0442867875"><ele>50.06</ele><time>2026-08-31T04:42:57Z</time></trkpt><trkpt lat="59.4770615548" lon="31.0443341453"><ele>50.67</ele><time>2026-08-31T04:43:16Z</time></trkpt><trkpt lat="59.4771771412" lon="31.0443307925"><ele>50.37</ele><time>2026-08-31T04:43:37Z</time></trkpt><trkpt lat="59.4772811607" lon="31.0443651583"><ele>52.18</ele><time>2026-08-31T04:43:50Z</time></trkpt><trkpt lat="59.4772913866" lon="31.0443651583"><ele>52.18</ele><time>2026-08-31T04:43:51Z</time></trkpt><trkpt lat="59.4773106650" lon="31.0445180442"><ele>50.75</ele><time>2026-08-31T04:44:15Z</time></trkpt><trkpt lat="59.4772938173" lon="31.0444787331"><ele>51.30</ele><time>2026-08-31T04:44:42Z</time></trkpt><trkpt lat="59.4773932267" lon="31.0445022862"><ele>51.09</ele><time>2026-08-31T04:45:07Z</time></trkpt><trkpt lat="59.4774589408" lon="31.0446842574"><ele>50.89</ele><time>2026-08-31T04:45:24Z</time></trkpt><trkpt lat="59.4773755409" lon="31.0448147636"><ele>51.83</ele><time>2026-08-31T04:45:42Z</time></trkpt><trkpt lat="59.4773214776" lon="31.0449051205"><ele>52.29</ele><time>2026-08-31T04:45:53Z</time></trkpt><trkpt lat="59.4772521593" lon="31.0450652987"><ele>51.48</ele><time>2026-08-31T04:46:14Z</time></trkpt><trkpt lat="59.4772426039" lon="31.0451016761"><ele>51.59</ele><time>2026-08-31T04:46:18Z</time></trkpt><trkpt lat="59.4771794882" lon="31.0451741796"><ele>52.38</ele><time>2026-08-31T04:46:26Z</time></trkpt><trkpt lat="59.4771419372" lon="31.0452934541"><ele>51.63</ele><time>2026-08-31T04:46:56Z</time></trkpt><trkpt lat="59.4771124329" lon="31.0453715734"><ele>51.62</ele><time>2026-08-31T04:47:16Z</time></trkpt><trkpt lat="59.4770624768" lon="31.0454641934"><ele>51.91</ele><time>2026-08-31T04:47:31Z</time></trkpt><trkpt lat="59.4770447910" lon="31.0454985593"><ele>51.93</ele><time>2026-08-31T04:47:34Z</time></trkpt><trkpt lat="59.4769459683" lon="31.0458122939"><ele>51.92</ele><time>2026-08-31T04:47:55Z</time></trkpt><trkpt lat="59.4768762309" lon="31.0459728073"><ele>51.91</ele><time>2026-08-31T04:48:18Z</time></trkpt><trkpt lat="59.4767715409" lon="31.0461033974"><ele>51.61</ele><time>2026-08-31T04:48:38Z</time></trkpt><trkpt lat="59.4767385162" lon="31.0462428723"><ele>52.37</ele><time>2026-08-31T04:49:00Z</time></trkpt><trkpt lat="59.4767243508" lon="31.0461919941"><ele>51.67</ele><time>2026-08-31T04:49:28Z</time></trkpt><trkpt lat="59.4765948504" lon="31.0463843588"><ele>50.66</ele><time>2026-08-31T04:49:51Z</time></trkpt><trkpt lat="59.4764623325" lon="31.0466593690"><ele>50.74</ele><time>2026-08-31T04:50:12Z</time></trkpt><trkpt lat="59.4764332473" lon="31.0466477182"><ele>50.41</ele><time>2026-08-31T04:50:28Z</time></trkpt><trkpt lat="59.4763930980" lon="31.0466805752"><ele>50.68</ele><time>2026-08-31T04:50:49Z</time></trkpt><trkpt lat="59.4762764219" lon="31.0468792263"><ele>51.63</ele><time>2026-08-31T04:51:09Z</time></trkpt><trkpt lat="59.4761874899" lon="31.0470746923"><ele>50.94</ele><time>2026-08-31T04:51:29Z</time></trkpt><trkpt lat="59.4760756753" lon="31.0472427495"><ele>50.37</ele><time>2026-08-31T04:51:49Z</time></trkpt><trkpt lat="59.4760689698" lon="31.0472637881"><ele>50.35</ele><time>2026-08-31T04:51:53Z</time></trkpt><trkpt lat="59.4760398008" lon="31.0473377164"><ele>50.94</ele><time>2026-08-31T04:52:23Z</time></trkpt><trkpt lat="59.4761177525" lon="31.0473924503"><ele>50.86</ele><time>2026-08-31T04:52:56Z</time></trkpt><trkpt lat="59.4760825485" lon="31.0473776981"><ele>50.85</ele><time>2026-08-31T04:53:29Z</time></trkpt><trkpt lat="59.4760465901" lon="31.0471621156"><ele>50.77</ele><time>2026-08-31T04:53:48Z</time></trkpt><trkpt lat="59.4759384636" lon="31.0469949804"><ele>50.62</ele><time>2026-08-31T04:54:06Z</time></trkpt><trkpt lat="59.4758660439" lon="31.0467215627"><ele>51.12</ele><time>2026-08-31T04:54:28Z</time></trkpt><trkpt lat="59.4758421555" lon="31.0466690920"><ele>50.72</ele><time>2026-08-31T04:54:37Z</time></trkpt><trkpt lat="59.4757917803" lon="31.0466874484"><ele>50.65</ele><time>2026-08-31T04:54:58Z</time></trkpt><trkpt lat="59.4757941272" lon="31.0465859435"><ele>51.20</ele><time>2026-08-31T04:55:20Z</time></trkpt><trkpt lat="59.4757841527" lon="31.0464235861"><ele>51.10</ele><time>2026-08-31T04:55:39Z</time></trkpt><trkpt lat="59.4757760223" lon="31.0464097559"><ele>50.16</ele><time>2026-08-31T04:55:41Z</time></trkpt><trkpt lat="59.4756497908" lon="31.0463265236"><ele>51.20</ele><time>2026-08-31T04:56:03Z</time></trkpt><trkpt lat="59.4755026046" lon="31.0463094246"><ele>50.56</ele><time>2026-08-31T04:56:21Z</time></trkpt><trkpt lat="59.4754344597" lon="31.0461482406"><ele>51.09</ele><time>2026-08-31T04:56:39Z</time></trkpt><trkpt lat="59.4753632974" lon="31.0460477415"><ele>51.04</ele><time>2026-08-31T04:57:00Z</time></trkpt><trkpt lat="59.4753253274" lon="31.0459589772"><ele>51.07</ele><time>2026-08-31T04:57:12Z</time></trkpt><trkpt lat="59.4753284287" lon="31.0459587257"><ele>51.57</ele><time>2026-08-31T04:57:39Z</time></trkpt><trkpt lat="59.4753242377" lon="31.0459726397"><ele>49.98</ele><time>2026-08-31T04:57:45Z</time></trkpt><trkpt lat="59.4753342122" lon="31.0460137110"><ele>51.57</ele><time>2026-08-31T04:58:22Z</time></trkpt><trkpt lat="59.4753533229" lon="31.0459402855"><ele>51.57</ele><time>2026-08-31T04:58:54Z</time></trkpt><trkpt lat="59.4753704220" lon="31.0459484160"><ele>51.78</ele><time>2026-08-31T04:59:18Z</time></trkpt><trkpt lat="59.4754114933" lon="31.0459194984"><ele>51.69</ele><time>2026-08-31T04:59:51Z</time></trkpt><trkpt lat="59.4752958231" lon="31.0460552014"><ele>52.16</ele><time>2026-08-31T05:00:18Z</time></trkpt><trkpt lat="59.4751953240" lon="31.0461363383"><ele>53.06</ele><time>2026-08-31T05:00:37Z</time></trkpt><trkpt lat="59.4750719424" lon="31.0461358353"><ele>52.41</ele><time>2026-08-31T05:00:55Z</time></trkpt><trkpt lat="59.4749676716" lon="31.0461624898"><ele>53.28</ele><time>2026-08-31T05:01:14Z</time></trkpt><trkpt lat="59.4748653285" lon="31.0462046508"><ele>53.61</ele><time>2026-08-31T05:01:31Z</time></trkpt><trkpt lat="59.4747338165" lon="31.0461657587"><ele>53.30</ele><time>2026-08-31T05:01:51Z</time></trkpt><trkpt lat="59.4747199025" lon="31.0460848734"><ele>54.05</ele><time>2026-08-31T05:02:04Z</time></trkpt><trkpt lat="59.4746626541" lon="31.0459970310"><ele>54.07</ele><time>2026-08-31T05:02:12Z</time></trkpt><trkpt lat="59.4745287113" lon="31.0460244399"><ele>53.70</ele><time>2026-08-31T05:02:39Z</time></trkpt><trkpt lat="59.4744207524" lon="31.0461212508"><ele>53.80</ele><time>2026-08-31T05:03:02Z</time></trkpt><trkpt lat="59.4743644260" lon="31.0460916627"><ele>54.39</ele><time>2026-08-31T05:03:31Z</time></trkpt><trkpt lat="59.4743241929" lon="31.0460860468"><ele>54.55</ele><time>2026-08-31T05:04:00Z</time></trkpt><trkpt lat="59.4743618276" lon="31.0461506713"><ele>53.99</ele><time>2026-08-31T05:04:12Z</time></trkpt><trkpt lat="59.4744284637" lon="31.0461365897"><ele>54.45</ele><time>2026-08-31T05:04:38Z</time></trkpt><trkpt lat="59.4744008034" lon="31.0461635794"><ele>53.93</ele><time>2026-08-31T05:05:04Z</time></trkpt><trkpt lat="59.4742473308" lon="31.0461401101"><ele>54.92</ele><time>2026-08-31T05:05:24Z</time></trkpt><trkpt lat="59.4742406253" lon="31.0461143777"><ele>54.91</ele><time>2026-08-31T05:05:30Z</time></trkpt><trkpt lat="59.4741251227" lon="31.0459969472"><ele>55.03</ele><time>2026-08-31T05:05:47Z</time></trkpt><trkpt lat="59.4739610050" lon="31.0460434668"><ele>54.90</ele><time>2026-08-31T05:06:10Z</time></trkpt><trkpt lat="59.4738277327" lon="31.0459945165"><ele>54.73</ele><time>2026-08-31T05:06:30Z</time></trkpt><trkpt lat="59.4736906048" lon="31.0459234379"><ele>54.89</ele><time>2026-08-31T05:06:49Z</time></trkpt><trkpt lat="59.4736661296" lon="31.0458839592"><ele>52.48</ele><time>2026-08-31T05:06:52Z</time></trkpt><trkpt lat="59.4736391399" lon="31.0458562151"><ele>54.67</ele><time>2026-08-31T05:06:57Z</time></trkpt><trkpt lat="59.4735940453" lon="31.0458082706"><ele>54.12</ele><time>2026-08-31T05:07:10Z</time></trkpt><trkpt lat="59.4735693187" lon="31.0457994696"><ele>55.62</ele><time>2026-08-31T05:07:34Z</time></trkpt><trkpt lat="59.4734544866" lon="31.0457779281"><ele>55.14</ele><time>2026-08-31T05:07:53Z</time></trkpt><trkpt lat="59.4733289257" lon="31.0457381979"><ele>55.38</ele><time>2026-08-31T05:08:14Z</time></trkpt><trkpt lat="59.4732301868" lon="31.0456706397"><ele>55.54</ele><time>2026-08-31T05:08:33Z</time></trkpt><trkpt lat="59.4731351361" lon="31.0456939414"><ele>55.41</ele><time>2026-08-31T05:08:53Z</time></trkpt><trkpt lat="59.4731056318" lon="31.0456676222"><ele>55.63</ele><time>2026-08-31T05:09:23Z</time></trkpt><trkpt lat="59.4730649795" lon="31.0456684604"><ele>56.24</ele><time>2026-08-31T05:09:48Z</time></trkpt><trkpt lat="59.4729703479" lon="31.0456956178"><ele>56.18</ele><time>2026-08-31T05:10:03Z</time></trkpt><trkpt lat="59.4728910550" lon="31.0455498565"><ele>54.64</ele><time>2026-08-31T05:10:22Z</time></trkpt><trkpt lat="59.4728324655" lon="31.0453470144"><ele>56.43</ele><time>2026-08-31T05:10:40Z</time></trkpt><trkpt lat="59.4727302063" lon="31.0452140775"><ele>55.77</ele><time>2026-08-31T05:11:01Z</time></trkpt><trkpt lat="59.4726072438" lon="31.0454315878"><ele>56.46</ele><time>2026-08-31T05:11:21Z</time></trkpt><trkpt lat="59.4725859538" lon="31.0454911832"><ele>53.23</ele><time>2026-08-31T05:11:31Z</time></trkpt><trkpt lat="59.4725877978" lon="31.0454918537"><ele>53.23</ele><time>2026-08-31T05:11:32Z</time></trkpt><trkpt lat="59.4725996163" lon="31.0454936139"><ele>55.46</ele><time>2026-08-31T05:11:43Z</time></trkpt><trkpt lat="59.4725908991" lon="31.0454892553"><ele>56.75</ele><time>2026-08-31T05:11:48Z</time></trkpt><trkpt lat="59.4725977723" lon="31.0454744194"><ele>55.99</ele><time>2026-08-31T05:12:19Z</time></trkpt><trkpt lat="59.4725662563" lon="31.0455031693"><ele>55.20</ele><time>2026-08-31T05:12:39Z</time></trkpt><trkpt lat="59.4725955930" lon="31.0455172509"><ele>56.03</ele><time>2026-08-31T05:13:08Z</time></trkpt><trkpt lat="59.4727052283" lon="31.0452675540"><ele>56.07</ele><time>2026-08-31T05:13:29Z</time></trkpt><trkpt lat="59.4728255924" lon="31.0452973936"><ele>55.87</ele><time>2026-08-31T05:13:48Z</time></trkpt><trkpt lat="59.4729317911" lon="31.0451708268"><ele>55.85</ele><time>2026-08-31T05:14:09Z</time></trkpt><trkpt lat="59.4729867764" lon="31.0448772926"><ele>56.22</ele><time>2026-08-31T05:14:54Z</time></trkpt><trkpt lat="59.4730900414" lon="31.0446355585"><ele>54.89</ele><time>2026-08-31T05:15:14Z</time></trkpt><trkpt lat="59.4732200447" lon="31.0444481391"><ele>55.78</ele><time>2026-08-31T05:15:34Z</time></trkpt><trkpt lat="59.4731533248" lon="31.0443694331"><ele>55.43</ele><time>2026-08-31T05:15:56Z</time></trkpt><trkpt lat="59.4732563384" lon="31.0442717839"><ele>55.69</ele><time>2026-08-31T05:16:26Z</time></trkpt><trkpt lat="59.4733198732" lon="31.0441387631"><ele>56.45</ele><time>2026-08-31T05:16:37Z</time></trkpt><trkpt lat="59.4734037761" lon="31.0438909940"><ele>56.00</ele><time>2026-08-31T05:16:57Z</time></trkpt><trkpt lat="59.4735125732" lon="31.0437388625"><ele>55.87</ele><time>2026-08-31T05:17:17Z</time></trkpt><trkpt lat="59.4736440014" lon="31.0434748325"><ele>55.58</ele><time>2026-08-31T05:17:40Z</time></trkpt><trkpt lat="59.4737334363" lon="31.0432963818"><ele>55.83</ele><time>2026-08-31T05:18:02Z</time></trkpt><trkpt lat="59.4737983122" lon="31.0432000738"><ele>55.55</ele><time>2026-08-31T05:18:21Z</time></trkpt><trkpt lat="59.4738253020" lon="31.0431583319"><ele>56.12</ele><time>2026-08-31T05:18:29Z</time></trkpt><trkpt lat="59.4738601707" lon="31.0431250557"><ele>56.50</ele><time>2026-08-31T05:18:35Z</time></trkpt><trkpt lat="59.4738798682" lon="31.0430947971"><ele>55.98</ele><time>2026-08-31T05:18:38Z</time></trkpt><trkpt lat="59.4739057682" lon="31.0430891812"><ele>55.44</ele><time>2026-08-31T05:19:05Z</time></trkpt><trkpt lat="59.4738998171" lon="31.0431512073"><ele>55.70</ele><time>2026-08-31T05:19:12Z</time></trkpt><trkpt lat="59.4739490189" lon="31.0431175120"><ele>56.43</ele><time>2026-08-31T05:19:31Z</time></trkpt><trkpt lat="59.4739392120" lon="31.0429286677"><ele>56.26</ele><time>2026-08-31T05:19:59Z</time></trkpt><trkpt lat="59.4739590771" lon="31.0430136602"><ele>55.25</ele><time>2026-08-31T05:20:05Z</time></trkpt><trkpt lat="59.4739662856" lon="31.0431396402"><ele>56.51</ele><time>2026-08-31T05:20:20Z</time></trkpt><trkpt lat="59.4740346819" lon="31.0432775225"><ele>56.33</ele><time>2026-08-31T05:20:41Z</time></trkpt><trkpt lat="59.4740346819" lon="31.0432775225"><ele>56.08</ele><time>2026-08-31T05:20:42Z</time></trkpt><trkpt lat="59.4741255417" lon="31.0433668736"><ele>56.67</ele><time>2026-08-31T05:20:53Z</time></trkpt><trkpt lat="59.4741540402" lon="31.0433792789"><ele>55.96</ele><time>2026-08-31T05:20:58Z</time></trkpt><trkpt lat="59.4742028229" lon="31.0433821287"><ele>55.96</ele><time>2026-08-31T05:21:08Z</time></trkpt><trkpt lat="59.4742441457" lon="31.0434516985"><ele>55.98</ele><time>2026-08-31T05:21:18Z</time></trkpt><trkpt lat="59.4743640907" lon="31.0436168220"><ele>56.81</ele><time>2026-08-31T05:21:40Z</time></trkpt><trkpt lat="59.4744259492" lon="31.0438115336"><ele>56.40</ele><time>2026-08-31T05:21:59Z</time></trkpt><trkpt lat="59.4744859636" lon="31.0439544450"><ele>56.66</ele><time>2026-08-31T05:22:18Z</time></trkpt><trkpt lat="59.4744509272" lon="31.0440844484"><ele>57.29</ele><time>2026-08-31T05:22:46Z</time></trkpt><trkpt lat="59.4744563755" lon="31.0440095980"><ele>55.92</ele><time>2026-08-31T05:23:00Z</time></trkpt><trkpt lat="59.4744512625" lon="31.0439824406"><ele>55.94</ele><time>2026-08-31T05:23:02Z</time></trkpt><trkpt lat="59.4744991232" lon="31.0438438039"><ele>56.39</ele><time>2026-08-31T05:23:12Z</time></trkpt><trkpt lat="59.4745166413" lon="31.0438086838"><ele>56.83</ele><time>2026-08-31T05:23:16Z</time></trkpt><trkpt lat="59.4745350815" lon="31.0437865555"><ele>55.92</ele><time>2026-08-31T05:23:19Z</time></trkpt><trkpt lat="59.4746864587" lon="31.0435746610"><ele>57.18</ele><time>2026-08-31T05:23:41Z</time></trkpt><trkpt lat="59.4747790787" lon="31.0434199311"><ele>57.07</ele><time>2026-08-31T05:23:58Z</time></trkpt><trkpt lat="59.4748688489" lon="31.0431919433"><ele>57.42</ele><time>2026-08-31T05:24:17Z</time></trkpt><trkpt lat="59.4748745486" lon="31.0431857407"><ele>57.03</ele><time>2026-08-31T05:24:19Z</time></trkpt><trkpt lat="59.4749390893" lon="31.0430322681"><ele>56.91</ele><time>2026-08-31T05:24:35Z</time></trkpt><trkpt lat="59.4749485608" lon="31.0429710802"><ele>57.78</ele><time>2026-08-31T05:24:47Z</time></trkpt><trkpt lat="59.4750840962" lon="31.0428362992"><ele>56.37</ele><time>2026-08-31T05:25:06Z</time></trkpt><trkpt lat="59.4750878680" lon="31.0428276658"><ele>56.36</ele><time>2026-08-31T05:25:07Z</time></trkpt><trkpt lat="59.4751694240" lon="31.0425707605"><ele>56.29</ele><time>2026-08-31T05:25:31Z</time></trkpt><trkpt lat="59.4752669893" lon="31.0424493067"><ele>57.66</ele><time>2026-08-31T05:25:48Z</time></trkpt><trkpt lat="59.4753136765" lon="31.0423948243"><ele>57.09</ele><time>2026-08-31T05:26:00Z</time></trkpt><trkpt lat="59.4753386546" lon="31.0423570219"><ele>57.68</ele><time>2026-08-31T05:26:24Z</time></trkpt><trkpt lat="59.4753803127" lon="31.0424184613"><ele>57.74</ele><time>2026-08-31T05:26:34Z</time></trkpt><trkpt lat="59.4753933884" lon="31.0424635559"><ele>57.78</ele><time>2026-08-31T05:26:40Z</time></trkpt><trkpt lat="59.4754093140" lon="31.0424281005"><ele>57.72</ele><time>2026-08-31T05:26:56Z</time></trkpt><trkpt lat="59.4753726851" lon="31.0424029548"><ele>58.69</ele><time>2026-08-31T05:27:01Z</time></trkpt><trkpt lat="59.4752907939" lon="31.0421838518"><ele>58.40</ele><time>2026-08-31T05:27:31Z</time></trkpt><trkpt lat="59.4752545003" lon="31.0418783315"><ele>58.25</ele><time>2026-08-31T05:27:54Z</time></trkpt><trkpt lat="59.4751581922" lon="31.0417631641"><ele>59.42</ele><time>2026-08-31T05:28:13Z</time></trkpt><trkpt lat="59.4750897959" lon="31.0416804347"><ele>58.96</ele><time>2026-08-31T05:28:29Z</time></trkpt><trkpt lat="59.4750398397" lon="31.0416049138"><ele>59.01</ele><time>2026-08-31T05:28:58Z</time></trkpt><trkpt lat="59.4749341439" lon="31.0414997209"><ele>59.32</ele><time>2026-08-31T05:29:17Z</time></trkpt><trkpt lat="59.4747864548" lon="31.0412555560"><ele>59.36</ele><time>2026-08-31T05:29:38Z</time></trkpt><trkpt lat="59.4746677671" lon="31.0410536360"><ele>59.58</ele><time>2026-08-31T05:30:01Z</time></trkpt><trkpt lat="59.4746468961" lon="31.0410348605"><ele>59.18</ele><time>2026-08-31T05:30:23Z</time></trkpt><trkpt lat="59.4746279530" lon="31.0409981478"><ele>60.00</ele><time>2026-08-31T05:30:50Z</time></trkpt><trkpt lat="59.4746658392" lon="31.0409485269"><ele>60.14</ele><time>2026-08-31T05:31:08Z</time></trkpt><trkpt lat="59.4747131132" lon="31.0407132469"><ele>59.39</ele><time>2026-08-31T05:31:32Z</time></trkpt><trkpt lat="59.4747735467" lon="31.0406560823"><ele>60.14</ele><time>2026-08-31T05:31:48Z</time></trkpt><trkpt lat="59.4748494029" lon="31.0405484587"><ele>60.86</ele><time>2026-08-31T05:32:11Z</time></trkpt><trkpt lat="59.4749460462" lon="31.0404177848"><ele>60.89</ele><time>2026-08-31T05:32:33Z</time></trkpt><trkpt lat="59.4750209805" lon="31.0402403399"><ele>60.67</ele><time>2026-08-31T05:32:56Z</time></trkpt><trkpt lat="59.4750300329" lon="31.0402274318"><ele>58.32</ele><time>2026-08-31T05:32:58Z</time></trkpt><trkpt lat="59.4750334695" lon="31.0402102489"><ele>61.59</ele><time>2026-08-31T05:33:01Z</time></trkpt><trkpt lat="59.4750336371" lon="31.0402041301"><ele>60.79</ele><time>2026-08-31T05:33:02Z</time></trkpt><trkpt lat="59.4751138519" lon="31.0399881285"><ele>60.83</ele><time>2026-08-31T05:33:25Z</time></trkpt><trkpt lat="59.4751231559" lon="31.0399805009"><ele>60.76</ele><time>2026-08-31T05:33:28Z</time></trkpt><trkpt lat="59.4752646424" lon="31.0397988651"><ele>60.68</ele><time>2026-08-31T05:33:47Z</time></trkpt><trkpt lat="59.4753116649" lon="31.0396536067"><ele>60.59</ele><time>2026-08-31T05:34:04Z</time></trkpt><trkpt lat="59.4753703382" lon="31.0395632498"><ele>61.71</ele><time>2026-08-31T05:34:16Z</time></trkpt><trkpt lat="59.4754267484" lon="31.0394573864"><ele>61.14</ele><time>2026-08-31T05:34:27Z</time></trkpt><trkpt lat="59.4754876848" lon="31.0392913409"><ele>61.64</ele><time>2026-08-31T05:34:43Z</time></trkpt><trkpt lat="59.4755022693" lon="31.0392059293"><ele>61.63</ele><time>2026-08-31T05:34:49Z</time></trkpt><trkpt lat="59.4755628705" lon="31.0390806198"><ele>59.45</ele><time>2026-08-31T05:35:04Z</time></trkpt><trkpt lat="59.4755432568" lon="31.0390944500"><ele>61.41</ele><time>2026-08-31T05:35:25Z</time></trkpt><trkpt lat="59.4755279180" lon="31.0390451644"><ele>61.22</ele><time>2026-08-31T05:35:36Z</time></trkpt><trkpt lat="59.4755267445" lon="31.0390598327"><ele>61.07</ele><time>2026-08-31T05:36:03Z</time></trkpt><trkpt lat="59.4755732641" lon="31.0390760098"><ele>60.96</ele><time>2026-08-31T05:36:19Z</time></trkpt><trkpt lat="59.4755980745" lon="31.0390854813"><ele>61.14</ele><time>2026-08-31T05:36:23Z</time></trkpt><trkpt lat="59.4756783731" lon="31.0392142273"><ele>61.33</ele><time>2026-08-31T05:36:38Z</time></trkpt><trkpt lat="59.4757669698" lon="31.0394055862"><ele>60.86</ele><time>2026-08-31T05:36:56Z</time></trkpt><trkpt lat="59.4758056942" lon="31.0394686181"><ele>61.58</ele><time>2026-08-31T05:37:04Z</time></trkpt><trkpt lat="59.4758932851" lon="31.0396526009"><ele>61.16</ele><time>2026-08-31T05:37:19Z</time></trkpt><trkpt lat="59.4759360328" lon="31.0398727935"><ele>61.25</ele><time>2026-08-31T05:37:44Z</time></trkpt><trkpt lat="59.4759906828" lon="31.0400380846"><ele>61.92</ele><time>2026-08-31T05:38:02Z</time></trkpt><trkpt lat="59.4760883320" lon="31.0401028767"><ele>61.54</ele><time>2026-08-31T05:38:19Z</time></trkpt><trkpt lat="59.4762009848" lon="31.0402258392"><ele>60.84</ele><time>2026-08-31T05:38:36Z</time></trkpt><trkpt lat="59.4762752485" lon="31.0402345564"><ele>60.94</ele><time>2026-08-31T05:38:57Z</time></trkpt><trkpt lat="59.4763205945" lon="31.0402870271"><ele>60.55</ele><time>2026-08-31T05:39:25Z</time></trkpt><trkpt lat="59.4763174094" lon="31.0402597021"><ele>60.62</ele><time>2026-08-31T05:39:42Z</time></trkpt><trkpt lat="59.4763313234" lon="31.0401986819"><ele>60.56</ele><time>2026-08-31T05:40:04Z</time></trkpt><trkpt lat="59.4763397891" lon="31.0401433613"><ele>60.58</ele><time>2026-08-31T05:40:08Z</time></trkpt><trkpt lat="59.4764964469" lon="31.0399690177"><ele>60.46</ele><time>2026-08-31T05:40:27Z</time></trkpt><trkpt lat="59.4765243586" lon="31.0398461390"><ele>59.21</ele><time>2026-08-31T05:40:45Z</time></trkpt><trkpt lat="59.4765413739" lon="31.0398188140"><ele>60.27</ele><time>2026-08-31T05:40:55Z</time></trkpt><trkpt lat="59.4766301382" lon="31.0396757349"><ele>59.73</ele><time>2026-08-31T05:41:15Z</time></trkpt><trkpt lat="59.4766995404" lon="31.0395136289"><ele>59.74</ele><time>2026-08-31T05:41:31Z</time></trkpt><trkpt lat="59.4767544419" lon="31.0393924266"><ele>59.65</ele><time>2026-08-31T05:41:45Z</time></trkpt><trkpt lat="59.4768027216" lon="31.0392413847"><ele>59.47</ele><time>2026-08-31T05:41:58Z</time></trkpt><trkpt lat="59.4769111834" lon="31.0390631016"><ele>59.91</ele><time>2026-08-31T05:42:22Z</time></trkpt><trkpt lat="59.4768870436" lon="31.0391217750"><ele>59.35</ele><time>2026-08-31T05:42:47Z</time></trkpt><trkpt lat="59.4768858701" lon="31.0390175879"><ele>59.51</ele><time>2026-08-31T05:43:19Z</time></trkpt><trkpt lat="59.4769869559" lon="31.0389292426"><ele>59.17</ele><time>2026-08-31T05:43:49Z</time></trkpt><trkpt lat="59.4770401809" lon="31.0388317611"><ele>59.92</ele><time>2026-08-31T05:44:01Z</time></trkpt><trkpt lat="59.4771002792" lon="31.0385760292"><ele>59.37</ele><time>2026-08-31T05:44:25Z</time></trkpt><trkpt lat="59.4772278517" lon="31.0384443495"><ele>59.04</ele><time>2026-08-31T05:44:47Z</time></trkpt><trkpt lat="59.4773426838" lon="31.0383030307"><ele>59.98</ele><time>2026-08-31T05:45:07Z</time></trkpt><trkpt lat="59.4774297718" lon="31.0381536651"><ele>59.80</ele><time>2026-08-31T05:45:24Z</time></trkpt><trkpt lat="59.4775016885" lon="31.0380440298"><ele>59.66</ele><time>2026-08-31T05:45:43Z</time></trkpt><trkpt lat="59.4775184523" lon="31.0379407648"><ele>60.64</ele><time>2026-08-31T05:45:52Z</time></trkpt><trkpt lat="59.4775505550" lon="31.0378795769"><ele>60.26</ele><time>2026-08-31T05:46:16Z</time></trkpt><trkpt lat="59.4775464479" lon="31.0378674231"><ele>61.55</ele><time>2026-08-31T05:46:21Z</time></trkpt><trkpt lat="59.4775541592" lon="31.0378805827"><ele>60.85</ele><time>2026-08-31T05:46:45Z</time></trkpt><trkpt lat="59.4775228947" lon="31.0378639027"><ele>61.10</ele><time>2026-08-31T05:46:49Z</time></trkpt><trkpt lat="59.4775551651" lon="31.0378919821"><ele>60.99</ele><time>2026-08-31T05:46:58Z</time></trkpt><trkpt lat="59.4775306899" lon="31.0378286149"><ele>60.90</ele><time>2026-08-31T05:47:22Z</time></trkpt><trkpt lat="59.4773917180" lon="31.0377651639"><ele>60.22</ele><time>2026-08-31T05:47:44Z</time></trkpt><trkpt lat="59.4773218129" lon="31.0376520082"><ele>61.72</ele><time>2026-08-31T05:47:58Z</time></trkpt><trkpt lat="59.4772897940" lon="31.0376342386"><ele>58.46</ele><time>2026-08-31T05:48:03Z</time></trkpt><trkpt lat="59.4772409275" lon="31.0376188997"><ele>60.72</ele><time>2026-08-31T05:48:09Z</time></trkpt><trkpt lat="59.4771050569" lon="31.0376183968"><ele>60.60</ele><time>2026-08-31T05:48:34Z</time></trkpt><trkpt lat="59.4770732056" lon="31.0375624895"><ele>60.35</ele><time>2026-08-31T05:48:41Z</time></trkpt><trkpt lat="59.4769230857" lon="31.0374578834"><ele>61.02</ele><time>2026-08-31T05:49:04Z</time></trkpt><trkpt lat="59.4768391829" lon="31.0375588015"><ele>61.29</ele><time>2026-08-31T05:49:25Z</time></trkpt><trkpt lat="59.4767433777" lon="31.0375417862"><ele>61.38</ele><time>2026-08-31T05:49:37Z</time></trkpt><trkpt lat="59.4766974449" lon="31.0375066660"><ele>61.42</ele><time>2026-08-31T05:49:47Z</time></trkpt><trkpt lat="59.4766363408" lon="31.0374156386"><ele>60.81</ele><time>2026-08-31T05:50:08Z</time></trkpt><trkpt lat="59.4765910786" lon="31.0374094360"><ele>60.93</ele><time>2026-08-31T05:50:16Z</time></trkpt><trkpt lat="59.4765718002" lon="31.0374102741"><ele>60.52</ele><time>2026-08-31T05:50:18Z</time></trkpt><trkpt lat="59.4764562976" lon="31.0374379344"><ele>60.49</ele><time>2026-08-31T05:50:31Z</time></trkpt><trkpt lat="59.4764553756" lon="31.0375356674"><ele>61.35</ele><time>2026-08-31T05:50:58Z</time></trkpt><trkpt lat="59.4764471613" lon="31.0374540277"><ele>61.14</ele><time>2026-08-31T05:51:16Z</time></trkpt><trkpt lat="59.4765504263" lon="31.0372582264"><ele>61.56</ele><time>2026-08-31T05:51:36Z</time></trkpt><trkpt lat="59.4766272884" lon="31.0371073522"><ele>61.28</ele><time>2026-08-31T05:51:57Z</time></trkpt><trkpt lat="59.4766685273" lon="31.0370516963"><ele>61.08</ele><time>2026-08-31T05:52:07Z</time></trkpt><trkpt lat="59.4766805973" lon="31.0369785223"><ele>61.27</ele><time>2026-08-31T05:52:15Z</time></trkpt><trkpt lat="59.4766904879" lon="31.0369382892"><ele>61.62</ele><time>2026-08-31T05:52:18Z</time></trkpt><trkpt lat="59.4767644163" lon="31.0368201882"><ele>59.80</ele><time>2026-08-31T05:52:33Z</time></trkpt><trkpt lat="59.4767811801" lon="31.0367963836"><ele>61.10</ele><time>2026-08-31T05:52:38Z</time></trkpt><trkpt lat="59.4768462237" lon="31.0366444197"><ele>61.68</ele><time>2026-08-31T05:52:58Z</time></trkpt><trkpt lat="59.4768462237" lon="31.0366444197"><ele>61.87</ele><time>2026-08-31T05:52:59Z</time></trkpt><trkpt lat="59.4768439606" lon="31.0365080461"><ele>62.14</ele><time>2026-08-31T05:53:16Z</time></trkpt><trkpt lat="59.4769992772" lon="31.0365635343"><ele>61.88</ele><time>2026-08-31T05:53:48Z</time></trkpt><trkpt lat="59.4768578745" lon="31.0362493806"><ele>61.76</ele><time>2026-08-31T05:54:29Z</time></trkpt><trkpt lat="59.4767573755" lon="31.0361814033"><ele>62.00</ele><time>2026-08-31T05:54:53Z</time></trkpt><trkpt lat="59.4767354149" lon="31.0360769648"><ele>62.92</ele><time>2026-08-31T05:55:14Z</time></trkpt><trkpt lat="59.4767415337" lon="31.0360700078"><ele>62.84</ele><time>2026-08-31T05:55:16Z</time></trkpt><trkpt lat="59.4767622370" lon="31.0359463748"><ele>62.37</ele><time>2026-08-31T05:55:28Z</time></trkpt><trkpt lat="59.4767618179" lon="31.0359281860"><ele>61.81</ele><time>2026-08-31T05:55:30Z</time></trkpt><trkpt lat="59.4767873827" lon="31.0356767289"><ele>62.91</ele><time>2026-08-31T05:55:54Z</time></trkpt><trkpt lat="59.4766914938" lon="31.0355066601"><ele>63.66</ele><time>2026-08-31T05:56:12Z</time></trkpt><trkpt lat="59.4766501710" lon="31.0354715399"><ele>62.79</ele><time>2026-08-31T05:56:16Z</time></trkpt><trkpt lat="59.4766122010" lon="31.0353952646"><ele>63.20</ele><time>2026-08-31T05:56:24Z</time></trkpt><trkpt lat="59.4765874743" lon="31.0353518464"><ele>62.91</ele><time>2026-08-31T05:56:27Z</time></trkpt><trkpt lat="59.4764016476" lon="31.0350781772"><ele>63.04</ele><time>2026-08-31T05:56:52Z</time></trkpt><trkpt lat="59.4763288926" lon="31.0349074379"><ele>63.70</ele><time>2026-08-31T05:57:13Z</time></trkpt><trkpt lat="59.4762892462" lon="31.0348166618"><ele>64.10</ele><time>2026-08-31T05:57:28Z</time></trkpt><trkpt lat="59.4762387872" lon="31.0347413085"><ele>63.52</ele><time>2026-08-31T05:57:35Z</time></trkpt><trkpt lat="59.4760925230" lon="31.0344438348"><ele>64.30</ele><time>2026-08-31T05:57:50Z</time></trkpt><trkpt lat="59.4759589154" lon="31.0342528950"><ele>63.96</ele><time>2026-08-31T05:58:03Z</time></trkpt><trkpt lat="59.4759008288" lon="31.0341093969"><ele>63.94</ele><time>2026-08-31T05:58:13Z</time></trkpt><trkpt lat="59.4758851547" lon="31.0340669844"><ele>63.68</ele><time>2026-08-31T05:58:16Z</time></trkpt><trkpt lat="59.4758595899" lon="31.0339420103"><ele>64.34</ele><time>2026-08-31T05:58:23Z</time></trkpt><trkpt lat="59.4758071192" lon="31.0338184610"><ele>63.36</ele><time>2026-08-31T05:58:39Z</time></trkpt><trkpt lat="59.4757793751" lon="31.0337737855"><ele>63.57</ele><time>2026-08-31T05:59:01Z</time></trkpt><trkpt lat="59.4757367950" lon="31.0336779803"><ele>63.58</ele><time>2026-08-31T05:59:24Z</time></trkpt><trkpt lat="59.4756651297" lon="31.0335095879"><ele>63.14</ele><time>2026-08-31T05:59:39Z</time></trkpt><trkpt lat="59.4756390620" lon="31.0334691871"><ele>63.69</ele><time>2026-08-31T05:59:43Z</time></trkpt><trkpt lat="59.4756237231" lon="31.0334561113"><ele>63.77</ele><time>2026-08-31T05:59:45Z</time></trkpt><trkpt lat="59.4755389821" lon="31.0333181452"><ele>63.51</ele><time>2026-08-31T05:59:57Z</time></trkpt><trkpt lat="59.4755031075" lon="31.0331358388"><ele>64.91</ele><time>2026-08-31T06:00:12Z</time></trkpt><trkpt lat="59.4754423387" lon="31.0329767503"><ele>64.40</ele><time>2026-08-31T06:00:29Z</time></trkpt><trkpt lat="59.4754383154" lon="31.0329537001"><ele>64.24</ele><time>2026-08-31T06:00:31Z</time></trkpt><trkpt lat="59.4753477909" lon="31.0328008980"><ele>64.43</ele><time>2026-08-31T06:00:46Z</time></trkpt><trkpt lat="59.4752236549" lon="31.0325083695"><ele>64.61</ele><time>2026-08-31T06:01:07Z</time></trkpt><trkpt lat="59.4751871936" lon="31.0324366204"><ele>64.88</ele><time>2026-08-31T06:01:14Z</time></trkpt><trkpt lat="59.4751761295" lon="31.0323906038"><ele>63.67</ele><time>2026-08-31T06:01:20Z</time></trkpt><trkpt lat="59.4751705136" lon="31.0324258078"><ele>64.27</ele><time>2026-08-31T06:01:45Z</time></trkpt><trkpt lat="59.4751870260" lon="31.0324094631"><ele>63.43</ele><time>2026-08-31T06:02:00Z</time></trkpt><trkpt lat="59.4752322882" lon="31.0324015841"><ele>63.84</ele><time>2026-08-31T06:02:22Z</time></trkpt><trkpt lat="59.4752431009" lon="31.0323938727"><ele>64.38</ele><time>2026-08-31T06:02:46Z</time></trkpt><trkpt lat="59.4752100762" lon="31.0324257240"><ele>65.18</ele><time>2026-08-31T06:03:12Z</time></trkpt><trkpt lat="59.4752878603" lon="31.0321713332"><ele>64.73</ele><time>2026-08-31T06:03:30Z</time></trkpt><trkpt lat="59.4754759502" lon="31.0318299383"><ele>65.08</ele><time>2026-08-31T06:03:53Z</time></trkpt><trkpt lat="59.4755741023" lon="31.0316389985"><ele>64.89</ele><time>2026-08-31T06:04:06Z</time></trkpt><trkpt lat="59.4757614378" lon="31.0312910657"><ele>65.24</ele><time>2026-08-31T06:04:29Z</time></trkpt><trkpt lat="59.4757844042" lon="31.0312432889"><ele>64.94</ele><time>2026-08-31T06:04:32Z</time></trkpt><trkpt lat="59.4757942110" lon="31.0312062409"><ele>64.46</ele><time>2026-08-31T06:04:34Z</time></trkpt><trkpt lat="59.4759152457" lon="31.0309549514"><ele>64.61</ele><time>2026-08-31T06:04:51Z</time></trkpt><trkpt lat="59.4760256354" lon="31.0307749920"><ele>64.54</ele><time>2026-08-31T06:05:05Z</time></trkpt><trkpt lat="59.4761649426" lon="31.0304978024"><ele>65.42</ele><time>2026-08-31T06:05:25Z</time></trkpt></trkseg></trk></gpx>